<?xml version="1.0" encoding="UTF-8" standalone="no" ?>
<gpx xmlns="http://www.topografix.com/GPX/1/1" xmlns:xsi="http://www.w3.org/2001/XMLSchema-instance" xsi:schemaLocation="http://www.topografix.com/GPX/1/1 http://www.topografix.com/GPX/1/1/gpx.xsd" version="1.1" creator="VisuGPX - https://www.visugpx.com">
  <metadata>
    <name>St Eutrope Rouge</name>
  </metadata>
  <trk>
    <name><![CDATA[St Eutrope Rouge_1]]></name>
    <trkseg>
      <trkpt lat="46.18635" lon="-0.47851">
        <ele>63.2</ele>
        <time>2021-03-30T14:54:21Z</time>
      </trkpt>
      <trkpt lat="46.1863" lon="-0.47857">
        <ele>62.8</ele>
        <time>2021-03-30T14:54:22Z</time>
      </trkpt>
      <trkpt lat="46.18622" lon="-0.47872">
        <ele>61.6</ele>
        <time>2021-03-30T14:54:24Z</time>
      </trkpt>
      <trkpt lat="46.18614" lon="-0.47889">
        <ele>60.4</ele>
        <time>2021-03-30T14:54:26Z</time>
      </trkpt>
      <trkpt lat="46.18604" lon="-0.47906">
        <ele>59.2</ele>
        <time>2021-03-30T14:54:28Z</time>
      </trkpt>
      <trkpt lat="46.18592" lon="-0.47922">
        <ele>58</ele>
        <time>2021-03-30T14:54:30Z</time>
      </trkpt>
      <trkpt lat="46.1858" lon="-0.47933">
        <ele>58.2</ele>
        <time>2021-03-30T14:54:32Z</time>
      </trkpt>
      <trkpt lat="46.18575" lon="-0.47942">
        <ele>58.6</ele>
        <time>2021-03-30T14:54:33Z</time>
      </trkpt>
      <trkpt lat="46.18574" lon="-0.47951">
        <ele>58.8</ele>
        <time>2021-03-30T14:54:34Z</time>
      </trkpt>
      <trkpt lat="46.18576" lon="-0.47959">
        <ele>58.6</ele>
        <time>2021-03-30T14:54:35Z</time>
      </trkpt>
      <trkpt lat="46.18579" lon="-0.47968">
        <ele>58.6</ele>
        <time>2021-03-30T14:54:36Z</time>
      </trkpt>
      <trkpt lat="46.18583" lon="-0.47974">
        <ele>58.4</ele>
        <time>2021-03-30T14:54:37Z</time>
      </trkpt>
      <trkpt lat="46.18605" lon="-0.4802">
        <ele>58.6</ele>
        <time>2021-03-30T14:54:42Z</time>
      </trkpt>
      <trkpt lat="46.18623" lon="-0.48059">
        <ele>58.6</ele>
        <time>2021-03-30T14:54:46Z</time>
      </trkpt>
      <trkpt lat="46.1864" lon="-0.48089">
        <ele>58.6</ele>
        <time>2021-03-30T14:54:49Z</time>
      </trkpt>
      <trkpt lat="46.18661" lon="-0.48121">
        <ele>58.8</ele>
        <time>2021-03-30T14:54:53Z</time>
      </trkpt>
      <trkpt lat="46.18665" lon="-0.48127">
        <ele>59.2</ele>
        <time>2021-03-30T14:54:54Z</time>
      </trkpt>
      <trkpt lat="46.1867" lon="-0.48134">
        <ele>59.4</ele>
        <time>2021-03-30T14:54:55Z</time>
      </trkpt>
      <trkpt lat="46.18674" lon="-0.48138">
        <ele>59.4</ele>
        <time>2021-03-30T14:54:56Z</time>
      </trkpt>
      <trkpt lat="46.18679" lon="-0.48144">
        <ele>60</ele>
        <time>2021-03-30T14:54:57Z</time>
      </trkpt>
      <trkpt lat="46.18683" lon="-0.48148">
        <ele>60.4</ele>
        <time>2021-03-30T14:54:58Z</time>
      </trkpt>
      <trkpt lat="46.1869" lon="-0.4815">
        <ele>60.8</ele>
        <time>2021-03-30T14:54:59Z</time>
      </trkpt>
      <trkpt lat="46.18698" lon="-0.4815">
        <ele>61</ele>
        <time>2021-03-30T14:55:00Z</time>
      </trkpt>
      <trkpt lat="46.18705" lon="-0.48149">
        <ele>61</ele>
        <time>2021-03-30T14:55:01Z</time>
      </trkpt>
      <trkpt lat="46.18714" lon="-0.48147">
        <ele>61</ele>
        <time>2021-03-30T14:55:02Z</time>
      </trkpt>
      <trkpt lat="46.18723" lon="-0.48146">
        <ele>61.2</ele>
        <time>2021-03-30T14:55:03Z</time>
      </trkpt>
      <trkpt lat="46.18734" lon="-0.48144">
        <ele>61.2</ele>
        <time>2021-03-30T14:55:04Z</time>
      </trkpt>
      <trkpt lat="46.18769" lon="-0.48137">
        <ele>61.2</ele>
        <time>2021-03-30T14:55:08Z</time>
      </trkpt>
      <trkpt lat="46.18822" lon="-0.48112">
        <ele>60.6</ele>
        <time>2021-03-30T14:55:14Z</time>
      </trkpt>
      <trkpt lat="46.18836" lon="-0.48101">
        <ele>60.2</ele>
        <time>2021-03-30T14:55:16Z</time>
      </trkpt>
      <trkpt lat="46.18844" lon="-0.48095">
        <ele>60.2</ele>
        <time>2021-03-30T14:55:17Z</time>
      </trkpt>
      <trkpt lat="46.1887" lon="-0.48073">
        <ele>59.8</ele>
        <time>2021-03-30T14:55:20Z</time>
      </trkpt>
      <trkpt lat="46.18893" lon="-0.48056">
        <ele>59.4</ele>
        <time>2021-03-30T14:55:23Z</time>
      </trkpt>
      <trkpt lat="46.18902" lon="-0.48049">
        <ele>59.2</ele>
        <time>2021-03-30T14:55:24Z</time>
      </trkpt>
      <trkpt lat="46.18918" lon="-0.48037">
        <ele>58.6</ele>
        <time>2021-03-30T14:55:26Z</time>
      </trkpt>
      <trkpt lat="46.18945" lon="-0.48017">
        <ele>57.8</ele>
        <time>2021-03-30T14:55:29Z</time>
      </trkpt>
      <trkpt lat="46.18962" lon="-0.48005">
        <ele>57.4</ele>
        <time>2021-03-30T14:55:31Z</time>
      </trkpt>
      <trkpt lat="46.1897" lon="-0.47998">
        <ele>57.2</ele>
        <time>2021-03-30T14:55:32Z</time>
      </trkpt>
      <trkpt lat="46.18978" lon="-0.4799">
        <ele>56.8</ele>
        <time>2021-03-30T14:55:33Z</time>
      </trkpt>
      <trkpt lat="46.18988" lon="-0.47981">
        <ele>56</ele>
        <time>2021-03-30T14:55:34Z</time>
      </trkpt>
      <trkpt lat="46.18995" lon="-0.47973">
        <ele>55.4</ele>
        <time>2021-03-30T14:55:35Z</time>
      </trkpt>
      <trkpt lat="46.19003" lon="-0.47965">
        <ele>54.8</ele>
        <time>2021-03-30T14:55:36Z</time>
      </trkpt>
      <trkpt lat="46.1901" lon="-0.47957">
        <ele>54</ele>
        <time>2021-03-30T14:55:37Z</time>
      </trkpt>
      <trkpt lat="46.19017" lon="-0.47949">
        <ele>53.4</ele>
        <time>2021-03-30T14:55:38Z</time>
      </trkpt>
      <trkpt lat="46.19024" lon="-0.47942">
        <ele>52.6</ele>
        <time>2021-03-30T14:55:39Z</time>
      </trkpt>
      <trkpt lat="46.1903" lon="-0.47934">
        <ele>52</ele>
        <time>2021-03-30T14:55:40Z</time>
      </trkpt>
      <trkpt lat="46.19036" lon="-0.47927">
        <ele>51.6</ele>
        <time>2021-03-30T14:55:41Z</time>
      </trkpt>
      <trkpt lat="46.19041" lon="-0.4792">
        <ele>51.6</ele>
        <time>2021-03-30T14:55:42Z</time>
      </trkpt>
      <trkpt lat="46.19047" lon="-0.47914">
        <ele>51.4</ele>
        <time>2021-03-30T14:55:43Z</time>
      </trkpt>
      <trkpt lat="46.19054" lon="-0.47907">
        <ele>51.2</ele>
        <time>2021-03-30T14:55:44Z</time>
      </trkpt>
      <trkpt lat="46.19061" lon="-0.479">
        <ele>51</ele>
        <time>2021-03-30T14:55:45Z</time>
      </trkpt>
      <trkpt lat="46.19067" lon="-0.47892">
        <ele>51</ele>
        <time>2021-03-30T14:55:46Z</time>
      </trkpt>
      <trkpt lat="46.19093" lon="-0.47862">
        <ele>50.6</ele>
        <time>2021-03-30T14:55:50Z</time>
      </trkpt>
      <trkpt lat="46.19113" lon="-0.47837">
        <ele>50.4</ele>
        <time>2021-03-30T14:55:53Z</time>
      </trkpt>
      <trkpt lat="46.19124" lon="-0.4782">
        <ele>50.2</ele>
        <time>2021-03-30T14:55:55Z</time>
      </trkpt>
      <trkpt lat="46.19138" lon="-0.47808">
        <ele>50</ele>
        <time>2021-03-30T14:55:57Z</time>
      </trkpt>
      <trkpt lat="46.19155" lon="-0.47803">
        <ele>49.8</ele>
        <time>2021-03-30T14:55:59Z</time>
      </trkpt>
      <trkpt lat="46.19163" lon="-0.478">
        <ele>49.8</ele>
        <time>2021-03-30T14:56:00Z</time>
      </trkpt>
      <trkpt lat="46.19171" lon="-0.47798">
        <ele>49.6</ele>
        <time>2021-03-30T14:56:01Z</time>
      </trkpt>
      <trkpt lat="46.1918" lon="-0.47795">
        <ele>49.6</ele>
        <time>2021-03-30T14:56:02Z</time>
      </trkpt>
      <trkpt lat="46.19188" lon="-0.47796">
        <ele>49.4</ele>
        <time>2021-03-30T14:56:03Z</time>
      </trkpt>
      <trkpt lat="46.19195" lon="-0.47794">
        <ele>49.2</ele>
        <time>2021-03-30T14:56:04Z</time>
      </trkpt>
      <trkpt lat="46.19247" lon="-0.47782">
        <ele>48.6</ele>
        <time>2021-03-30T14:56:10Z</time>
      </trkpt>
      <trkpt lat="46.19284" lon="-0.47779">
        <ele>48.6</ele>
        <time>2021-03-30T14:56:14Z</time>
      </trkpt>
      <trkpt lat="46.19293" lon="-0.4778">
        <ele>48.6</ele>
        <time>2021-03-30T14:56:15Z</time>
      </trkpt>
      <trkpt lat="46.19302" lon="-0.47783">
        <ele>48.4</ele>
        <time>2021-03-30T14:56:16Z</time>
      </trkpt>
      <trkpt lat="46.19312" lon="-0.47788">
        <ele>48.4</ele>
        <time>2021-03-30T14:56:17Z</time>
      </trkpt>
      <trkpt lat="46.1932" lon="-0.47794">
        <ele>48.4</ele>
        <time>2021-03-30T14:56:18Z</time>
      </trkpt>
      <trkpt lat="46.19327" lon="-0.47801">
        <ele>48</ele>
        <time>2021-03-30T14:56:19Z</time>
      </trkpt>
      <trkpt lat="46.19335" lon="-0.47807">
        <ele>47.8</ele>
        <time>2021-03-30T14:56:20Z</time>
      </trkpt>
      <trkpt lat="46.19343" lon="-0.4781">
        <ele>47.6</ele>
        <time>2021-03-30T14:56:21Z</time>
      </trkpt>
      <trkpt lat="46.19352" lon="-0.4781">
        <ele>47.6</ele>
        <time>2021-03-30T14:56:22Z</time>
      </trkpt>
      <trkpt lat="46.1936" lon="-0.47809">
        <ele>47.6</ele>
        <time>2021-03-30T14:56:23Z</time>
      </trkpt>
      <trkpt lat="46.19368" lon="-0.47806">
        <ele>47.6</ele>
        <time>2021-03-30T14:56:24Z</time>
      </trkpt>
      <trkpt lat="46.19375" lon="-0.47803">
        <ele>47.6</ele>
        <time>2021-03-30T14:56:25Z</time>
      </trkpt>
      <trkpt lat="46.19383" lon="-0.478">
        <ele>47.6</ele>
        <time>2021-03-30T14:56:26Z</time>
      </trkpt>
      <trkpt lat="46.1939" lon="-0.47796">
        <ele>47.6</ele>
        <time>2021-03-30T14:56:27Z</time>
      </trkpt>
      <trkpt lat="46.19396" lon="-0.47791">
        <ele>47.6</ele>
        <time>2021-03-30T14:56:28Z</time>
      </trkpt>
      <trkpt lat="46.19403" lon="-0.47787">
        <ele>47.8</ele>
        <time>2021-03-30T14:56:29Z</time>
      </trkpt>
      <trkpt lat="46.19416" lon="-0.47778">
        <ele>48.6</ele>
        <time>2021-03-30T14:56:31Z</time>
      </trkpt>
      <trkpt lat="46.19423" lon="-0.47773">
        <ele>49</ele>
        <time>2021-03-30T14:56:32Z</time>
      </trkpt>
      <trkpt lat="46.1943" lon="-0.47769">
        <ele>50.4</ele>
        <time>2021-03-30T14:56:33Z</time>
      </trkpt>
      <trkpt lat="46.19436" lon="-0.47765">
        <ele>51</ele>
        <time>2021-03-30T14:56:34Z</time>
      </trkpt>
      <trkpt lat="46.19443" lon="-0.4776">
        <ele>51.6</ele>
        <time>2021-03-30T14:56:35Z</time>
      </trkpt>
      <trkpt lat="46.1945" lon="-0.47756">
        <ele>52.2</ele>
        <time>2021-03-30T14:56:36Z</time>
      </trkpt>
      <trkpt lat="46.19456" lon="-0.47751">
        <ele>52.6</ele>
        <time>2021-03-30T14:56:37Z</time>
      </trkpt>
      <trkpt lat="46.19475" lon="-0.47739">
        <ele>54</ele>
        <time>2021-03-30T14:56:40Z</time>
      </trkpt>
      <trkpt lat="46.19481" lon="-0.47736">
        <ele>54.2</ele>
        <time>2021-03-30T14:56:41Z</time>
      </trkpt>
      <trkpt lat="46.19487" lon="-0.47734">
        <ele>54.4</ele>
        <time>2021-03-30T14:56:42Z</time>
      </trkpt>
      <trkpt lat="46.19493" lon="-0.47734">
        <ele>54.4</ele>
        <time>2021-03-30T14:56:43Z</time>
      </trkpt>
      <trkpt lat="46.195" lon="-0.47737">
        <ele>54.4</ele>
        <time>2021-03-30T14:56:44Z</time>
      </trkpt>
      <trkpt lat="46.19506" lon="-0.4774">
        <ele>54.4</ele>
        <time>2021-03-30T14:56:45Z</time>
      </trkpt>
      <trkpt lat="46.19514" lon="-0.47743">
        <ele>54.4</ele>
        <time>2021-03-30T14:56:46Z</time>
      </trkpt>
      <trkpt lat="46.19522" lon="-0.47746">
        <ele>54.4</ele>
        <time>2021-03-30T14:56:47Z</time>
      </trkpt>
      <trkpt lat="46.1953" lon="-0.47749">
        <ele>54.4</ele>
        <time>2021-03-30T14:56:48Z</time>
      </trkpt>
      <trkpt lat="46.19538" lon="-0.47751">
        <ele>54.4</ele>
        <time>2021-03-30T14:56:49Z</time>
      </trkpt>
      <trkpt lat="46.19547" lon="-0.47753">
        <ele>54.4</ele>
        <time>2021-03-30T14:56:50Z</time>
      </trkpt>
      <trkpt lat="46.19556" lon="-0.47755">
        <ele>54.4</ele>
        <time>2021-03-30T14:56:51Z</time>
      </trkpt>
      <trkpt lat="46.19565" lon="-0.47757">
        <ele>54.4</ele>
        <time>2021-03-30T14:56:52Z</time>
      </trkpt>
      <trkpt lat="46.19574" lon="-0.47759">
        <ele>53.8</ele>
        <time>2021-03-30T14:56:53Z</time>
      </trkpt>
      <trkpt lat="46.19583" lon="-0.47762">
        <ele>53.2</ele>
        <time>2021-03-30T14:56:54Z</time>
      </trkpt>
      <trkpt lat="46.19592" lon="-0.47765">
        <ele>52.8</ele>
        <time>2021-03-30T14:56:55Z</time>
      </trkpt>
      <trkpt lat="46.19601" lon="-0.47768">
        <ele>52.6</ele>
        <time>2021-03-30T14:56:56Z</time>
      </trkpt>
      <trkpt lat="46.1961" lon="-0.47772">
        <ele>52.4</ele>
        <time>2021-03-30T14:56:57Z</time>
      </trkpt>
      <trkpt lat="46.19618" lon="-0.47776">
        <ele>52.2</ele>
        <time>2021-03-30T14:56:58Z</time>
      </trkpt>
      <trkpt lat="46.19627" lon="-0.4778">
        <ele>52.2</ele>
        <time>2021-03-30T14:56:59Z</time>
      </trkpt>
      <trkpt lat="46.19636" lon="-0.47784">
        <ele>52.2</ele>
        <time>2021-03-30T14:57:00Z</time>
      </trkpt>
      <trkpt lat="46.19662" lon="-0.47796">
        <ele>51.8</ele>
        <time>2021-03-30T14:57:03Z</time>
      </trkpt>
      <trkpt lat="46.19687" lon="-0.47814">
        <ele>52</ele>
        <time>2021-03-30T14:57:06Z</time>
      </trkpt>
      <trkpt lat="46.19723" lon="-0.47853">
        <ele>52.6</ele>
        <time>2021-03-30T14:57:11Z</time>
      </trkpt>
      <trkpt lat="46.19745" lon="-0.47879">
        <ele>53.2</ele>
        <time>2021-03-30T14:57:14Z</time>
      </trkpt>
      <trkpt lat="46.19767" lon="-0.47904">
        <ele>53.4</ele>
        <time>2021-03-30T14:57:17Z</time>
      </trkpt>
      <trkpt lat="46.19794" lon="-0.47938">
        <ele>53.6</ele>
        <time>2021-03-30T14:57:21Z</time>
      </trkpt>
      <trkpt lat="46.198" lon="-0.47947">
        <ele>53.6</ele>
        <time>2021-03-30T14:57:22Z</time>
      </trkpt>
      <trkpt lat="46.19806" lon="-0.47957">
        <ele>53.6</ele>
        <time>2021-03-30T14:57:23Z</time>
      </trkpt>
      <trkpt lat="46.19813" lon="-0.47967">
        <ele>53.8</ele>
        <time>2021-03-30T14:57:24Z</time>
      </trkpt>
      <trkpt lat="46.19818" lon="-0.47975">
        <ele>53.8</ele>
        <time>2021-03-30T14:57:25Z</time>
      </trkpt>
      <trkpt lat="46.19823" lon="-0.47984">
        <ele>54</ele>
        <time>2021-03-30T14:57:26Z</time>
      </trkpt>
      <trkpt lat="46.19829" lon="-0.47993">
        <ele>54</ele>
        <time>2021-03-30T14:57:27Z</time>
      </trkpt>
      <trkpt lat="46.19836" lon="-0.48002">
        <ele>54</ele>
        <time>2021-03-30T14:57:28Z</time>
      </trkpt>
      <trkpt lat="46.19848" lon="-0.48021">
        <ele>54.2</ele>
        <time>2021-03-30T14:57:30Z</time>
      </trkpt>
      <trkpt lat="46.19853" lon="-0.4803">
        <ele>54.2</ele>
        <time>2021-03-30T14:57:31Z</time>
      </trkpt>
      <trkpt lat="46.19887" lon="-0.48094">
        <ele>54.2</ele>
        <time>2021-03-30T14:57:37Z</time>
      </trkpt>
      <trkpt lat="46.19892" lon="-0.48106">
        <ele>54.2</ele>
        <time>2021-03-30T14:57:38Z</time>
      </trkpt>
      <trkpt lat="46.19895" lon="-0.48119">
        <ele>54.2</ele>
        <time>2021-03-30T14:57:39Z</time>
      </trkpt>
      <trkpt lat="46.19903" lon="-0.4816">
        <ele>54.2</ele>
        <time>2021-03-30T14:57:42Z</time>
      </trkpt>
      <trkpt lat="46.1991" lon="-0.48215">
        <ele>52.8</ele>
        <time>2021-03-30T14:57:46Z</time>
      </trkpt>
      <trkpt lat="46.19915" lon="-0.48243">
        <ele>52.2</ele>
        <time>2021-03-30T14:57:48Z</time>
      </trkpt>
      <trkpt lat="46.19917" lon="-0.48256">
        <ele>51.6</ele>
        <time>2021-03-30T14:57:49Z</time>
      </trkpt>
      <trkpt lat="46.1992" lon="-0.48268">
        <ele>51.2</ele>
        <time>2021-03-30T14:57:50Z</time>
      </trkpt>
      <trkpt lat="46.19924" lon="-0.48281">
        <ele>50.6</ele>
        <time>2021-03-30T14:57:51Z</time>
      </trkpt>
      <trkpt lat="46.19929" lon="-0.48292">
        <ele>50.2</ele>
        <time>2021-03-30T14:57:52Z</time>
      </trkpt>
      <trkpt lat="46.19935" lon="-0.48301">
        <ele>49.8</ele>
        <time>2021-03-30T14:57:53Z</time>
      </trkpt>
      <trkpt lat="46.19941" lon="-0.48309">
        <ele>49.4</ele>
        <time>2021-03-30T14:57:54Z</time>
      </trkpt>
      <trkpt lat="46.19946" lon="-0.48316">
        <ele>49.4</ele>
        <time>2021-03-30T14:57:55Z</time>
      </trkpt>
      <trkpt lat="46.1995" lon="-0.48323">
        <ele>49</ele>
        <time>2021-03-30T14:57:56Z</time>
      </trkpt>
      <trkpt lat="46.19951" lon="-0.4833">
        <ele>49</ele>
        <time>2021-03-30T14:57:57Z</time>
      </trkpt>
      <trkpt lat="46.1995" lon="-0.48335">
        <ele>48.8</ele>
        <time>2021-03-30T14:57:58Z</time>
      </trkpt>
      <trkpt lat="46.19947" lon="-0.48337">
        <ele>48.8</ele>
        <time>2021-03-30T14:57:59Z</time>
      </trkpt>
      <trkpt lat="46.19943" lon="-0.48339">
        <ele>48.6</ele>
        <time>2021-03-30T14:58:00Z</time>
      </trkpt>
      <trkpt lat="46.19938" lon="-0.48341">
        <ele>48.4</ele>
        <time>2021-03-30T14:58:01Z</time>
      </trkpt>
      <trkpt lat="46.19933" lon="-0.48343">
        <ele>48.4</ele>
        <time>2021-03-30T14:58:02Z</time>
      </trkpt>
      <trkpt lat="46.19928" lon="-0.48347">
        <ele>48.2</ele>
        <time>2021-03-30T14:58:03Z</time>
      </trkpt>
      <trkpt lat="46.19918" lon="-0.48358">
        <ele>48.2</ele>
        <time>2021-03-30T14:58:05Z</time>
      </trkpt>
      <trkpt lat="46.19913" lon="-0.48364">
        <ele>48.2</ele>
        <time>2021-03-30T14:58:06Z</time>
      </trkpt>
      <trkpt lat="46.19908" lon="-0.48371">
        <ele>48.2</ele>
        <time>2021-03-30T14:58:07Z</time>
      </trkpt>
      <trkpt lat="46.19872" lon="-0.48423">
        <ele>48.6</ele>
        <time>2021-03-30T14:58:14Z</time>
      </trkpt>
      <trkpt lat="46.19832" lon="-0.48472">
        <ele>49.2</ele>
        <time>2021-03-30T14:58:21Z</time>
      </trkpt>
      <trkpt lat="46.198" lon="-0.48505">
        <ele>50.2</ele>
        <time>2021-03-30T14:58:26Z</time>
      </trkpt>
      <trkpt lat="46.19767" lon="-0.48541">
        <ele>51.2</ele>
        <time>2021-03-30T14:58:31Z</time>
      </trkpt>
      <trkpt lat="46.19759" lon="-0.4855">
        <ele>51.4</ele>
        <time>2021-03-30T14:58:32Z</time>
      </trkpt>
      <trkpt lat="46.19732" lon="-0.48579">
        <ele>51.8</ele>
        <time>2021-03-30T14:58:36Z</time>
      </trkpt>
      <trkpt lat="46.19726" lon="-0.48586">
        <ele>51.8</ele>
        <time>2021-03-30T14:58:37Z</time>
      </trkpt>
      <trkpt lat="46.19719" lon="-0.48592">
        <ele>51.8</ele>
        <time>2021-03-30T14:58:38Z</time>
      </trkpt>
      <trkpt lat="46.19712" lon="-0.48598">
        <ele>51.8</ele>
        <time>2021-03-30T14:58:39Z</time>
      </trkpt>
      <trkpt lat="46.19705" lon="-0.48604">
        <ele>51.8</ele>
        <time>2021-03-30T14:58:40Z</time>
      </trkpt>
      <trkpt lat="46.19698" lon="-0.48609">
        <ele>51.8</ele>
        <time>2021-03-30T14:58:41Z</time>
      </trkpt>
      <trkpt lat="46.1969" lon="-0.48614">
        <ele>51.8</ele>
        <time>2021-03-30T14:58:42Z</time>
      </trkpt>
      <trkpt lat="46.19683" lon="-0.4862">
        <ele>52</ele>
        <time>2021-03-30T14:58:43Z</time>
      </trkpt>
      <trkpt lat="46.19676" lon="-0.48625">
        <ele>52</ele>
        <time>2021-03-30T14:58:44Z</time>
      </trkpt>
      <trkpt lat="46.19669" lon="-0.4863">
        <ele>52</ele>
        <time>2021-03-30T14:58:45Z</time>
      </trkpt>
      <trkpt lat="46.19661" lon="-0.48635">
        <ele>52</ele>
        <time>2021-03-30T14:58:46Z</time>
      </trkpt>
      <trkpt lat="46.19654" lon="-0.48641">
        <ele>52</ele>
        <time>2021-03-30T14:58:47Z</time>
      </trkpt>
      <trkpt lat="46.1964" lon="-0.48651">
        <ele>52</ele>
        <time>2021-03-30T14:58:49Z</time>
      </trkpt>
      <trkpt lat="46.19624" lon="-0.4866">
        <ele>52.6</ele>
        <time>2021-03-30T14:58:51Z</time>
      </trkpt>
      <trkpt lat="46.19602" lon="-0.48667">
        <ele>53</ele>
        <time>2021-03-30T14:58:54Z</time>
      </trkpt>
      <trkpt lat="46.19578" lon="-0.4867">
        <ele>53.6</ele>
        <time>2021-03-30T14:58:57Z</time>
      </trkpt>
      <trkpt lat="46.1957" lon="-0.48671">
        <ele>53.8</ele>
        <time>2021-03-30T14:58:58Z</time>
      </trkpt>
      <trkpt lat="46.19563" lon="-0.48672">
        <ele>53.8</ele>
        <time>2021-03-30T14:58:59Z</time>
      </trkpt>
      <trkpt lat="46.19547" lon="-0.48674">
        <ele>54.8</ele>
        <time>2021-03-30T14:59:01Z</time>
      </trkpt>
      <trkpt lat="46.19539" lon="-0.48675">
        <ele>54.8</ele>
        <time>2021-03-30T14:59:02Z</time>
      </trkpt>
      <trkpt lat="46.19531" lon="-0.48675">
        <ele>55</ele>
        <time>2021-03-30T14:59:03Z</time>
      </trkpt>
      <trkpt lat="46.19523" lon="-0.48676">
        <ele>55.2</ele>
        <time>2021-03-30T14:59:04Z</time>
      </trkpt>
      <trkpt lat="46.19516" lon="-0.48677">
        <ele>55.2</ele>
        <time>2021-03-30T14:59:05Z</time>
      </trkpt>
      <trkpt lat="46.19509" lon="-0.48678">
        <ele>55.2</ele>
        <time>2021-03-30T14:59:06Z</time>
      </trkpt>
      <trkpt lat="46.19502" lon="-0.48681">
        <ele>55.4</ele>
        <time>2021-03-30T14:59:07Z</time>
      </trkpt>
      <trkpt lat="46.19497" lon="-0.48685">
        <ele>55.4</ele>
        <time>2021-03-30T14:59:08Z</time>
      </trkpt>
      <trkpt lat="46.19491" lon="-0.48689">
        <ele>55.4</ele>
        <time>2021-03-30T14:59:09Z</time>
      </trkpt>
      <trkpt lat="46.19486" lon="-0.48693">
        <ele>55.6</ele>
        <time>2021-03-30T14:59:10Z</time>
      </trkpt>
      <trkpt lat="46.19482" lon="-0.48697">
        <ele>55.8</ele>
        <time>2021-03-30T14:59:11Z</time>
      </trkpt>
      <trkpt lat="46.19477" lon="-0.48702">
        <ele>55.8</ele>
        <time>2021-03-30T14:59:12Z</time>
      </trkpt>
      <trkpt lat="46.19473" lon="-0.48706">
        <ele>56.4</ele>
        <time>2021-03-30T14:59:13Z</time>
      </trkpt>
      <trkpt lat="46.1947" lon="-0.48708">
        <ele>56.8</ele>
        <time>2021-03-30T14:59:14Z</time>
      </trkpt>
      <trkpt lat="46.19467" lon="-0.48709">
        <ele>57</ele>
        <time>2021-03-30T14:59:15Z</time>
      </trkpt>
      <trkpt lat="46.19464" lon="-0.48709">
        <ele>57.8</ele>
        <time>2021-03-30T14:59:16Z</time>
      </trkpt>
      <trkpt lat="46.19461" lon="-0.48705">
        <ele>58.6</ele>
        <time>2021-03-30T14:59:17Z</time>
      </trkpt>
      <trkpt lat="46.19457" lon="-0.48699">
        <ele>59</ele>
        <time>2021-03-30T14:59:18Z</time>
      </trkpt>
      <trkpt lat="46.19454" lon="-0.48693">
        <ele>59.6</ele>
        <time>2021-03-30T14:59:19Z</time>
      </trkpt>
      <trkpt lat="46.1945" lon="-0.48685">
        <ele>59.8</ele>
        <time>2021-03-30T14:59:20Z</time>
      </trkpt>
      <trkpt lat="46.19446" lon="-0.48678">
        <ele>59.8</ele>
        <time>2021-03-30T14:59:21Z</time>
      </trkpt>
      <trkpt lat="46.19441" lon="-0.48674">
        <ele>60</ele>
        <time>2021-03-30T14:59:22Z</time>
      </trkpt>
      <trkpt lat="46.19436" lon="-0.48673">
        <ele>60.2</ele>
        <time>2021-03-30T14:59:23Z</time>
      </trkpt>
      <trkpt lat="46.1943" lon="-0.48674">
        <ele>60.2</ele>
        <time>2021-03-30T14:59:24Z</time>
      </trkpt>
      <trkpt lat="46.19424" lon="-0.48678">
        <ele>60.4</ele>
        <time>2021-03-30T14:59:25Z</time>
      </trkpt>
      <trkpt lat="46.19418" lon="-0.48682">
        <ele>60.6</ele>
        <time>2021-03-30T14:59:26Z</time>
      </trkpt>
      <trkpt lat="46.19412" lon="-0.48687">
        <ele>60.6</ele>
        <time>2021-03-30T14:59:27Z</time>
      </trkpt>
      <trkpt lat="46.19405" lon="-0.48692">
        <ele>60.6</ele>
        <time>2021-03-30T14:59:28Z</time>
      </trkpt>
      <trkpt lat="46.19398" lon="-0.48698">
        <ele>60.6</ele>
        <time>2021-03-30T14:59:29Z</time>
      </trkpt>
      <trkpt lat="46.1939" lon="-0.48703">
        <ele>60.6</ele>
        <time>2021-03-30T14:59:30Z</time>
      </trkpt>
      <trkpt lat="46.19383" lon="-0.48709">
        <ele>60.6</ele>
        <time>2021-03-30T14:59:31Z</time>
      </trkpt>
      <trkpt lat="46.19375" lon="-0.48714">
        <ele>60.6</ele>
        <time>2021-03-30T14:59:32Z</time>
      </trkpt>
      <trkpt lat="46.19367" lon="-0.4872">
        <ele>60.4</ele>
        <time>2021-03-30T14:59:33Z</time>
      </trkpt>
      <trkpt lat="46.19359" lon="-0.48726">
        <ele>60.4</ele>
        <time>2021-03-30T14:59:34Z</time>
      </trkpt>
      <trkpt lat="46.19352" lon="-0.48732">
        <ele>60.4</ele>
        <time>2021-03-30T14:59:35Z</time>
      </trkpt>
      <trkpt lat="46.19343" lon="-0.48736">
        <ele>60.2</ele>
        <time>2021-03-30T14:59:36Z</time>
      </trkpt>
      <trkpt lat="46.19335" lon="-0.4874">
        <ele>60.2</ele>
        <time>2021-03-30T14:59:37Z</time>
      </trkpt>
      <trkpt lat="46.19327" lon="-0.48743">
        <ele>60</ele>
        <time>2021-03-30T14:59:38Z</time>
      </trkpt>
      <trkpt lat="46.19319" lon="-0.48746">
        <ele>60.2</ele>
        <time>2021-03-30T14:59:39Z</time>
      </trkpt>
      <trkpt lat="46.19311" lon="-0.48749">
        <ele>60.2</ele>
        <time>2021-03-30T14:59:40Z</time>
      </trkpt>
      <trkpt lat="46.19303" lon="-0.48751">
        <ele>60.2</ele>
        <time>2021-03-30T14:59:41Z</time>
      </trkpt>
      <trkpt lat="46.19295" lon="-0.48754">
        <ele>60.2</ele>
        <time>2021-03-30T14:59:42Z</time>
      </trkpt>
      <trkpt lat="46.19287" lon="-0.48757">
        <ele>60.2</ele>
        <time>2021-03-30T14:59:43Z</time>
      </trkpt>
      <trkpt lat="46.19279" lon="-0.48759">
        <ele>60</ele>
        <time>2021-03-30T14:59:44Z</time>
      </trkpt>
      <trkpt lat="46.19263" lon="-0.48764">
        <ele>60</ele>
        <time>2021-03-30T14:59:46Z</time>
      </trkpt>
      <trkpt lat="46.19255" lon="-0.48768">
        <ele>60</ele>
        <time>2021-03-30T14:59:47Z</time>
      </trkpt>
      <trkpt lat="46.19247" lon="-0.48773">
        <ele>60</ele>
        <time>2021-03-30T14:59:48Z</time>
      </trkpt>
      <trkpt lat="46.19226" lon="-0.48793">
        <ele>60.2</ele>
        <time>2021-03-30T14:59:51Z</time>
      </trkpt>
      <trkpt lat="46.19179" lon="-0.48849">
        <ele>60.4</ele>
        <time>2021-03-30T14:59:58Z</time>
      </trkpt>
      <trkpt lat="46.19166" lon="-0.48865">
        <ele>60.8</ele>
        <time>2021-03-30T15:00:00Z</time>
      </trkpt>
      <trkpt lat="46.1914" lon="-0.48897">
        <ele>61.8</ele>
        <time>2021-03-30T15:00:04Z</time>
      </trkpt>
      <trkpt lat="46.19133" lon="-0.48905">
        <ele>62</ele>
        <time>2021-03-30T15:00:05Z</time>
      </trkpt>
      <trkpt lat="46.19087" lon="-0.48959">
        <ele>62.8</ele>
        <time>2021-03-30T15:00:12Z</time>
      </trkpt>
      <trkpt lat="46.19081" lon="-0.48966">
        <ele>62.8</ele>
        <time>2021-03-30T15:00:13Z</time>
      </trkpt>
      <trkpt lat="46.19075" lon="-0.48973">
        <ele>63</ele>
        <time>2021-03-30T15:00:14Z</time>
      </trkpt>
      <trkpt lat="46.19069" lon="-0.48979">
        <ele>63.2</ele>
        <time>2021-03-30T15:00:15Z</time>
      </trkpt>
      <trkpt lat="46.19063" lon="-0.48986">
        <ele>63.6</ele>
        <time>2021-03-30T15:00:16Z</time>
      </trkpt>
      <trkpt lat="46.19058" lon="-0.48993">
        <ele>63.6</ele>
        <time>2021-03-30T15:00:17Z</time>
      </trkpt>
      <trkpt lat="46.19052" lon="-0.48999">
        <ele>63.8</ele>
        <time>2021-03-30T15:00:18Z</time>
      </trkpt>
      <trkpt lat="46.19047" lon="-0.49005">
        <ele>64</ele>
        <time>2021-03-30T15:00:19Z</time>
      </trkpt>
      <trkpt lat="46.19042" lon="-0.49011">
        <ele>64.2</ele>
        <time>2021-03-30T15:00:20Z</time>
      </trkpt>
      <trkpt lat="46.19037" lon="-0.49017">
        <ele>64.6</ele>
        <time>2021-03-30T15:00:21Z</time>
      </trkpt>
      <trkpt lat="46.19032" lon="-0.49025">
        <ele>65.2</ele>
        <time>2021-03-30T15:00:22Z</time>
      </trkpt>
      <trkpt lat="46.19033" lon="-0.49032">
        <ele>65.4</ele>
        <time>2021-03-30T15:00:23Z</time>
      </trkpt>
      <trkpt lat="46.19035" lon="-0.49039">
        <ele>65.6</ele>
        <time>2021-03-30T15:00:24Z</time>
      </trkpt>
      <trkpt lat="46.19039" lon="-0.49047">
        <ele>65.8</ele>
        <time>2021-03-30T15:00:25Z</time>
      </trkpt>
      <trkpt lat="46.19042" lon="-0.49055">
        <ele>66</ele>
        <time>2021-03-30T15:00:26Z</time>
      </trkpt>
      <trkpt lat="46.19046" lon="-0.49063">
        <ele>66</ele>
        <time>2021-03-30T15:00:27Z</time>
      </trkpt>
      <trkpt lat="46.19049" lon="-0.49072">
        <ele>66.2</ele>
        <time>2021-03-30T15:00:28Z</time>
      </trkpt>
      <trkpt lat="46.19051" lon="-0.49082">
        <ele>66.4</ele>
        <time>2021-03-30T15:00:29Z</time>
      </trkpt>
      <trkpt lat="46.19054" lon="-0.49092">
        <ele>66.6</ele>
        <time>2021-03-30T15:00:30Z</time>
      </trkpt>
      <trkpt lat="46.19056" lon="-0.49103">
        <ele>66.8</ele>
        <time>2021-03-30T15:00:31Z</time>
      </trkpt>
      <trkpt lat="46.19059" lon="-0.49114">
        <ele>67.2</ele>
        <time>2021-03-30T15:00:32Z</time>
      </trkpt>
      <trkpt lat="46.19062" lon="-0.49125">
        <ele>67.4</ele>
        <time>2021-03-30T15:00:33Z</time>
      </trkpt>
      <trkpt lat="46.19065" lon="-0.49136">
        <ele>67.6</ele>
        <time>2021-03-30T15:00:34Z</time>
      </trkpt>
      <trkpt lat="46.19068" lon="-0.49147">
        <ele>67.6</ele>
        <time>2021-03-30T15:00:35Z</time>
      </trkpt>
      <trkpt lat="46.19071" lon="-0.49158">
        <ele>67.8</ele>
        <time>2021-03-30T15:00:36Z</time>
      </trkpt>
      <trkpt lat="46.19074" lon="-0.49168">
        <ele>67.8</ele>
        <time>2021-03-30T15:00:37Z</time>
      </trkpt>
      <trkpt lat="46.19078" lon="-0.49179">
        <ele>68</ele>
        <time>2021-03-30T15:00:38Z</time>
      </trkpt>
      <trkpt lat="46.19082" lon="-0.49189">
        <ele>68</ele>
        <time>2021-03-30T15:00:39Z</time>
      </trkpt>
      <trkpt lat="46.19086" lon="-0.49199">
        <ele>68</ele>
        <time>2021-03-30T15:00:40Z</time>
      </trkpt>
      <trkpt lat="46.19089" lon="-0.49209">
        <ele>68</ele>
        <time>2021-03-30T15:00:41Z</time>
      </trkpt>
      <trkpt lat="46.19091" lon="-0.4922">
        <ele>68.2</ele>
        <time>2021-03-30T15:00:42Z</time>
      </trkpt>
      <trkpt lat="46.19093" lon="-0.49232">
        <ele>68.2</ele>
        <time>2021-03-30T15:00:43Z</time>
      </trkpt>
      <trkpt lat="46.19094" lon="-0.49241">
        <ele>68.4</ele>
        <time>2021-03-30T15:00:44Z</time>
      </trkpt>
      <trkpt lat="46.19096" lon="-0.49254">
        <ele>68.6</ele>
        <time>2021-03-30T15:00:45Z</time>
      </trkpt>
      <trkpt lat="46.191" lon="-0.49265">
        <ele>68.8</ele>
        <time>2021-03-30T15:00:46Z</time>
      </trkpt>
      <trkpt lat="46.19104" lon="-0.49276">
        <ele>69.2</ele>
        <time>2021-03-30T15:00:47Z</time>
      </trkpt>
      <trkpt lat="46.19109" lon="-0.49285">
        <ele>69.4</ele>
        <time>2021-03-30T15:00:48Z</time>
      </trkpt>
      <trkpt lat="46.19113" lon="-0.49296">
        <ele>69.6</ele>
        <time>2021-03-30T15:00:49Z</time>
      </trkpt>
      <trkpt lat="46.19117" lon="-0.49306">
        <ele>69.8</ele>
        <time>2021-03-30T15:00:50Z</time>
      </trkpt>
      <trkpt lat="46.19122" lon="-0.49314">
        <ele>70</ele>
        <time>2021-03-30T15:00:51Z</time>
      </trkpt>
      <trkpt lat="46.19129" lon="-0.4932">
        <ele>70</ele>
        <time>2021-03-30T15:00:52Z</time>
      </trkpt>
      <trkpt lat="46.19137" lon="-0.49324">
        <ele>70</ele>
        <time>2021-03-30T15:00:53Z</time>
      </trkpt>
      <trkpt lat="46.19146" lon="-0.49328">
        <ele>70.2</ele>
        <time>2021-03-30T15:00:54Z</time>
      </trkpt>
      <trkpt lat="46.19155" lon="-0.49331">
        <ele>70.2</ele>
        <time>2021-03-30T15:00:55Z</time>
      </trkpt>
      <trkpt lat="46.19164" lon="-0.49333">
        <ele>70.2</ele>
        <time>2021-03-30T15:00:56Z</time>
      </trkpt>
      <trkpt lat="46.19174" lon="-0.49335">
        <ele>70.4</ele>
        <time>2021-03-30T15:00:57Z</time>
      </trkpt>
      <trkpt lat="46.19183" lon="-0.49336">
        <ele>70.4</ele>
        <time>2021-03-30T15:00:58Z</time>
      </trkpt>
      <trkpt lat="46.19192" lon="-0.49337">
        <ele>70.4</ele>
        <time>2021-03-30T15:00:59Z</time>
      </trkpt>
      <trkpt lat="46.19201" lon="-0.49339">
        <ele>70.4</ele>
        <time>2021-03-30T15:01:00Z</time>
      </trkpt>
      <trkpt lat="46.19209" lon="-0.49339">
        <ele>70.4</ele>
        <time>2021-03-30T15:01:01Z</time>
      </trkpt>
      <trkpt lat="46.19217" lon="-0.49341">
        <ele>70.4</ele>
        <time>2021-03-30T15:01:02Z</time>
      </trkpt>
      <trkpt lat="46.19227" lon="-0.49344">
        <ele>70.4</ele>
        <time>2021-03-30T15:01:03Z</time>
      </trkpt>
      <trkpt lat="46.19233" lon="-0.49347">
        <ele>70.4</ele>
        <time>2021-03-30T15:01:04Z</time>
      </trkpt>
      <trkpt lat="46.19242" lon="-0.49348">
        <ele>70.4</ele>
        <time>2021-03-30T15:01:05Z</time>
      </trkpt>
      <trkpt lat="46.19252" lon="-0.49347">
        <ele>70.4</ele>
        <time>2021-03-30T15:01:06Z</time>
      </trkpt>
      <trkpt lat="46.1926" lon="-0.49345">
        <ele>70.4</ele>
        <time>2021-03-30T15:01:07Z</time>
      </trkpt>
      <trkpt lat="46.19268" lon="-0.49341">
        <ele>70.4</ele>
        <time>2021-03-30T15:01:08Z</time>
      </trkpt>
      <trkpt lat="46.19276" lon="-0.49337">
        <ele>70.4</ele>
        <time>2021-03-30T15:01:09Z</time>
      </trkpt>
      <trkpt lat="46.19284" lon="-0.49334">
        <ele>70.4</ele>
        <time>2021-03-30T15:01:10Z</time>
      </trkpt>
      <trkpt lat="46.19292" lon="-0.4933">
        <ele>70.2</ele>
        <time>2021-03-30T15:01:11Z</time>
      </trkpt>
      <trkpt lat="46.19298" lon="-0.49326">
        <ele>70.2</ele>
        <time>2021-03-30T15:01:12Z</time>
      </trkpt>
      <trkpt lat="46.19305" lon="-0.49322">
        <ele>70</ele>
        <time>2021-03-30T15:01:13Z</time>
      </trkpt>
      <trkpt lat="46.19312" lon="-0.49319">
        <ele>70</ele>
        <time>2021-03-30T15:01:14Z</time>
      </trkpt>
      <trkpt lat="46.1932" lon="-0.49316">
        <ele>70</ele>
        <time>2021-03-30T15:01:15Z</time>
      </trkpt>
      <trkpt lat="46.19328" lon="-0.49314">
        <ele>69.8</ele>
        <time>2021-03-30T15:01:16Z</time>
      </trkpt>
      <trkpt lat="46.19345" lon="-0.49315">
        <ele>69.6</ele>
        <time>2021-03-30T15:01:18Z</time>
      </trkpt>
      <trkpt lat="46.19363" lon="-0.49321">
        <ele>69.4</ele>
        <time>2021-03-30T15:01:20Z</time>
      </trkpt>
      <trkpt lat="46.19378" lon="-0.49332">
        <ele>69.2</ele>
        <time>2021-03-30T15:01:22Z</time>
      </trkpt>
      <trkpt lat="46.19386" lon="-0.49337">
        <ele>68.8</ele>
        <time>2021-03-30T15:01:23Z</time>
      </trkpt>
      <trkpt lat="46.19402" lon="-0.49348">
        <ele>68.4</ele>
        <time>2021-03-30T15:01:25Z</time>
      </trkpt>
      <trkpt lat="46.19417" lon="-0.49361">
        <ele>67.6</ele>
        <time>2021-03-30T15:01:27Z</time>
      </trkpt>
      <trkpt lat="46.19423" lon="-0.49368">
        <ele>67.2</ele>
        <time>2021-03-30T15:01:28Z</time>
      </trkpt>
      <trkpt lat="46.1943" lon="-0.49376">
        <ele>67</ele>
        <time>2021-03-30T15:01:29Z</time>
      </trkpt>
      <trkpt lat="46.19446" lon="-0.49387">
        <ele>66.8</ele>
        <time>2021-03-30T15:01:31Z</time>
      </trkpt>
      <trkpt lat="46.19468" lon="-0.49405">
        <ele>66.8</ele>
        <time>2021-03-30T15:01:34Z</time>
      </trkpt>
      <trkpt lat="46.19474" lon="-0.49413">
        <ele>66.8</ele>
        <time>2021-03-30T15:01:35Z</time>
      </trkpt>
      <trkpt lat="46.1948" lon="-0.49423">
        <ele>66.8</ele>
        <time>2021-03-30T15:01:36Z</time>
      </trkpt>
      <trkpt lat="46.19498" lon="-0.49452">
        <ele>66.6</ele>
        <time>2021-03-30T15:01:39Z</time>
      </trkpt>
      <trkpt lat="46.19504" lon="-0.4946">
        <ele>66.6</ele>
        <time>2021-03-30T15:01:40Z</time>
      </trkpt>
      <trkpt lat="46.19518" lon="-0.49475">
        <ele>66.8</ele>
        <time>2021-03-30T15:01:42Z</time>
      </trkpt>
      <trkpt lat="46.19525" lon="-0.49482">
        <ele>66.8</ele>
        <time>2021-03-30T15:01:43Z</time>
      </trkpt>
      <trkpt lat="46.19531" lon="-0.49489">
        <ele>67</ele>
        <time>2021-03-30T15:01:44Z</time>
      </trkpt>
      <trkpt lat="46.19546" lon="-0.49506">
        <ele>67</ele>
        <time>2021-03-30T15:01:46Z</time>
      </trkpt>
      <trkpt lat="46.19557" lon="-0.49524">
        <ele>67</ele>
        <time>2021-03-30T15:01:48Z</time>
      </trkpt>
      <trkpt lat="46.19561" lon="-0.49533">
        <ele>67.2</ele>
        <time>2021-03-30T15:01:49Z</time>
      </trkpt>
      <trkpt lat="46.19565" lon="-0.49545">
        <ele>67.2</ele>
        <time>2021-03-30T15:01:50Z</time>
      </trkpt>
      <trkpt lat="46.19595" lon="-0.49621">
        <ele>68</ele>
        <time>2021-03-30T15:01:57Z</time>
      </trkpt>
      <trkpt lat="46.19601" lon="-0.49631">
        <ele>68</ele>
        <time>2021-03-30T15:01:58Z</time>
      </trkpt>
      <trkpt lat="46.19619" lon="-0.49658">
        <ele>68.2</ele>
        <time>2021-03-30T15:02:01Z</time>
      </trkpt>
      <trkpt lat="46.19632" lon="-0.49675">
        <ele>68.6</ele>
        <time>2021-03-30T15:02:03Z</time>
      </trkpt>
      <trkpt lat="46.19643" lon="-0.49691">
        <ele>68.8</ele>
        <time>2021-03-30T15:02:05Z</time>
      </trkpt>
      <trkpt lat="46.19649" lon="-0.49698">
        <ele>68.8</ele>
        <time>2021-03-30T15:02:06Z</time>
      </trkpt>
      <trkpt lat="46.19654" lon="-0.49705">
        <ele>69</ele>
        <time>2021-03-30T15:02:07Z</time>
      </trkpt>
      <trkpt lat="46.19658" lon="-0.49712">
        <ele>69.2</ele>
        <time>2021-03-30T15:02:08Z</time>
      </trkpt>
      <trkpt lat="46.19663" lon="-0.49719">
        <ele>69.2</ele>
        <time>2021-03-30T15:02:09Z</time>
      </trkpt>
      <trkpt lat="46.19668" lon="-0.49724">
        <ele>69.4</ele>
        <time>2021-03-30T15:02:10Z</time>
      </trkpt>
      <trkpt lat="46.19673" lon="-0.49729">
        <ele>69.4</ele>
        <time>2021-03-30T15:02:11Z</time>
      </trkpt>
      <trkpt lat="46.19676" lon="-0.49733">
        <ele>69.4</ele>
        <time>2021-03-30T15:02:12Z</time>
      </trkpt>
      <trkpt lat="46.19679" lon="-0.49735">
        <ele>69.6</ele>
        <time>2021-03-30T15:02:13Z</time>
      </trkpt>
      <trkpt lat="46.19681" lon="-0.49738">
        <ele>69.8</ele>
        <time>2021-03-30T15:02:14Z</time>
      </trkpt>
      <trkpt lat="46.19684" lon="-0.4974">
        <ele>70</ele>
        <time>2021-03-30T15:02:15Z</time>
      </trkpt>
      <trkpt lat="46.19687" lon="-0.49743">
        <ele>70.2</ele>
        <time>2021-03-30T15:02:16Z</time>
      </trkpt>
      <trkpt lat="46.1969" lon="-0.49749">
        <ele>70.2</ele>
        <time>2021-03-30T15:02:17Z</time>
      </trkpt>
      <trkpt lat="46.19693" lon="-0.49757">
        <ele>70.2</ele>
        <time>2021-03-30T15:02:18Z</time>
      </trkpt>
      <trkpt lat="46.19695" lon="-0.49767">
        <ele>70.2</ele>
        <time>2021-03-30T15:02:19Z</time>
      </trkpt>
      <trkpt lat="46.19698" lon="-0.49777">
        <ele>70.2</ele>
        <time>2021-03-30T15:02:20Z</time>
      </trkpt>
      <trkpt lat="46.197" lon="-0.49789">
        <ele>70.2</ele>
        <time>2021-03-30T15:02:21Z</time>
      </trkpt>
      <trkpt lat="46.19702" lon="-0.49801">
        <ele>70.2</ele>
        <time>2021-03-30T15:02:22Z</time>
      </trkpt>
      <trkpt lat="46.19714" lon="-0.49851">
        <ele>69.8</ele>
        <time>2021-03-30T15:02:26Z</time>
      </trkpt>
      <trkpt lat="46.1972" lon="-0.49875">
        <ele>69.4</ele>
        <time>2021-03-30T15:02:28Z</time>
      </trkpt>
      <trkpt lat="46.19723" lon="-0.49887">
        <ele>68.6</ele>
        <time>2021-03-30T15:02:29Z</time>
      </trkpt>
      <trkpt lat="46.19726" lon="-0.49899">
        <ele>68</ele>
        <time>2021-03-30T15:02:30Z</time>
      </trkpt>
      <trkpt lat="46.1973" lon="-0.4991">
        <ele>67.6</ele>
        <time>2021-03-30T15:02:31Z</time>
      </trkpt>
      <trkpt lat="46.19739" lon="-0.49933">
        <ele>67.2</ele>
        <time>2021-03-30T15:02:33Z</time>
      </trkpt>
      <trkpt lat="46.19744" lon="-0.49943">
        <ele>67</ele>
        <time>2021-03-30T15:02:34Z</time>
      </trkpt>
      <trkpt lat="46.19755" lon="-0.49964">
        <ele>66.8</ele>
        <time>2021-03-30T15:02:36Z</time>
      </trkpt>
      <trkpt lat="46.19772" lon="-0.49995">
        <ele>66</ele>
        <time>2021-03-30T15:02:39Z</time>
      </trkpt>
      <trkpt lat="46.19793" lon="-0.50036">
        <ele>65.4</ele>
        <time>2021-03-30T15:02:43Z</time>
      </trkpt>
      <trkpt lat="46.19808" lon="-0.50064">
        <ele>64.8</ele>
        <time>2021-03-30T15:02:46Z</time>
      </trkpt>
      <trkpt lat="46.19812" lon="-0.50074">
        <ele>64.8</ele>
        <time>2021-03-30T15:02:47Z</time>
      </trkpt>
      <trkpt lat="46.19822" lon="-0.50091">
        <ele>64.6</ele>
        <time>2021-03-30T15:02:49Z</time>
      </trkpt>
      <trkpt lat="46.19826" lon="-0.501">
        <ele>64.6</ele>
        <time>2021-03-30T15:02:50Z</time>
      </trkpt>
      <trkpt lat="46.19828" lon="-0.50109">
        <ele>64.6</ele>
        <time>2021-03-30T15:02:51Z</time>
      </trkpt>
      <trkpt lat="46.19829" lon="-0.50119">
        <ele>64.6</ele>
        <time>2021-03-30T15:02:52Z</time>
      </trkpt>
      <trkpt lat="46.19827" lon="-0.50129">
        <ele>64.6</ele>
        <time>2021-03-30T15:02:53Z</time>
      </trkpt>
      <trkpt lat="46.19821" lon="-0.50151">
        <ele>64.4</ele>
        <time>2021-03-30T15:02:55Z</time>
      </trkpt>
      <trkpt lat="46.19817" lon="-0.50163">
        <ele>64.2</ele>
        <time>2021-03-30T15:02:56Z</time>
      </trkpt>
      <trkpt lat="46.19814" lon="-0.50175">
        <ele>64.2</ele>
        <time>2021-03-30T15:02:57Z</time>
      </trkpt>
      <trkpt lat="46.19803" lon="-0.50212">
        <ele>63.8</ele>
        <time>2021-03-30T15:03:00Z</time>
      </trkpt>
      <trkpt lat="46.198" lon="-0.50225">
        <ele>63.6</ele>
        <time>2021-03-30T15:03:01Z</time>
      </trkpt>
      <trkpt lat="46.19796" lon="-0.50237">
        <ele>63.2</ele>
        <time>2021-03-30T15:03:02Z</time>
      </trkpt>
      <trkpt lat="46.19793" lon="-0.50249">
        <ele>62.6</ele>
        <time>2021-03-30T15:03:03Z</time>
      </trkpt>
      <trkpt lat="46.19786" lon="-0.50274">
        <ele>61.6</ele>
        <time>2021-03-30T15:03:05Z</time>
      </trkpt>
      <trkpt lat="46.19782" lon="-0.50287">
        <ele>61.4</ele>
        <time>2021-03-30T15:03:06Z</time>
      </trkpt>
      <trkpt lat="46.19778" lon="-0.50299">
        <ele>61.4</ele>
        <time>2021-03-30T15:03:07Z</time>
      </trkpt>
      <trkpt lat="46.19757" lon="-0.50371">
        <ele>60.8</ele>
        <time>2021-03-30T15:03:13Z</time>
      </trkpt>
      <trkpt lat="46.19745" lon="-0.50407">
        <ele>60.4</ele>
        <time>2021-03-30T15:03:16Z</time>
      </trkpt>
      <trkpt lat="46.19727" lon="-0.50455">
        <ele>59.6</ele>
        <time>2021-03-30T15:03:20Z</time>
      </trkpt>
      <trkpt lat="46.19718" lon="-0.50479">
        <ele>59.4</ele>
        <time>2021-03-30T15:03:22Z</time>
      </trkpt>
      <trkpt lat="46.19708" lon="-0.50501">
        <ele>58.2</ele>
        <time>2021-03-30T15:03:24Z</time>
      </trkpt>
      <trkpt lat="46.19693" lon="-0.50535">
        <ele>56.8</ele>
        <time>2021-03-30T15:03:27Z</time>
      </trkpt>
      <trkpt lat="46.19689" lon="-0.50547">
        <ele>56.4</ele>
        <time>2021-03-30T15:03:28Z</time>
      </trkpt>
      <trkpt lat="46.19674" lon="-0.5058">
        <ele>55.6</ele>
        <time>2021-03-30T15:03:31Z</time>
      </trkpt>
      <trkpt lat="46.1966" lon="-0.50611">
        <ele>55</ele>
        <time>2021-03-30T15:03:34Z</time>
      </trkpt>
      <trkpt lat="46.19655" lon="-0.50622">
        <ele>55</ele>
        <time>2021-03-30T15:03:35Z</time>
      </trkpt>
      <trkpt lat="46.19651" lon="-0.50632">
        <ele>54.8</ele>
        <time>2021-03-30T15:03:36Z</time>
      </trkpt>
      <trkpt lat="46.19647" lon="-0.50643">
        <ele>54.8</ele>
        <time>2021-03-30T15:03:37Z</time>
      </trkpt>
      <trkpt lat="46.19634" lon="-0.50678">
        <ele>54.6</ele>
        <time>2021-03-30T15:03:40Z</time>
      </trkpt>
      <trkpt lat="46.19615" lon="-0.50738">
        <ele>54.4</ele>
        <time>2021-03-30T15:03:45Z</time>
      </trkpt>
      <trkpt lat="46.19598" lon="-0.50814">
        <ele>54</ele>
        <time>2021-03-30T15:03:51Z</time>
      </trkpt>
      <trkpt lat="46.19595" lon="-0.50827">
        <ele>54</ele>
        <time>2021-03-30T15:03:52Z</time>
      </trkpt>
      <trkpt lat="46.19575" lon="-0.50902">
        <ele>53.2</ele>
        <time>2021-03-30T15:03:58Z</time>
      </trkpt>
      <trkpt lat="46.19571" lon="-0.50915">
        <ele>53.2</ele>
        <time>2021-03-30T15:03:59Z</time>
      </trkpt>
      <trkpt lat="46.1955" lon="-0.50988">
        <ele>52.2</ele>
        <time>2021-03-30T15:04:05Z</time>
      </trkpt>
      <trkpt lat="46.19543" lon="-0.51014">
        <ele>52</ele>
        <time>2021-03-30T15:04:07Z</time>
      </trkpt>
      <trkpt lat="46.19532" lon="-0.51061">
        <ele>51.6</ele>
        <time>2021-03-30T15:04:11Z</time>
      </trkpt>
      <trkpt lat="46.1953" lon="-0.51071">
        <ele>51.4</ele>
        <time>2021-03-30T15:04:12Z</time>
      </trkpt>
      <trkpt lat="46.19528" lon="-0.51081">
        <ele>51.4</ele>
        <time>2021-03-30T15:04:13Z</time>
      </trkpt>
      <trkpt lat="46.19526" lon="-0.51089">
        <ele>51.4</ele>
        <time>2021-03-30T15:04:14Z</time>
      </trkpt>
      <trkpt lat="46.19524" lon="-0.51096">
        <ele>51.4</ele>
        <time>2021-03-30T15:04:15Z</time>
      </trkpt>
      <trkpt lat="46.1952" lon="-0.511">
        <ele>51.4</ele>
        <time>2021-03-30T15:04:16Z</time>
      </trkpt>
      <trkpt lat="46.19517" lon="-0.511">
        <ele>51.4</ele>
        <time>2021-03-30T15:04:17Z</time>
      </trkpt>
      <trkpt lat="46.19514" lon="-0.51097">
        <ele>51.4</ele>
        <time>2021-03-30T15:04:18Z</time>
      </trkpt>
      <trkpt lat="46.19511" lon="-0.51093">
        <ele>51.4</ele>
        <time>2021-03-30T15:04:19Z</time>
      </trkpt>
      <trkpt lat="46.19508" lon="-0.51086">
        <ele>51.4</ele>
        <time>2021-03-30T15:04:20Z</time>
      </trkpt>
      <trkpt lat="46.19502" lon="-0.51069">
        <ele>51.4</ele>
        <time>2021-03-30T15:04:22Z</time>
      </trkpt>
      <trkpt lat="46.19486" lon="-0.51017">
        <ele>51.2</ele>
        <time>2021-03-30T15:04:27Z</time>
      </trkpt>
      <trkpt lat="46.19482" lon="-0.51006">
        <ele>51.2</ele>
        <time>2021-03-30T15:04:28Z</time>
      </trkpt>
      <trkpt lat="46.19479" lon="-0.50995">
        <ele>51.2</ele>
        <time>2021-03-30T15:04:29Z</time>
      </trkpt>
      <trkpt lat="46.1947" lon="-0.50974">
        <ele>51.2</ele>
        <time>2021-03-30T15:04:31Z</time>
      </trkpt>
      <trkpt lat="46.19461" lon="-0.50954">
        <ele>51.2</ele>
        <time>2021-03-30T15:04:33Z</time>
      </trkpt>
      <trkpt lat="46.19436" lon="-0.50897">
        <ele>51.2</ele>
        <time>2021-03-30T15:04:39Z</time>
      </trkpt>
      <trkpt lat="46.19432" lon="-0.50888">
        <ele>51.6</ele>
        <time>2021-03-30T15:04:40Z</time>
      </trkpt>
      <trkpt lat="46.19429" lon="-0.50879">
        <ele>51.6</ele>
        <time>2021-03-30T15:04:41Z</time>
      </trkpt>
      <trkpt lat="46.19425" lon="-0.50871">
        <ele>51.4</ele>
        <time>2021-03-30T15:04:42Z</time>
      </trkpt>
      <trkpt lat="46.19423" lon="-0.50863">
        <ele>51.8</ele>
        <time>2021-03-30T15:04:43Z</time>
      </trkpt>
      <trkpt lat="46.1942" lon="-0.50856">
        <ele>51.8</ele>
        <time>2021-03-30T15:04:44Z</time>
      </trkpt>
      <trkpt lat="46.19417" lon="-0.50849">
        <ele>52</ele>
        <time>2021-03-30T15:04:45Z</time>
      </trkpt>
      <trkpt lat="46.19414" lon="-0.50843">
        <ele>52.2</ele>
        <time>2021-03-30T15:04:46Z</time>
      </trkpt>
      <trkpt lat="46.1941" lon="-0.5084">
        <ele>52.4</ele>
        <time>2021-03-30T15:04:47Z</time>
      </trkpt>
      <trkpt lat="46.19406" lon="-0.50842">
        <ele>52.8</ele>
        <time>2021-03-30T15:04:48Z</time>
      </trkpt>
      <trkpt lat="46.19404" lon="-0.50847">
        <ele>53.2</ele>
        <time>2021-03-30T15:04:49Z</time>
      </trkpt>
      <trkpt lat="46.194" lon="-0.50853">
        <ele>53.8</ele>
        <time>2021-03-30T15:04:50Z</time>
      </trkpt>
      <trkpt lat="46.19397" lon="-0.50861">
        <ele>54</ele>
        <time>2021-03-30T15:04:51Z</time>
      </trkpt>
      <trkpt lat="46.19394" lon="-0.50871">
        <ele>54</ele>
        <time>2021-03-30T15:04:52Z</time>
      </trkpt>
      <trkpt lat="46.19391" lon="-0.50881">
        <ele>54</ele>
        <time>2021-03-30T15:04:53Z</time>
      </trkpt>
      <trkpt lat="46.19377" lon="-0.50939">
        <ele>54.2</ele>
        <time>2021-03-30T15:04:58Z</time>
      </trkpt>
      <trkpt lat="46.19375" lon="-0.50951">
        <ele>54.2</ele>
        <time>2021-03-30T15:04:59Z</time>
      </trkpt>
      <trkpt lat="46.19373" lon="-0.50962">
        <ele>53.6</ele>
        <time>2021-03-30T15:05:00Z</time>
      </trkpt>
      <trkpt lat="46.19371" lon="-0.50974">
        <ele>53.2</ele>
        <time>2021-03-30T15:05:01Z</time>
      </trkpt>
      <trkpt lat="46.19369" lon="-0.50986">
        <ele>53</ele>
        <time>2021-03-30T15:05:02Z</time>
      </trkpt>
      <trkpt lat="46.19368" lon="-0.50998">
        <ele>52.8</ele>
        <time>2021-03-30T15:05:03Z</time>
      </trkpt>
      <trkpt lat="46.19363" lon="-0.51022">
        <ele>52.6</ele>
        <time>2021-03-30T15:05:05Z</time>
      </trkpt>
      <trkpt lat="46.19352" lon="-0.51077">
        <ele>52.4</ele>
        <time>2021-03-30T15:05:10Z</time>
      </trkpt>
      <trkpt lat="46.19346" lon="-0.51099">
        <ele>52.4</ele>
        <time>2021-03-30T15:05:12Z</time>
      </trkpt>
      <trkpt lat="46.19344" lon="-0.51108">
        <ele>52.4</ele>
        <time>2021-03-30T15:05:13Z</time>
      </trkpt>
      <trkpt lat="46.19342" lon="-0.51118">
        <ele>52.4</ele>
        <time>2021-03-30T15:05:14Z</time>
      </trkpt>
      <trkpt lat="46.19338" lon="-0.51127">
        <ele>52.6</ele>
        <time>2021-03-30T15:05:15Z</time>
      </trkpt>
      <trkpt lat="46.19336" lon="-0.51137">
        <ele>52.6</ele>
        <time>2021-03-30T15:05:16Z</time>
      </trkpt>
      <trkpt lat="46.1933" lon="-0.51156">
        <ele>52.8</ele>
        <time>2021-03-30T15:05:18Z</time>
      </trkpt>
      <trkpt lat="46.19312" lon="-0.51222">
        <ele>53</ele>
        <time>2021-03-30T15:05:24Z</time>
      </trkpt>
      <trkpt lat="46.19309" lon="-0.51233">
        <ele>53</ele>
        <time>2021-03-30T15:05:25Z</time>
      </trkpt>
      <trkpt lat="46.19295" lon="-0.51277">
        <ele>52.8</ele>
        <time>2021-03-30T15:05:29Z</time>
      </trkpt>
      <trkpt lat="46.19287" lon="-0.51299">
        <ele>52.8</ele>
        <time>2021-03-30T15:05:31Z</time>
      </trkpt>
      <trkpt lat="46.19282" lon="-0.51308">
        <ele>52.8</ele>
        <time>2021-03-30T15:05:32Z</time>
      </trkpt>
      <trkpt lat="46.19273" lon="-0.51325">
        <ele>52.6</ele>
        <time>2021-03-30T15:05:34Z</time>
      </trkpt>
      <trkpt lat="46.19269" lon="-0.51332">
        <ele>52.6</ele>
        <time>2021-03-30T15:05:35Z</time>
      </trkpt>
      <trkpt lat="46.19266" lon="-0.51338">
        <ele>52.6</ele>
        <time>2021-03-30T15:05:36Z</time>
      </trkpt>
      <trkpt lat="46.19262" lon="-0.51344">
        <ele>52.6</ele>
        <time>2021-03-30T15:05:37Z</time>
      </trkpt>
      <trkpt lat="46.19259" lon="-0.51349">
        <ele>52.6</ele>
        <time>2021-03-30T15:05:38Z</time>
      </trkpt>
      <trkpt lat="46.19256" lon="-0.51354">
        <ele>52.6</ele>
        <time>2021-03-30T15:05:39Z</time>
      </trkpt>
      <trkpt lat="46.19253" lon="-0.51358">
        <ele>52.6</ele>
        <time>2021-03-30T15:05:40Z</time>
      </trkpt>
      <trkpt lat="46.19251" lon="-0.51362">
        <ele>52.6</ele>
        <time>2021-03-30T15:05:41Z</time>
      </trkpt>
      <trkpt lat="46.19249" lon="-0.51365">
        <ele>52.6</ele>
        <time>2021-03-30T15:05:42Z</time>
      </trkpt>
      <trkpt lat="46.19247" lon="-0.51368">
        <ele>52.6</ele>
        <time>2021-03-30T15:05:43Z</time>
      </trkpt>
      <trkpt lat="46.19247" lon="-0.51369">
        <ele>53</ele>
        <time>2021-03-30T15:05:44Z</time>
      </trkpt>
      <trkpt lat="46.19247" lon="-0.51369">
        <ele>53.4</ele>
        <time>2021-03-30T15:05:45Z</time>
      </trkpt>
      <trkpt lat="46.19247" lon="-0.51369">
        <ele>53.6</ele>
        <time>2021-03-30T15:05:46Z</time>
      </trkpt>
      <trkpt lat="46.19248" lon="-0.51373">
        <ele>56.4</ele>
        <time>2021-03-30T15:08:06Z</time>
      </trkpt>
      <trkpt lat="46.19254" lon="-0.51381">
        <ele>56.6</ele>
        <time>2021-03-30T15:08:08Z</time>
      </trkpt>
      <trkpt lat="46.19262" lon="-0.51392">
        <ele>56.6</ele>
        <time>2021-03-30T15:08:10Z</time>
      </trkpt>
      <trkpt lat="46.19265" lon="-0.51396">
        <ele>56.6</ele>
        <time>2021-03-30T15:08:11Z</time>
      </trkpt>
      <trkpt lat="46.1927" lon="-0.51402">
        <ele>56.6</ele>
        <time>2021-03-30T15:08:12Z</time>
      </trkpt>
      <trkpt lat="46.19298" lon="-0.51441">
        <ele>56.4</ele>
        <time>2021-03-30T15:08:18Z</time>
      </trkpt>
      <trkpt lat="46.19316" lon="-0.51461">
        <ele>56.4</ele>
        <time>2021-03-30T15:08:22Z</time>
      </trkpt>
      <trkpt lat="46.19319" lon="-0.51464">
        <ele>56.4</ele>
        <time>2021-03-30T15:08:23Z</time>
      </trkpt>
      <trkpt lat="46.1932" lon="-0.51467">
        <ele>56.4</ele>
        <time>2021-03-30T15:08:24Z</time>
      </trkpt>
      <trkpt lat="46.19321" lon="-0.51468">
        <ele>56.4</ele>
        <time>2021-03-30T15:08:25Z</time>
      </trkpt>
      <trkpt lat="46.19321" lon="-0.51469">
        <ele>56.4</ele>
        <time>2021-03-30T15:08:26Z</time>
      </trkpt>
      <trkpt lat="46.19321" lon="-0.51469">
        <ele>56.4</ele>
        <time>2021-03-30T15:08:27Z</time>
      </trkpt>
      <trkpt lat="46.19321" lon="-0.51469">
        <ele>56.4</ele>
        <time>2021-03-30T15:08:28Z</time>
      </trkpt>
      <trkpt lat="46.19318" lon="-0.51476">
        <ele>58.4</ele>
        <time>2021-03-30T15:08:39Z</time>
      </trkpt>
      <trkpt lat="46.19315" lon="-0.51479">
        <ele>58.4</ele>
        <time>2021-03-30T15:08:40Z</time>
      </trkpt>
      <trkpt lat="46.193" lon="-0.51492">
        <ele>58.4</ele>
        <time>2021-03-30T15:08:45Z</time>
      </trkpt>
      <trkpt lat="46.19297" lon="-0.51494">
        <ele>58.4</ele>
        <time>2021-03-30T15:08:46Z</time>
      </trkpt>
      <trkpt lat="46.19295" lon="-0.51494">
        <ele>58.4</ele>
        <time>2021-03-30T15:08:47Z</time>
      </trkpt>
      <trkpt lat="46.19293" lon="-0.51493">
        <ele>58.4</ele>
        <time>2021-03-30T15:08:48Z</time>
      </trkpt>
      <trkpt lat="46.19291" lon="-0.5149">
        <ele>58.4</ele>
        <time>2021-03-30T15:08:49Z</time>
      </trkpt>
      <trkpt lat="46.19289" lon="-0.51487">
        <ele>58.4</ele>
        <time>2021-03-30T15:08:50Z</time>
      </trkpt>
      <trkpt lat="46.19282" lon="-0.51473">
        <ele>58.2</ele>
        <time>2021-03-30T15:08:53Z</time>
      </trkpt>
      <trkpt lat="46.19274" lon="-0.51467">
        <ele>58.2</ele>
        <time>2021-03-30T15:08:56Z</time>
      </trkpt>
      <trkpt lat="46.19272" lon="-0.51466">
        <ele>58</ele>
        <time>2021-03-30T15:08:57Z</time>
      </trkpt>
      <trkpt lat="46.1927" lon="-0.51467">
        <ele>58</ele>
        <time>2021-03-30T15:08:58Z</time>
      </trkpt>
      <trkpt lat="46.19268" lon="-0.51468">
        <ele>58</ele>
        <time>2021-03-30T15:08:59Z</time>
      </trkpt>
      <trkpt lat="46.19267" lon="-0.51469">
        <ele>58</ele>
        <time>2021-03-30T15:09:00Z</time>
      </trkpt>
      <trkpt lat="46.19266" lon="-0.51469">
        <ele>58</ele>
        <time>2021-03-30T15:09:01Z</time>
      </trkpt>
      <trkpt lat="46.19265" lon="-0.5147">
        <ele>58</ele>
        <time>2021-03-30T15:09:02Z</time>
      </trkpt>
      <trkpt lat="46.19263" lon="-0.51471">
        <ele>58</ele>
        <time>2021-03-30T15:09:03Z</time>
      </trkpt>
      <trkpt lat="46.19261" lon="-0.51472">
        <ele>58</ele>
        <time>2021-03-30T15:09:04Z</time>
      </trkpt>
      <trkpt lat="46.19259" lon="-0.51473">
        <ele>58</ele>
        <time>2021-03-30T15:09:05Z</time>
      </trkpt>
      <trkpt lat="46.19256" lon="-0.51473">
        <ele>58</ele>
        <time>2021-03-30T15:09:06Z</time>
      </trkpt>
      <trkpt lat="46.19254" lon="-0.51473">
        <ele>58</ele>
        <time>2021-03-30T15:09:07Z</time>
      </trkpt>
      <trkpt lat="46.19252" lon="-0.51474">
        <ele>58</ele>
        <time>2021-03-30T15:09:08Z</time>
      </trkpt>
      <trkpt lat="46.1925" lon="-0.51476">
        <ele>58</ele>
        <time>2021-03-30T15:09:10Z</time>
      </trkpt>
      <trkpt lat="46.19248" lon="-0.51478">
        <ele>58</ele>
        <time>2021-03-30T15:09:11Z</time>
      </trkpt>
      <trkpt lat="46.19245" lon="-0.51481">
        <ele>57.8</ele>
        <time>2021-03-30T15:09:12Z</time>
      </trkpt>
      <trkpt lat="46.19242" lon="-0.51481">
        <ele>57.8</ele>
        <time>2021-03-30T15:09:13Z</time>
      </trkpt>
      <trkpt lat="46.19239" lon="-0.51482">
        <ele>57.8</ele>
        <time>2021-03-30T15:09:14Z</time>
      </trkpt>
      <trkpt lat="46.19237" lon="-0.51483">
        <ele>57.8</ele>
        <time>2021-03-30T15:09:15Z</time>
      </trkpt>
      <trkpt lat="46.19236" lon="-0.51486">
        <ele>57.8</ele>
        <time>2021-03-30T15:09:16Z</time>
      </trkpt>
      <trkpt lat="46.19235" lon="-0.51489">
        <ele>57.8</ele>
        <time>2021-03-30T15:09:17Z</time>
      </trkpt>
      <trkpt lat="46.19234" lon="-0.51491">
        <ele>57.8</ele>
        <time>2021-03-30T15:09:18Z</time>
      </trkpt>
      <trkpt lat="46.19232" lon="-0.51493">
        <ele>57.8</ele>
        <time>2021-03-30T15:09:19Z</time>
      </trkpt>
      <trkpt lat="46.19231" lon="-0.51495">
        <ele>57.8</ele>
        <time>2021-03-30T15:09:20Z</time>
      </trkpt>
      <trkpt lat="46.1923" lon="-0.51497">
        <ele>57.8</ele>
        <time>2021-03-30T15:09:21Z</time>
      </trkpt>
      <trkpt lat="46.1923" lon="-0.51498">
        <ele>57.8</ele>
        <time>2021-03-30T15:09:22Z</time>
      </trkpt>
      <trkpt lat="46.19229" lon="-0.515">
        <ele>57.8</ele>
        <time>2021-03-30T15:09:23Z</time>
      </trkpt>
      <trkpt lat="46.19229" lon="-0.51501">
        <ele>57.8</ele>
        <time>2021-03-30T15:09:24Z</time>
      </trkpt>
      <trkpt lat="46.19229" lon="-0.51504">
        <ele>57.8</ele>
        <time>2021-03-30T15:09:25Z</time>
      </trkpt>
      <trkpt lat="46.19229" lon="-0.51507">
        <ele>57.8</ele>
        <time>2021-03-30T15:09:26Z</time>
      </trkpt>
      <trkpt lat="46.19229" lon="-0.51509">
        <ele>57.8</ele>
        <time>2021-03-30T15:09:27Z</time>
      </trkpt>
      <trkpt lat="46.1923" lon="-0.51511">
        <ele>57.8</ele>
        <time>2021-03-30T15:09:28Z</time>
      </trkpt>
      <trkpt lat="46.19232" lon="-0.51513">
        <ele>57.8</ele>
        <time>2021-03-30T15:09:29Z</time>
      </trkpt>
      <trkpt lat="46.19233" lon="-0.51515">
        <ele>57.8</ele>
        <time>2021-03-30T15:09:30Z</time>
      </trkpt>
      <trkpt lat="46.19234" lon="-0.51517">
        <ele>57.8</ele>
        <time>2021-03-30T15:09:31Z</time>
      </trkpt>
      <trkpt lat="46.19234" lon="-0.51519">
        <ele>57.8</ele>
        <time>2021-03-30T15:09:32Z</time>
      </trkpt>
      <trkpt lat="46.19235" lon="-0.5152">
        <ele>58</ele>
        <time>2021-03-30T15:09:33Z</time>
      </trkpt>
      <trkpt lat="46.19236" lon="-0.51521">
        <ele>58</ele>
        <time>2021-03-30T15:09:34Z</time>
      </trkpt>
      <trkpt lat="46.19239" lon="-0.51524">
        <ele>58.2</ele>
        <time>2021-03-30T15:09:36Z</time>
      </trkpt>
      <trkpt lat="46.1924" lon="-0.51526">
        <ele>58.2</ele>
        <time>2021-03-30T15:09:37Z</time>
      </trkpt>
      <trkpt lat="46.19241" lon="-0.51527">
        <ele>58.2</ele>
        <time>2021-03-30T15:09:38Z</time>
      </trkpt>
      <trkpt lat="46.19242" lon="-0.51529">
        <ele>58.4</ele>
        <time>2021-03-30T15:09:40Z</time>
      </trkpt>
      <trkpt lat="46.19243" lon="-0.51531">
        <ele>58.4</ele>
        <time>2021-03-30T15:09:41Z</time>
      </trkpt>
      <trkpt lat="46.19245" lon="-0.51533">
        <ele>58.4</ele>
        <time>2021-03-30T15:09:42Z</time>
      </trkpt>
      <trkpt lat="46.19246" lon="-0.51534">
        <ele>58.6</ele>
        <time>2021-03-30T15:09:43Z</time>
      </trkpt>
      <trkpt lat="46.19253" lon="-0.51544">
        <ele>58.8</ele>
        <time>2021-03-30T15:09:47Z</time>
      </trkpt>
      <trkpt lat="46.19255" lon="-0.51547">
        <ele>58.8</ele>
        <time>2021-03-30T15:09:48Z</time>
      </trkpt>
      <trkpt lat="46.19264" lon="-0.51562">
        <ele>58.8</ele>
        <time>2021-03-30T15:09:52Z</time>
      </trkpt>
      <trkpt lat="46.19267" lon="-0.51568">
        <ele>59</ele>
        <time>2021-03-30T15:09:54Z</time>
      </trkpt>
      <trkpt lat="46.19269" lon="-0.51571">
        <ele>59</ele>
        <time>2021-03-30T15:09:56Z</time>
      </trkpt>
      <trkpt lat="46.19269" lon="-0.51571">
        <ele>59</ele>
        <time>2021-03-30T15:09:57Z</time>
      </trkpt>
      <trkpt lat="46.19269" lon="-0.51571">
        <ele>59</ele>
        <time>2021-03-30T15:09:58Z</time>
      </trkpt>
      <trkpt lat="46.19264" lon="-0.51576">
        <ele>59.4</ele>
        <time>2021-03-30T15:10:21Z</time>
      </trkpt>
      <trkpt lat="46.1926" lon="-0.51579">
        <ele>59.4</ele>
        <time>2021-03-30T15:10:24Z</time>
      </trkpt>
      <trkpt lat="46.1926" lon="-0.51579">
        <ele>59.4</ele>
        <time>2021-03-30T15:10:25Z</time>
      </trkpt>
      <trkpt lat="46.1926" lon="-0.51581">
        <ele>59.4</ele>
        <time>2021-03-30T15:10:26Z</time>
      </trkpt>
      <trkpt lat="46.19261" lon="-0.51583">
        <ele>59.4</ele>
        <time>2021-03-30T15:10:27Z</time>
      </trkpt>
      <trkpt lat="46.19262" lon="-0.51586">
        <ele>59.4</ele>
        <time>2021-03-30T15:10:28Z</time>
      </trkpt>
      <trkpt lat="46.19266" lon="-0.516">
        <ele>59.4</ele>
        <time>2021-03-30T15:10:32Z</time>
      </trkpt>
      <trkpt lat="46.19265" lon="-0.51602">
        <ele>59.4</ele>
        <time>2021-03-30T15:10:33Z</time>
      </trkpt>
      <trkpt lat="46.19266" lon="-0.51603">
        <ele>59.4</ele>
        <time>2021-03-30T15:10:34Z</time>
      </trkpt>
      <trkpt lat="46.19266" lon="-0.51604">
        <ele>59.4</ele>
        <time>2021-03-30T15:10:35Z</time>
      </trkpt>
      <trkpt lat="46.19265" lon="-0.51607">
        <ele>59.4</ele>
        <time>2021-03-30T15:10:36Z</time>
      </trkpt>
      <trkpt lat="46.19265" lon="-0.5161">
        <ele>59.4</ele>
        <time>2021-03-30T15:10:37Z</time>
      </trkpt>
      <trkpt lat="46.19264" lon="-0.51613">
        <ele>59.4</ele>
        <time>2021-03-30T15:10:38Z</time>
      </trkpt>
      <trkpt lat="46.19265" lon="-0.51616">
        <ele>59.4</ele>
        <time>2021-03-30T15:10:40Z</time>
      </trkpt>
      <trkpt lat="46.19265" lon="-0.51616">
        <ele>59.4</ele>
        <time>2021-03-30T15:10:41Z</time>
      </trkpt>
      <trkpt lat="46.19266" lon="-0.51618">
        <ele>59.4</ele>
        <time>2021-03-30T15:10:42Z</time>
      </trkpt>
      <trkpt lat="46.19268" lon="-0.5162">
        <ele>59.6</ele>
        <time>2021-03-30T15:10:43Z</time>
      </trkpt>
      <trkpt lat="46.19268" lon="-0.51623">
        <ele>59.6</ele>
        <time>2021-03-30T15:10:44Z</time>
      </trkpt>
      <trkpt lat="46.19266" lon="-0.51628">
        <ele>59.8</ele>
        <time>2021-03-30T15:10:46Z</time>
      </trkpt>
      <trkpt lat="46.19265" lon="-0.51633">
        <ele>60</ele>
        <time>2021-03-30T15:10:48Z</time>
      </trkpt>
      <trkpt lat="46.19265" lon="-0.51635">
        <ele>60</ele>
        <time>2021-03-30T15:10:49Z</time>
      </trkpt>
      <trkpt lat="46.19265" lon="-0.51635">
        <ele>60</ele>
        <time>2021-03-30T15:10:51Z</time>
      </trkpt>
      <trkpt lat="46.19264" lon="-0.51637">
        <ele>60</ele>
        <time>2021-03-30T15:10:52Z</time>
      </trkpt>
      <trkpt lat="46.19258" lon="-0.51645">
        <ele>60</ele>
        <time>2021-03-30T15:10:55Z</time>
      </trkpt>
      <trkpt lat="46.19253" lon="-0.5165">
        <ele>60</ele>
        <time>2021-03-30T15:10:57Z</time>
      </trkpt>
      <trkpt lat="46.19251" lon="-0.51657">
        <ele>60.2</ele>
        <time>2021-03-30T15:10:59Z</time>
      </trkpt>
      <trkpt lat="46.19248" lon="-0.51661">
        <ele>60.2</ele>
        <time>2021-03-30T15:11:00Z</time>
      </trkpt>
      <trkpt lat="46.19247" lon="-0.51663">
        <ele>60.2</ele>
        <time>2021-03-30T15:11:02Z</time>
      </trkpt>
      <trkpt lat="46.19247" lon="-0.51663">
        <ele>60.2</ele>
        <time>2021-03-30T15:11:03Z</time>
      </trkpt>
      <trkpt lat="46.19239" lon="-0.51661">
        <ele>60.4</ele>
        <time>2021-03-30T15:11:30Z</time>
      </trkpt>
      <trkpt lat="46.19235" lon="-0.51661">
        <ele>60.4</ele>
        <time>2021-03-30T15:11:32Z</time>
      </trkpt>
      <trkpt lat="46.19235" lon="-0.51661">
        <ele>60.4</ele>
        <time>2021-03-30T15:11:33Z</time>
      </trkpt>
      <trkpt lat="46.19235" lon="-0.51661">
        <ele>60.4</ele>
        <time>2021-03-30T15:11:34Z</time>
      </trkpt>
      <trkpt lat="46.19234" lon="-0.51661">
        <ele>60.4</ele>
        <time>2021-03-30T15:11:35Z</time>
      </trkpt>
      <trkpt lat="46.1922" lon="-0.51651">
        <ele>60.2</ele>
        <time>2021-03-30T15:12:02Z</time>
      </trkpt>
      <trkpt lat="46.19216" lon="-0.51647">
        <ele>60.2</ele>
        <time>2021-03-30T15:12:04Z</time>
      </trkpt>
      <trkpt lat="46.19214" lon="-0.51644">
        <ele>60</ele>
        <time>2021-03-30T15:12:06Z</time>
      </trkpt>
      <trkpt lat="46.19214" lon="-0.51642">
        <ele>60</ele>
        <time>2021-03-30T15:12:07Z</time>
      </trkpt>
      <trkpt lat="46.19214" lon="-0.51641">
        <ele>60</ele>
        <time>2021-03-30T15:12:08Z</time>
      </trkpt>
      <trkpt lat="46.19215" lon="-0.51641">
        <ele>60</ele>
        <time>2021-03-30T15:12:09Z</time>
      </trkpt>
      <trkpt lat="46.19217" lon="-0.51641">
        <ele>60</ele>
        <time>2021-03-30T15:12:10Z</time>
      </trkpt>
      <trkpt lat="46.19218" lon="-0.51641">
        <ele>60</ele>
        <time>2021-03-30T15:12:11Z</time>
      </trkpt>
      <trkpt lat="46.19218" lon="-0.51641">
        <ele>60</ele>
        <time>2021-03-30T15:12:12Z</time>
      </trkpt>
      <trkpt lat="46.19218" lon="-0.51641">
        <ele>60</ele>
        <time>2021-03-30T15:12:13Z</time>
      </trkpt>
      <trkpt lat="46.19219" lon="-0.51641">
        <ele>60</ele>
        <time>2021-03-30T15:12:14Z</time>
      </trkpt>
      <trkpt lat="46.19219" lon="-0.51641">
        <ele>60</ele>
        <time>2021-03-30T15:12:15Z</time>
      </trkpt>
      <trkpt lat="46.19219" lon="-0.51641">
        <ele>60</ele>
        <time>2021-03-30T15:12:16Z</time>
      </trkpt>
      <trkpt lat="46.19215" lon="-0.51635">
        <ele>59.6</ele>
        <time>2021-03-30T15:12:33Z</time>
      </trkpt>
      <trkpt lat="46.19213" lon="-0.51633">
        <ele>59.6</ele>
        <time>2021-03-30T15:12:34Z</time>
      </trkpt>
      <trkpt lat="46.19212" lon="-0.51632">
        <ele>59.6</ele>
        <time>2021-03-30T15:12:35Z</time>
      </trkpt>
      <trkpt lat="46.19211" lon="-0.5163">
        <ele>59.6</ele>
        <time>2021-03-30T15:12:36Z</time>
      </trkpt>
      <trkpt lat="46.19209" lon="-0.51628">
        <ele>59.4</ele>
        <time>2021-03-30T15:12:37Z</time>
      </trkpt>
      <trkpt lat="46.19208" lon="-0.51627">
        <ele>59.4</ele>
        <time>2021-03-30T15:12:38Z</time>
      </trkpt>
      <trkpt lat="46.19207" lon="-0.51625">
        <ele>59.4</ele>
        <time>2021-03-30T15:12:39Z</time>
      </trkpt>
      <trkpt lat="46.19206" lon="-0.51623">
        <ele>59.4</ele>
        <time>2021-03-30T15:12:40Z</time>
      </trkpt>
      <trkpt lat="46.19204" lon="-0.51621">
        <ele>59.2</ele>
        <time>2021-03-30T15:12:42Z</time>
      </trkpt>
      <trkpt lat="46.19204" lon="-0.51621">
        <ele>59.2</ele>
        <time>2021-03-30T15:12:43Z</time>
      </trkpt>
      <trkpt lat="46.19204" lon="-0.51621">
        <ele>59.2</ele>
        <time>2021-03-30T15:12:44Z</time>
      </trkpt>
      <trkpt lat="46.19204" lon="-0.51621">
        <ele>59.2</ele>
        <time>2021-03-30T15:12:45Z</time>
      </trkpt>
      <trkpt lat="46.192" lon="-0.51616">
        <ele>59.2</ele>
        <time>2021-03-30T15:12:55Z</time>
      </trkpt>
      <trkpt lat="46.19199" lon="-0.51615">
        <ele>59</ele>
        <time>2021-03-30T15:12:56Z</time>
      </trkpt>
      <trkpt lat="46.19199" lon="-0.51615">
        <ele>59</ele>
        <time>2021-03-30T15:12:57Z</time>
      </trkpt>
      <trkpt lat="46.19199" lon="-0.51615">
        <ele>59</ele>
        <time>2021-03-30T15:12:58Z</time>
      </trkpt>
      <trkpt lat="46.19176" lon="-0.5159">
        <ele>59</ele>
        <time>2021-03-30T15:14:21Z</time>
      </trkpt>
      <trkpt lat="46.19175" lon="-0.51588">
        <ele>58.8</ele>
        <time>2021-03-30T15:14:22Z</time>
      </trkpt>
      <trkpt lat="46.19174" lon="-0.51587">
        <ele>58.8</ele>
        <time>2021-03-30T15:14:24Z</time>
      </trkpt>
      <trkpt lat="46.19173" lon="-0.51586">
        <ele>58.8</ele>
        <time>2021-03-30T15:14:25Z</time>
      </trkpt>
      <trkpt lat="46.1917" lon="-0.51584">
        <ele>58.6</ele>
        <time>2021-03-30T15:14:27Z</time>
      </trkpt>
      <trkpt lat="46.19168" lon="-0.51583">
        <ele>58.4</ele>
        <time>2021-03-30T15:14:29Z</time>
      </trkpt>
      <trkpt lat="46.19166" lon="-0.51583">
        <ele>58.4</ele>
        <time>2021-03-30T15:14:30Z</time>
      </trkpt>
      <trkpt lat="46.19163" lon="-0.51583">
        <ele>58.4</ele>
        <time>2021-03-30T15:14:32Z</time>
      </trkpt>
      <trkpt lat="46.19161" lon="-0.51583">
        <ele>58.2</ele>
        <time>2021-03-30T15:14:33Z</time>
      </trkpt>
      <trkpt lat="46.19156" lon="-0.51576">
        <ele>58.2</ele>
        <time>2021-03-30T15:14:36Z</time>
      </trkpt>
      <trkpt lat="46.19156" lon="-0.51576">
        <ele>58.2</ele>
        <time>2021-03-30T15:14:37Z</time>
      </trkpt>
      <trkpt lat="46.19156" lon="-0.51576">
        <ele>58.2</ele>
        <time>2021-03-30T15:14:38Z</time>
      </trkpt>
      <trkpt lat="46.19138" lon="-0.51558">
        <ele>59</ele>
        <time>2021-03-30T15:16:24Z</time>
      </trkpt>
      <trkpt lat="46.19133" lon="-0.51566">
        <ele>59</ele>
        <time>2021-03-30T15:16:26Z</time>
      </trkpt>
      <trkpt lat="46.19124" lon="-0.51581">
        <ele>59</ele>
        <time>2021-03-30T15:16:29Z</time>
      </trkpt>
      <trkpt lat="46.19113" lon="-0.51595">
        <ele>59</ele>
        <time>2021-03-30T15:16:31Z</time>
      </trkpt>
      <trkpt lat="46.19109" lon="-0.51601">
        <ele>59</ele>
        <time>2021-03-30T15:16:32Z</time>
      </trkpt>
      <trkpt lat="46.19098" lon="-0.51618">
        <ele>59</ele>
        <time>2021-03-30T15:16:36Z</time>
      </trkpt>
      <trkpt lat="46.19098" lon="-0.51618">
        <ele>59</ele>
        <time>2021-03-30T15:16:38Z</time>
      </trkpt>
      <trkpt lat="46.19103" lon="-0.51624">
        <ele>60</ele>
        <time>2021-03-30T15:16:49Z</time>
      </trkpt>
      <trkpt lat="46.1911" lon="-0.51627">
        <ele>60</ele>
        <time>2021-03-30T15:16:51Z</time>
      </trkpt>
      <trkpt lat="46.19115" lon="-0.5163">
        <ele>60</ele>
        <time>2021-03-30T15:16:52Z</time>
      </trkpt>
      <trkpt lat="46.1912" lon="-0.51635">
        <ele>60.2</ele>
        <time>2021-03-30T15:16:53Z</time>
      </trkpt>
      <trkpt lat="46.19139" lon="-0.51652">
        <ele>60</ele>
        <time>2021-03-30T15:16:57Z</time>
      </trkpt>
      <trkpt lat="46.19143" lon="-0.51656">
        <ele>59.8</ele>
        <time>2021-03-30T15:16:58Z</time>
      </trkpt>
      <trkpt lat="46.19146" lon="-0.5166">
        <ele>59.6</ele>
        <time>2021-03-30T15:16:59Z</time>
      </trkpt>
      <trkpt lat="46.19149" lon="-0.51664">
        <ele>59.6</ele>
        <time>2021-03-30T15:17:00Z</time>
      </trkpt>
      <trkpt lat="46.19155" lon="-0.51674">
        <ele>59.6</ele>
        <time>2021-03-30T15:17:02Z</time>
      </trkpt>
      <trkpt lat="46.19158" lon="-0.51679">
        <ele>59.4</ele>
        <time>2021-03-30T15:17:03Z</time>
      </trkpt>
      <trkpt lat="46.19161" lon="-0.51683">
        <ele>59.4</ele>
        <time>2021-03-30T15:17:04Z</time>
      </trkpt>
      <trkpt lat="46.19165" lon="-0.51688">
        <ele>59.4</ele>
        <time>2021-03-30T15:17:05Z</time>
      </trkpt>
      <trkpt lat="46.19174" lon="-0.51696">
        <ele>59.4</ele>
        <time>2021-03-30T15:17:07Z</time>
      </trkpt>
      <trkpt lat="46.19178" lon="-0.51701">
        <ele>59.6</ele>
        <time>2021-03-30T15:17:08Z</time>
      </trkpt>
      <trkpt lat="46.19182" lon="-0.5171">
        <ele>59.6</ele>
        <time>2021-03-30T15:17:10Z</time>
      </trkpt>
      <trkpt lat="46.19182" lon="-0.51713">
        <ele>59.8</ele>
        <time>2021-03-30T15:17:11Z</time>
      </trkpt>
      <trkpt lat="46.19183" lon="-0.51713">
        <ele>59.8</ele>
        <time>2021-03-30T15:17:12Z</time>
      </trkpt>
      <trkpt lat="46.19183" lon="-0.51713">
        <ele>60.2</ele>
        <time>2021-03-30T15:17:14Z</time>
      </trkpt>
      <trkpt lat="46.19176" lon="-0.51723">
        <ele>61.4</ele>
        <time>2021-03-30T15:17:26Z</time>
      </trkpt>
      <trkpt lat="46.19173" lon="-0.51725">
        <ele>61.6</ele>
        <time>2021-03-30T15:17:27Z</time>
      </trkpt>
      <trkpt lat="46.19171" lon="-0.51727">
        <ele>61.6</ele>
        <time>2021-03-30T15:17:28Z</time>
      </trkpt>
      <trkpt lat="46.1917" lon="-0.51728">
        <ele>61.6</ele>
        <time>2021-03-30T15:17:29Z</time>
      </trkpt>
      <trkpt lat="46.19167" lon="-0.51731">
        <ele>61.4</ele>
        <time>2021-03-30T15:17:31Z</time>
      </trkpt>
      <trkpt lat="46.19165" lon="-0.51731">
        <ele>61.4</ele>
        <time>2021-03-30T15:17:32Z</time>
      </trkpt>
      <trkpt lat="46.19164" lon="-0.51731">
        <ele>61.4</ele>
        <time>2021-03-30T15:17:33Z</time>
      </trkpt>
      <trkpt lat="46.19162" lon="-0.5173">
        <ele>61.4</ele>
        <time>2021-03-30T15:17:34Z</time>
      </trkpt>
      <trkpt lat="46.19159" lon="-0.51726">
        <ele>61.2</ele>
        <time>2021-03-30T15:17:36Z</time>
      </trkpt>
      <trkpt lat="46.19158" lon="-0.51723">
        <ele>61.2</ele>
        <time>2021-03-30T15:17:37Z</time>
      </trkpt>
      <trkpt lat="46.19157" lon="-0.51721">
        <ele>61.2</ele>
        <time>2021-03-30T15:17:38Z</time>
      </trkpt>
      <trkpt lat="46.19155" lon="-0.5172">
        <ele>61</ele>
        <time>2021-03-30T15:17:39Z</time>
      </trkpt>
      <trkpt lat="46.19154" lon="-0.5172">
        <ele>61</ele>
        <time>2021-03-30T15:17:40Z</time>
      </trkpt>
      <trkpt lat="46.19154" lon="-0.5172">
        <ele>61</ele>
        <time>2021-03-30T15:17:41Z</time>
      </trkpt>
      <trkpt lat="46.19152" lon="-0.5172">
        <ele>61</ele>
        <time>2021-03-30T15:17:42Z</time>
      </trkpt>
      <trkpt lat="46.19151" lon="-0.5172">
        <ele>60.8</ele>
        <time>2021-03-30T15:17:43Z</time>
      </trkpt>
      <trkpt lat="46.19149" lon="-0.51718">
        <ele>60.8</ele>
        <time>2021-03-30T15:17:44Z</time>
      </trkpt>
      <trkpt lat="46.19148" lon="-0.51717">
        <ele>60.8</ele>
        <time>2021-03-30T15:17:45Z</time>
      </trkpt>
      <trkpt lat="46.19148" lon="-0.51714">
        <ele>60.8</ele>
        <time>2021-03-30T15:17:46Z</time>
      </trkpt>
      <trkpt lat="46.19148" lon="-0.51712">
        <ele>60.8</ele>
        <time>2021-03-30T15:17:47Z</time>
      </trkpt>
      <trkpt lat="46.19147" lon="-0.51709">
        <ele>60.6</ele>
        <time>2021-03-30T15:17:48Z</time>
      </trkpt>
      <trkpt lat="46.19145" lon="-0.51707">
        <ele>60.6</ele>
        <time>2021-03-30T15:17:49Z</time>
      </trkpt>
      <trkpt lat="46.19143" lon="-0.51707">
        <ele>60.6</ele>
        <time>2021-03-30T15:17:50Z</time>
      </trkpt>
      <trkpt lat="46.19139" lon="-0.51704">
        <ele>60.4</ele>
        <time>2021-03-30T15:17:52Z</time>
      </trkpt>
      <trkpt lat="46.19137" lon="-0.51701">
        <ele>60.4</ele>
        <time>2021-03-30T15:17:53Z</time>
      </trkpt>
      <trkpt lat="46.19136" lon="-0.51698">
        <ele>60.4</ele>
        <time>2021-03-30T15:17:54Z</time>
      </trkpt>
      <trkpt lat="46.19136" lon="-0.51693">
        <ele>60.4</ele>
        <time>2021-03-30T15:17:55Z</time>
      </trkpt>
      <trkpt lat="46.19138" lon="-0.51684">
        <ele>60.4</ele>
        <time>2021-03-30T15:17:57Z</time>
      </trkpt>
      <trkpt lat="46.19142" lon="-0.51679">
        <ele>60.2</ele>
        <time>2021-03-30T15:17:59Z</time>
      </trkpt>
      <trkpt lat="46.19142" lon="-0.51676">
        <ele>60.2</ele>
        <time>2021-03-30T15:18:00Z</time>
      </trkpt>
      <trkpt lat="46.19142" lon="-0.51672">
        <ele>60.2</ele>
        <time>2021-03-30T15:18:01Z</time>
      </trkpt>
      <trkpt lat="46.1914" lon="-0.51669">
        <ele>60</ele>
        <time>2021-03-30T15:18:02Z</time>
      </trkpt>
      <trkpt lat="46.19138" lon="-0.51665">
        <ele>60</ele>
        <time>2021-03-30T15:18:03Z</time>
      </trkpt>
      <trkpt lat="46.1913" lon="-0.51657">
        <ele>59.6</ele>
        <time>2021-03-30T15:18:05Z</time>
      </trkpt>
      <trkpt lat="46.19124" lon="-0.51651">
        <ele>59.6</ele>
        <time>2021-03-30T15:18:06Z</time>
      </trkpt>
      <trkpt lat="46.19118" lon="-0.51647">
        <ele>59.4</ele>
        <time>2021-03-30T15:18:07Z</time>
      </trkpt>
      <trkpt lat="46.191" lon="-0.51636">
        <ele>59.2</ele>
        <time>2021-03-30T15:18:10Z</time>
      </trkpt>
      <trkpt lat="46.19095" lon="-0.51635">
        <ele>59.2</ele>
        <time>2021-03-30T15:18:11Z</time>
      </trkpt>
      <trkpt lat="46.19091" lon="-0.51637">
        <ele>59.2</ele>
        <time>2021-03-30T15:18:12Z</time>
      </trkpt>
      <trkpt lat="46.19089" lon="-0.5164">
        <ele>59.2</ele>
        <time>2021-03-30T15:18:13Z</time>
      </trkpt>
      <trkpt lat="46.19086" lon="-0.51644">
        <ele>59.2</ele>
        <time>2021-03-30T15:18:14Z</time>
      </trkpt>
      <trkpt lat="46.19081" lon="-0.51655">
        <ele>59.2</ele>
        <time>2021-03-30T15:18:16Z</time>
      </trkpt>
      <trkpt lat="46.19077" lon="-0.5166">
        <ele>59.2</ele>
        <time>2021-03-30T15:18:17Z</time>
      </trkpt>
      <trkpt lat="46.19073" lon="-0.51666">
        <ele>59.2</ele>
        <time>2021-03-30T15:18:18Z</time>
      </trkpt>
      <trkpt lat="46.19045" lon="-0.51702">
        <ele>59.8</ele>
        <time>2021-03-30T15:18:24Z</time>
      </trkpt>
      <trkpt lat="46.19027" lon="-0.51727">
        <ele>60.2</ele>
        <time>2021-03-30T15:18:28Z</time>
      </trkpt>
      <trkpt lat="46.19023" lon="-0.51732">
        <ele>60.2</ele>
        <time>2021-03-30T15:18:29Z</time>
      </trkpt>
      <trkpt lat="46.19014" lon="-0.51744">
        <ele>60.4</ele>
        <time>2021-03-30T15:18:31Z</time>
      </trkpt>
      <trkpt lat="46.19002" lon="-0.51763">
        <ele>60.8</ele>
        <time>2021-03-30T15:18:34Z</time>
      </trkpt>
      <trkpt lat="46.18998" lon="-0.51768">
        <ele>61</ele>
        <time>2021-03-30T15:18:35Z</time>
      </trkpt>
      <trkpt lat="46.18993" lon="-0.51773">
        <ele>61.2</ele>
        <time>2021-03-30T15:18:36Z</time>
      </trkpt>
      <trkpt lat="46.18989" lon="-0.51778">
        <ele>61.4</ele>
        <time>2021-03-30T15:18:37Z</time>
      </trkpt>
      <trkpt lat="46.18962" lon="-0.51808">
        <ele>61.8</ele>
        <time>2021-03-30T15:18:42Z</time>
      </trkpt>
      <trkpt lat="46.18915" lon="-0.51852">
        <ele>62.6</ele>
        <time>2021-03-30T15:18:50Z</time>
      </trkpt>
      <trkpt lat="46.1891" lon="-0.51856">
        <ele>62.8</ele>
        <time>2021-03-30T15:18:51Z</time>
      </trkpt>
      <trkpt lat="46.18906" lon="-0.51861">
        <ele>63</ele>
        <time>2021-03-30T15:18:52Z</time>
      </trkpt>
      <trkpt lat="46.18902" lon="-0.51865">
        <ele>63</ele>
        <time>2021-03-30T15:18:53Z</time>
      </trkpt>
      <trkpt lat="46.18898" lon="-0.51871">
        <ele>63.4</ele>
        <time>2021-03-30T15:18:54Z</time>
      </trkpt>
      <trkpt lat="46.18894" lon="-0.51876">
        <ele>63.4</ele>
        <time>2021-03-30T15:18:55Z</time>
      </trkpt>
      <trkpt lat="46.18891" lon="-0.51883">
        <ele>63.8</ele>
        <time>2021-03-30T15:18:56Z</time>
      </trkpt>
      <trkpt lat="46.18888" lon="-0.51891">
        <ele>64.2</ele>
        <time>2021-03-30T15:18:57Z</time>
      </trkpt>
      <trkpt lat="46.18885" lon="-0.51899">
        <ele>64.4</ele>
        <time>2021-03-30T15:18:58Z</time>
      </trkpt>
      <trkpt lat="46.18883" lon="-0.51909">
        <ele>65</ele>
        <time>2021-03-30T15:18:59Z</time>
      </trkpt>
      <trkpt lat="46.18881" lon="-0.51918">
        <ele>65.4</ele>
        <time>2021-03-30T15:19:00Z</time>
      </trkpt>
      <trkpt lat="46.18879" lon="-0.51927">
        <ele>65.6</ele>
        <time>2021-03-30T15:19:01Z</time>
      </trkpt>
      <trkpt lat="46.18876" lon="-0.51937">
        <ele>65.6</ele>
        <time>2021-03-30T15:19:02Z</time>
      </trkpt>
      <trkpt lat="46.18873" lon="-0.51946">
        <ele>66</ele>
        <time>2021-03-30T15:19:03Z</time>
      </trkpt>
      <trkpt lat="46.18869" lon="-0.51955">
        <ele>66.2</ele>
        <time>2021-03-30T15:19:04Z</time>
      </trkpt>
      <trkpt lat="46.18866" lon="-0.51965">
        <ele>66.4</ele>
        <time>2021-03-30T15:19:05Z</time>
      </trkpt>
      <trkpt lat="46.18863" lon="-0.51974">
        <ele>66.4</ele>
        <time>2021-03-30T15:19:06Z</time>
      </trkpt>
      <trkpt lat="46.1886" lon="-0.51982">
        <ele>66.6</ele>
        <time>2021-03-30T15:19:07Z</time>
      </trkpt>
      <trkpt lat="46.18857" lon="-0.5199">
        <ele>66.8</ele>
        <time>2021-03-30T15:19:08Z</time>
      </trkpt>
      <trkpt lat="46.18853" lon="-0.51999">
        <ele>67</ele>
        <time>2021-03-30T15:19:09Z</time>
      </trkpt>
      <trkpt lat="46.1885" lon="-0.52008">
        <ele>67.2</ele>
        <time>2021-03-30T15:19:10Z</time>
      </trkpt>
      <trkpt lat="46.18847" lon="-0.52016">
        <ele>67.4</ele>
        <time>2021-03-30T15:19:11Z</time>
      </trkpt>
      <trkpt lat="46.18842" lon="-0.52025">
        <ele>67.6</ele>
        <time>2021-03-30T15:19:12Z</time>
      </trkpt>
      <trkpt lat="46.18838" lon="-0.52032">
        <ele>67.8</ele>
        <time>2021-03-30T15:19:13Z</time>
      </trkpt>
      <trkpt lat="46.18834" lon="-0.52039">
        <ele>68.2</ele>
        <time>2021-03-30T15:19:14Z</time>
      </trkpt>
      <trkpt lat="46.18831" lon="-0.52044">
        <ele>68.4</ele>
        <time>2021-03-30T15:19:15Z</time>
      </trkpt>
      <trkpt lat="46.18829" lon="-0.52046">
        <ele>68.4</ele>
        <time>2021-03-30T15:19:16Z</time>
      </trkpt>
      <trkpt lat="46.18828" lon="-0.52047">
        <ele>68.6</ele>
        <time>2021-03-30T15:19:17Z</time>
      </trkpt>
      <trkpt lat="46.18828" lon="-0.52047">
        <ele>68.8</ele>
        <time>2021-03-30T15:19:19Z</time>
      </trkpt>
      <trkpt lat="46.18824" lon="-0.52056">
        <ele>71.8</ele>
        <time>2021-03-30T15:19:29Z</time>
      </trkpt>
      <trkpt lat="46.18822" lon="-0.52061">
        <ele>71.8</ele>
        <time>2021-03-30T15:19:30Z</time>
      </trkpt>
      <trkpt lat="46.1882" lon="-0.52067">
        <ele>71.8</ele>
        <time>2021-03-30T15:19:31Z</time>
      </trkpt>
      <trkpt lat="46.18817" lon="-0.52072">
        <ele>71.8</ele>
        <time>2021-03-30T15:19:32Z</time>
      </trkpt>
      <trkpt lat="46.18815" lon="-0.52078">
        <ele>71.8</ele>
        <time>2021-03-30T15:19:33Z</time>
      </trkpt>
      <trkpt lat="46.18812" lon="-0.52084">
        <ele>71.8</ele>
        <time>2021-03-30T15:19:34Z</time>
      </trkpt>
      <trkpt lat="46.1881" lon="-0.52091">
        <ele>71.8</ele>
        <time>2021-03-30T15:19:35Z</time>
      </trkpt>
      <trkpt lat="46.18807" lon="-0.52097">
        <ele>71.8</ele>
        <time>2021-03-30T15:19:36Z</time>
      </trkpt>
      <trkpt lat="46.18804" lon="-0.52103">
        <ele>71.8</ele>
        <time>2021-03-30T15:19:37Z</time>
      </trkpt>
      <trkpt lat="46.188" lon="-0.52108">
        <ele>71.8</ele>
        <time>2021-03-30T15:19:38Z</time>
      </trkpt>
      <trkpt lat="46.18797" lon="-0.52114">
        <ele>71.8</ele>
        <time>2021-03-30T15:19:39Z</time>
      </trkpt>
      <trkpt lat="46.18794" lon="-0.5212">
        <ele>71.8</ele>
        <time>2021-03-30T15:19:40Z</time>
      </trkpt>
      <trkpt lat="46.18789" lon="-0.52127">
        <ele>71.8</ele>
        <time>2021-03-30T15:19:41Z</time>
      </trkpt>
      <trkpt lat="46.18785" lon="-0.52135">
        <ele>71.8</ele>
        <time>2021-03-30T15:19:42Z</time>
      </trkpt>
      <trkpt lat="46.1878" lon="-0.52143">
        <ele>72</ele>
        <time>2021-03-30T15:19:43Z</time>
      </trkpt>
      <trkpt lat="46.18775" lon="-0.52151">
        <ele>72</ele>
        <time>2021-03-30T15:19:44Z</time>
      </trkpt>
      <trkpt lat="46.18772" lon="-0.52159">
        <ele>72</ele>
        <time>2021-03-30T15:19:45Z</time>
      </trkpt>
      <trkpt lat="46.18769" lon="-0.52168">
        <ele>72.2</ele>
        <time>2021-03-30T15:19:46Z</time>
      </trkpt>
      <trkpt lat="46.18767" lon="-0.52177">
        <ele>72.2</ele>
        <time>2021-03-30T15:19:47Z</time>
      </trkpt>
      <trkpt lat="46.18764" lon="-0.52186">
        <ele>72.2</ele>
        <time>2021-03-30T15:19:48Z</time>
      </trkpt>
      <trkpt lat="46.18762" lon="-0.52195">
        <ele>72.4</ele>
        <time>2021-03-30T15:19:49Z</time>
      </trkpt>
      <trkpt lat="46.18749" lon="-0.52238">
        <ele>73.4</ele>
        <time>2021-03-30T15:19:53Z</time>
      </trkpt>
      <trkpt lat="46.18745" lon="-0.5226">
        <ele>74.2</ele>
        <time>2021-03-30T15:19:55Z</time>
      </trkpt>
      <trkpt lat="46.18743" lon="-0.52272">
        <ele>74.4</ele>
        <time>2021-03-30T15:19:56Z</time>
      </trkpt>
      <trkpt lat="46.18742" lon="-0.52283">
        <ele>74.6</ele>
        <time>2021-03-30T15:19:57Z</time>
      </trkpt>
      <trkpt lat="46.1874" lon="-0.52294">
        <ele>74.6</ele>
        <time>2021-03-30T15:19:58Z</time>
      </trkpt>
      <trkpt lat="46.1874" lon="-0.52306">
        <ele>74.8</ele>
        <time>2021-03-30T15:19:59Z</time>
      </trkpt>
      <trkpt lat="46.18739" lon="-0.52317">
        <ele>74.8</ele>
        <time>2021-03-30T15:20:00Z</time>
      </trkpt>
      <trkpt lat="46.18737" lon="-0.52329">
        <ele>74.8</ele>
        <time>2021-03-30T15:20:01Z</time>
      </trkpt>
      <trkpt lat="46.18735" lon="-0.52341">
        <ele>74.8</ele>
        <time>2021-03-30T15:20:02Z</time>
      </trkpt>
      <trkpt lat="46.18731" lon="-0.52353">
        <ele>74.8</ele>
        <time>2021-03-30T15:20:03Z</time>
      </trkpt>
      <trkpt lat="46.18729" lon="-0.52364">
        <ele>74.8</ele>
        <time>2021-03-30T15:20:04Z</time>
      </trkpt>
      <trkpt lat="46.18726" lon="-0.52375">
        <ele>74.8</ele>
        <time>2021-03-30T15:20:05Z</time>
      </trkpt>
      <trkpt lat="46.18724" lon="-0.52387">
        <ele>74.8</ele>
        <time>2021-03-30T15:20:06Z</time>
      </trkpt>
      <trkpt lat="46.18723" lon="-0.52397">
        <ele>74.8</ele>
        <time>2021-03-30T15:20:07Z</time>
      </trkpt>
      <trkpt lat="46.18723" lon="-0.52409">
        <ele>74.8</ele>
        <time>2021-03-30T15:20:08Z</time>
      </trkpt>
      <trkpt lat="46.18724" lon="-0.5242">
        <ele>74.8</ele>
        <time>2021-03-30T15:20:09Z</time>
      </trkpt>
      <trkpt lat="46.18725" lon="-0.52432">
        <ele>74.6</ele>
        <time>2021-03-30T15:20:10Z</time>
      </trkpt>
      <trkpt lat="46.18727" lon="-0.52444">
        <ele>74.6</ele>
        <time>2021-03-30T15:20:11Z</time>
      </trkpt>
      <trkpt lat="46.18729" lon="-0.52456">
        <ele>74.4</ele>
        <time>2021-03-30T15:20:12Z</time>
      </trkpt>
      <trkpt lat="46.18731" lon="-0.52468">
        <ele>74.4</ele>
        <time>2021-03-30T15:20:13Z</time>
      </trkpt>
      <trkpt lat="46.18747" lon="-0.5254">
        <ele>74.2</ele>
        <time>2021-03-30T15:20:19Z</time>
      </trkpt>
      <trkpt lat="46.18753" lon="-0.52563">
        <ele>74</ele>
        <time>2021-03-30T15:20:21Z</time>
      </trkpt>
      <trkpt lat="46.18762" lon="-0.52597">
        <ele>73.8</ele>
        <time>2021-03-30T15:20:24Z</time>
      </trkpt>
      <trkpt lat="46.18772" lon="-0.52632">
        <ele>73.6</ele>
        <time>2021-03-30T15:20:27Z</time>
      </trkpt>
      <trkpt lat="46.18783" lon="-0.5268">
        <ele>72.8</ele>
        <time>2021-03-30T15:20:31Z</time>
      </trkpt>
      <trkpt lat="46.1879" lon="-0.52729">
        <ele>72.6</ele>
        <time>2021-03-30T15:20:35Z</time>
      </trkpt>
      <trkpt lat="46.18791" lon="-0.5274">
        <ele>72.4</ele>
        <time>2021-03-30T15:20:36Z</time>
      </trkpt>
      <trkpt lat="46.18792" lon="-0.52751">
        <ele>72.2</ele>
        <time>2021-03-30T15:20:37Z</time>
      </trkpt>
      <trkpt lat="46.18793" lon="-0.52762">
        <ele>72.2</ele>
        <time>2021-03-30T15:20:38Z</time>
      </trkpt>
      <trkpt lat="46.18793" lon="-0.52772">
        <ele>72</ele>
        <time>2021-03-30T15:20:39Z</time>
      </trkpt>
      <trkpt lat="46.18793" lon="-0.52781">
        <ele>71.8</ele>
        <time>2021-03-30T15:20:40Z</time>
      </trkpt>
      <trkpt lat="46.18793" lon="-0.52791">
        <ele>71.8</ele>
        <time>2021-03-30T15:20:41Z</time>
      </trkpt>
      <trkpt lat="46.18789" lon="-0.52812">
        <ele>71.6</ele>
        <time>2021-03-30T15:20:43Z</time>
      </trkpt>
      <trkpt lat="46.18784" lon="-0.52821">
        <ele>71.6</ele>
        <time>2021-03-30T15:20:44Z</time>
      </trkpt>
      <trkpt lat="46.18777" lon="-0.52829">
        <ele>71.6</ele>
        <time>2021-03-30T15:20:45Z</time>
      </trkpt>
      <trkpt lat="46.1877" lon="-0.52835">
        <ele>71.6</ele>
        <time>2021-03-30T15:20:46Z</time>
      </trkpt>
      <trkpt lat="46.18763" lon="-0.5284">
        <ele>71.4</ele>
        <time>2021-03-30T15:20:47Z</time>
      </trkpt>
      <trkpt lat="46.18755" lon="-0.52846">
        <ele>71.4</ele>
        <time>2021-03-30T15:20:48Z</time>
      </trkpt>
      <trkpt lat="46.1872" lon="-0.52874">
        <ele>70.4</ele>
        <time>2021-03-30T15:20:53Z</time>
      </trkpt>
      <trkpt lat="46.18712" lon="-0.52879">
        <ele>70.2</ele>
        <time>2021-03-30T15:20:54Z</time>
      </trkpt>
      <trkpt lat="46.18684" lon="-0.52903">
        <ele>69.4</ele>
        <time>2021-03-30T15:20:58Z</time>
      </trkpt>
      <trkpt lat="46.18677" lon="-0.52911">
        <ele>69.2</ele>
        <time>2021-03-30T15:20:59Z</time>
      </trkpt>
      <trkpt lat="46.18666" lon="-0.5293">
        <ele>68.8</ele>
        <time>2021-03-30T15:21:01Z</time>
      </trkpt>
      <trkpt lat="46.18652" lon="-0.5296">
        <ele>68.4</ele>
        <time>2021-03-30T15:21:04Z</time>
      </trkpt>
      <trkpt lat="46.18636" lon="-0.52999">
        <ele>68</ele>
        <time>2021-03-30T15:21:08Z</time>
      </trkpt>
      <trkpt lat="46.18632" lon="-0.53007">
        <ele>68</ele>
        <time>2021-03-30T15:21:09Z</time>
      </trkpt>
      <trkpt lat="46.18628" lon="-0.53015">
        <ele>68</ele>
        <time>2021-03-30T15:21:10Z</time>
      </trkpt>
      <trkpt lat="46.18624" lon="-0.53023">
        <ele>67.8</ele>
        <time>2021-03-30T15:21:11Z</time>
      </trkpt>
      <trkpt lat="46.1862" lon="-0.5303">
        <ele>67.8</ele>
        <time>2021-03-30T15:21:12Z</time>
      </trkpt>
      <trkpt lat="46.18604" lon="-0.53061">
        <ele>67.8</ele>
        <time>2021-03-30T15:21:16Z</time>
      </trkpt>
      <trkpt lat="46.18601" lon="-0.53069">
        <ele>67.8</ele>
        <time>2021-03-30T15:21:17Z</time>
      </trkpt>
      <trkpt lat="46.18598" lon="-0.53076">
        <ele>67.8</ele>
        <time>2021-03-30T15:21:18Z</time>
      </trkpt>
      <trkpt lat="46.18596" lon="-0.53084">
        <ele>67.8</ele>
        <time>2021-03-30T15:21:19Z</time>
      </trkpt>
      <trkpt lat="46.18592" lon="-0.53091">
        <ele>67.6</ele>
        <time>2021-03-30T15:21:20Z</time>
      </trkpt>
      <trkpt lat="46.1859" lon="-0.53098">
        <ele>67.4</ele>
        <time>2021-03-30T15:21:21Z</time>
      </trkpt>
      <trkpt lat="46.18587" lon="-0.53105">
        <ele>67.2</ele>
        <time>2021-03-30T15:21:22Z</time>
      </trkpt>
      <trkpt lat="46.18585" lon="-0.5311">
        <ele>67.2</ele>
        <time>2021-03-30T15:21:23Z</time>
      </trkpt>
      <trkpt lat="46.18584" lon="-0.53113">
        <ele>67.2</ele>
        <time>2021-03-30T15:21:24Z</time>
      </trkpt>
      <trkpt lat="46.18584" lon="-0.53116">
        <ele>67.4</ele>
        <time>2021-03-30T15:21:25Z</time>
      </trkpt>
      <trkpt lat="46.18584" lon="-0.53118">
        <ele>67.4</ele>
        <time>2021-03-30T15:21:26Z</time>
      </trkpt>
      <trkpt lat="46.18584" lon="-0.5312">
        <ele>67.4</ele>
        <time>2021-03-30T15:21:27Z</time>
      </trkpt>
      <trkpt lat="46.18584" lon="-0.5312">
        <ele>67.4</ele>
        <time>2021-03-30T15:21:28Z</time>
      </trkpt>
      <trkpt lat="46.18584" lon="-0.5312">
        <ele>67.4</ele>
        <time>2021-03-30T15:21:29Z</time>
      </trkpt>
      <trkpt lat="46.18588" lon="-0.53126">
        <ele>68.4</ele>
        <time>2021-03-30T15:21:44Z</time>
      </trkpt>
      <trkpt lat="46.18591" lon="-0.53129">
        <ele>68.2</ele>
        <time>2021-03-30T15:21:45Z</time>
      </trkpt>
      <trkpt lat="46.18595" lon="-0.53133">
        <ele>68.2</ele>
        <time>2021-03-30T15:21:46Z</time>
      </trkpt>
      <trkpt lat="46.18612" lon="-0.53144">
        <ele>68.2</ele>
        <time>2021-03-30T15:21:49Z</time>
      </trkpt>
      <trkpt lat="46.18646" lon="-0.53161">
        <ele>68.2</ele>
        <time>2021-03-30T15:21:54Z</time>
      </trkpt>
      <trkpt lat="46.18652" lon="-0.53165">
        <ele>68</ele>
        <time>2021-03-30T15:21:55Z</time>
      </trkpt>
      <trkpt lat="46.1869" lon="-0.5319">
        <ele>66.4</ele>
        <time>2021-03-30T15:22:01Z</time>
      </trkpt>
      <trkpt lat="46.18708" lon="-0.53202">
        <ele>66.4</ele>
        <time>2021-03-30T15:22:04Z</time>
      </trkpt>
      <trkpt lat="46.18714" lon="-0.53206">
        <ele>66.4</ele>
        <time>2021-03-30T15:22:05Z</time>
      </trkpt>
      <trkpt lat="46.1872" lon="-0.5321">
        <ele>66.4</ele>
        <time>2021-03-30T15:22:06Z</time>
      </trkpt>
      <trkpt lat="46.18726" lon="-0.53213">
        <ele>66.4</ele>
        <time>2021-03-30T15:22:07Z</time>
      </trkpt>
      <trkpt lat="46.18731" lon="-0.53217">
        <ele>66.4</ele>
        <time>2021-03-30T15:22:08Z</time>
      </trkpt>
      <trkpt lat="46.18736" lon="-0.5322">
        <ele>66.4</ele>
        <time>2021-03-30T15:22:09Z</time>
      </trkpt>
      <trkpt lat="46.18741" lon="-0.53223">
        <ele>66.4</ele>
        <time>2021-03-30T15:22:10Z</time>
      </trkpt>
      <trkpt lat="46.18746" lon="-0.53225">
        <ele>66.8</ele>
        <time>2021-03-30T15:22:11Z</time>
      </trkpt>
      <trkpt lat="46.18757" lon="-0.53226">
        <ele>67.4</ele>
        <time>2021-03-30T15:22:13Z</time>
      </trkpt>
      <trkpt lat="46.18793" lon="-0.53222">
        <ele>68.2</ele>
        <time>2021-03-30T15:22:18Z</time>
      </trkpt>
      <trkpt lat="46.18801" lon="-0.53219">
        <ele>68.4</ele>
        <time>2021-03-30T15:22:19Z</time>
      </trkpt>
      <trkpt lat="46.18808" lon="-0.53216">
        <ele>68.6</ele>
        <time>2021-03-30T15:22:20Z</time>
      </trkpt>
      <trkpt lat="46.18822" lon="-0.53208">
        <ele>68.6</ele>
        <time>2021-03-30T15:22:22Z</time>
      </trkpt>
      <trkpt lat="46.18829" lon="-0.53208">
        <ele>68.6</ele>
        <time>2021-03-30T15:22:23Z</time>
      </trkpt>
      <trkpt lat="46.18834" lon="-0.53211">
        <ele>68.8</ele>
        <time>2021-03-30T15:22:24Z</time>
      </trkpt>
      <trkpt lat="46.18837" lon="-0.53219">
        <ele>68.8</ele>
        <time>2021-03-30T15:22:25Z</time>
      </trkpt>
      <trkpt lat="46.18838" lon="-0.53227">
        <ele>69</ele>
        <time>2021-03-30T15:22:26Z</time>
      </trkpt>
      <trkpt lat="46.18838" lon="-0.53234">
        <ele>69.6</ele>
        <time>2021-03-30T15:22:27Z</time>
      </trkpt>
      <trkpt lat="46.18838" lon="-0.53239">
        <ele>69.6</ele>
        <time>2021-03-30T15:22:28Z</time>
      </trkpt>
      <trkpt lat="46.18837" lon="-0.53243">
        <ele>70</ele>
        <time>2021-03-30T15:22:29Z</time>
      </trkpt>
      <trkpt lat="46.18837" lon="-0.53245">
        <ele>70.2</ele>
        <time>2021-03-30T15:22:30Z</time>
      </trkpt>
      <trkpt lat="46.18836" lon="-0.53246">
        <ele>70.2</ele>
        <time>2021-03-30T15:22:31Z</time>
      </trkpt>
      <trkpt lat="46.18836" lon="-0.53246">
        <ele>70.2</ele>
        <time>2021-03-30T15:22:33Z</time>
      </trkpt>
      <trkpt lat="46.18835" lon="-0.53251">
        <ele>71.8</ele>
        <time>2021-03-30T15:22:55Z</time>
      </trkpt>
      <trkpt lat="46.18833" lon="-0.53258">
        <ele>71.8</ele>
        <time>2021-03-30T15:22:57Z</time>
      </trkpt>
      <trkpt lat="46.1883" lon="-0.53283">
        <ele>71.6</ele>
        <time>2021-03-30T15:23:01Z</time>
      </trkpt>
      <trkpt lat="46.18825" lon="-0.53331">
        <ele>71.4</ele>
        <time>2021-03-30T15:23:06Z</time>
      </trkpt>
      <trkpt lat="46.18823" lon="-0.53349">
        <ele>71</ele>
        <time>2021-03-30T15:23:08Z</time>
      </trkpt>
      <trkpt lat="46.18822" lon="-0.53359">
        <ele>70.8</ele>
        <time>2021-03-30T15:23:09Z</time>
      </trkpt>
      <trkpt lat="46.1882" lon="-0.53368">
        <ele>70.4</ele>
        <time>2021-03-30T15:23:10Z</time>
      </trkpt>
      <trkpt lat="46.18818" lon="-0.53376">
        <ele>70</ele>
        <time>2021-03-30T15:23:11Z</time>
      </trkpt>
      <trkpt lat="46.18817" lon="-0.53385">
        <ele>69.8</ele>
        <time>2021-03-30T15:23:12Z</time>
      </trkpt>
      <trkpt lat="46.18818" lon="-0.53402">
        <ele>69.6</ele>
        <time>2021-03-30T15:23:14Z</time>
      </trkpt>
      <trkpt lat="46.18822" lon="-0.53407">
        <ele>69.4</ele>
        <time>2021-03-30T15:23:15Z</time>
      </trkpt>
      <trkpt lat="46.18827" lon="-0.53408">
        <ele>69.4</ele>
        <time>2021-03-30T15:23:16Z</time>
      </trkpt>
      <trkpt lat="46.18832" lon="-0.53408">
        <ele>69.4</ele>
        <time>2021-03-30T15:23:17Z</time>
      </trkpt>
      <trkpt lat="46.18845" lon="-0.53408">
        <ele>69.4</ele>
        <time>2021-03-30T15:23:19Z</time>
      </trkpt>
      <trkpt lat="46.18852" lon="-0.53408">
        <ele>69.4</ele>
        <time>2021-03-30T15:23:20Z</time>
      </trkpt>
      <trkpt lat="46.18859" lon="-0.53408">
        <ele>69.4</ele>
        <time>2021-03-30T15:23:21Z</time>
      </trkpt>
      <trkpt lat="46.18887" lon="-0.53409">
        <ele>69.6</ele>
        <time>2021-03-30T15:23:25Z</time>
      </trkpt>
      <trkpt lat="46.18894" lon="-0.53408">
        <ele>69.6</ele>
        <time>2021-03-30T15:23:26Z</time>
      </trkpt>
      <trkpt lat="46.18901" lon="-0.53408">
        <ele>69.8</ele>
        <time>2021-03-30T15:23:27Z</time>
      </trkpt>
      <trkpt lat="46.1894" lon="-0.53411">
        <ele>70.2</ele>
        <time>2021-03-30T15:23:33Z</time>
      </trkpt>
      <trkpt lat="46.18947" lon="-0.53411">
        <ele>70.4</ele>
        <time>2021-03-30T15:23:34Z</time>
      </trkpt>
      <trkpt lat="46.18954" lon="-0.53412">
        <ele>70.4</ele>
        <time>2021-03-30T15:23:35Z</time>
      </trkpt>
      <trkpt lat="46.18986" lon="-0.53413">
        <ele>70.6</ele>
        <time>2021-03-30T15:23:40Z</time>
      </trkpt>
      <trkpt lat="46.18999" lon="-0.53413">
        <ele>70.6</ele>
        <time>2021-03-30T15:23:42Z</time>
      </trkpt>
      <trkpt lat="46.19006" lon="-0.53414">
        <ele>70.6</ele>
        <time>2021-03-30T15:23:43Z</time>
      </trkpt>
      <trkpt lat="46.19035" lon="-0.53418">
        <ele>70.6</ele>
        <time>2021-03-30T15:23:47Z</time>
      </trkpt>
      <trkpt lat="46.19085" lon="-0.53419">
        <ele>69.8</ele>
        <time>2021-03-30T15:23:53Z</time>
      </trkpt>
      <trkpt lat="46.19093" lon="-0.53419">
        <ele>69.4</ele>
        <time>2021-03-30T15:23:54Z</time>
      </trkpt>
      <trkpt lat="46.19146" lon="-0.53416">
        <ele>68.6</ele>
        <time>2021-03-30T15:24:00Z</time>
      </trkpt>
      <trkpt lat="46.19182" lon="-0.53416">
        <ele>68.2</ele>
        <time>2021-03-30T15:24:04Z</time>
      </trkpt>
      <trkpt lat="46.1921" lon="-0.53416">
        <ele>67.8</ele>
        <time>2021-03-30T15:24:07Z</time>
      </trkpt>
      <trkpt lat="46.19228" lon="-0.53414">
        <ele>67</ele>
        <time>2021-03-30T15:24:09Z</time>
      </trkpt>
      <trkpt lat="46.19264" lon="-0.53413">
        <ele>66</ele>
        <time>2021-03-30T15:24:13Z</time>
      </trkpt>
      <trkpt lat="46.19273" lon="-0.53413">
        <ele>65.8</ele>
        <time>2021-03-30T15:24:14Z</time>
      </trkpt>
      <trkpt lat="46.19301" lon="-0.53414">
        <ele>65.2</ele>
        <time>2021-03-30T15:24:17Z</time>
      </trkpt>
      <trkpt lat="46.19311" lon="-0.53414">
        <ele>64.6</ele>
        <time>2021-03-30T15:24:18Z</time>
      </trkpt>
      <trkpt lat="46.1933" lon="-0.53415">
        <ele>63.4</ele>
        <time>2021-03-30T15:24:20Z</time>
      </trkpt>
      <trkpt lat="46.19369" lon="-0.53416">
        <ele>61.6</ele>
        <time>2021-03-30T15:24:24Z</time>
      </trkpt>
      <trkpt lat="46.19378" lon="-0.53416">
        <ele>62</ele>
        <time>2021-03-30T15:24:25Z</time>
      </trkpt>
      <trkpt lat="46.19387" lon="-0.53415">
        <ele>61.4</ele>
        <time>2021-03-30T15:24:26Z</time>
      </trkpt>
      <trkpt lat="46.19416" lon="-0.53414">
        <ele>60.2</ele>
        <time>2021-03-30T15:24:29Z</time>
      </trkpt>
      <trkpt lat="46.19454" lon="-0.53414">
        <ele>59.6</ele>
        <time>2021-03-30T15:24:33Z</time>
      </trkpt>
      <trkpt lat="46.19464" lon="-0.53415">
        <ele>59.4</ele>
        <time>2021-03-30T15:24:34Z</time>
      </trkpt>
      <trkpt lat="46.19519" lon="-0.53416">
        <ele>58.4</ele>
        <time>2021-03-30T15:24:40Z</time>
      </trkpt>
      <trkpt lat="46.19528" lon="-0.53415">
        <ele>58</ele>
        <time>2021-03-30T15:24:41Z</time>
      </trkpt>
      <trkpt lat="46.19537" lon="-0.53414">
        <ele>57.6</ele>
        <time>2021-03-30T15:24:42Z</time>
      </trkpt>
      <trkpt lat="46.19547" lon="-0.53413">
        <ele>57.2</ele>
        <time>2021-03-30T15:24:43Z</time>
      </trkpt>
      <trkpt lat="46.19556" lon="-0.53412">
        <ele>57</ele>
        <time>2021-03-30T15:24:44Z</time>
      </trkpt>
      <trkpt lat="46.19582" lon="-0.53412">
        <ele>56.6</ele>
        <time>2021-03-30T15:24:47Z</time>
      </trkpt>
      <trkpt lat="46.1959" lon="-0.53411">
        <ele>56.4</ele>
        <time>2021-03-30T15:24:48Z</time>
      </trkpt>
      <trkpt lat="46.19598" lon="-0.53411">
        <ele>56.4</ele>
        <time>2021-03-30T15:24:49Z</time>
      </trkpt>
      <trkpt lat="46.19605" lon="-0.53411">
        <ele>56.4</ele>
        <time>2021-03-30T15:24:50Z</time>
      </trkpt>
      <trkpt lat="46.19613" lon="-0.5341">
        <ele>56.4</ele>
        <time>2021-03-30T15:24:51Z</time>
      </trkpt>
      <trkpt lat="46.1962" lon="-0.53406">
        <ele>56.4</ele>
        <time>2021-03-30T15:24:52Z</time>
      </trkpt>
      <trkpt lat="46.19659" lon="-0.53382">
        <ele>56</ele>
        <time>2021-03-30T15:24:57Z</time>
      </trkpt>
      <trkpt lat="46.19667" lon="-0.53378">
        <ele>55.8</ele>
        <time>2021-03-30T15:24:58Z</time>
      </trkpt>
      <trkpt lat="46.19709" lon="-0.53354">
        <ele>54.8</ele>
        <time>2021-03-30T15:25:03Z</time>
      </trkpt>
      <trkpt lat="46.19733" lon="-0.5334">
        <ele>54.2</ele>
        <time>2021-03-30T15:25:06Z</time>
      </trkpt>
      <trkpt lat="46.19781" lon="-0.53307">
        <ele>53.8</ele>
        <time>2021-03-30T15:25:12Z</time>
      </trkpt>
      <trkpt lat="46.19789" lon="-0.53301">
        <ele>53.6</ele>
        <time>2021-03-30T15:25:13Z</time>
      </trkpt>
      <trkpt lat="46.19843" lon="-0.53261">
        <ele>53.2</ele>
        <time>2021-03-30T15:25:20Z</time>
      </trkpt>
      <trkpt lat="46.19859" lon="-0.5325">
        <ele>53.2</ele>
        <time>2021-03-30T15:25:22Z</time>
      </trkpt>
      <trkpt lat="46.1988" lon="-0.53234">
        <ele>53.2</ele>
        <time>2021-03-30T15:25:25Z</time>
      </trkpt>
      <trkpt lat="46.19886" lon="-0.53229">
        <ele>53.2</ele>
        <time>2021-03-30T15:25:26Z</time>
      </trkpt>
      <trkpt lat="46.19893" lon="-0.53227">
        <ele>53.2</ele>
        <time>2021-03-30T15:25:27Z</time>
      </trkpt>
      <trkpt lat="46.19899" lon="-0.53228">
        <ele>53.2</ele>
        <time>2021-03-30T15:25:28Z</time>
      </trkpt>
      <trkpt lat="46.19904" lon="-0.53233">
        <ele>53.2</ele>
        <time>2021-03-30T15:25:29Z</time>
      </trkpt>
      <trkpt lat="46.19907" lon="-0.5324">
        <ele>53.2</ele>
        <time>2021-03-30T15:25:30Z</time>
      </trkpt>
      <trkpt lat="46.1991" lon="-0.53247">
        <ele>53.4</ele>
        <time>2021-03-30T15:25:31Z</time>
      </trkpt>
      <trkpt lat="46.19913" lon="-0.53255">
        <ele>53.4</ele>
        <time>2021-03-30T15:25:32Z</time>
      </trkpt>
      <trkpt lat="46.19917" lon="-0.53263">
        <ele>53.4</ele>
        <time>2021-03-30T15:25:33Z</time>
      </trkpt>
      <trkpt lat="46.1994" lon="-0.53311">
        <ele>53.8</ele>
        <time>2021-03-30T15:25:38Z</time>
      </trkpt>
      <trkpt lat="46.19949" lon="-0.5333">
        <ele>53.8</ele>
        <time>2021-03-30T15:25:40Z</time>
      </trkpt>
      <trkpt lat="46.19953" lon="-0.53339">
        <ele>53.8</ele>
        <time>2021-03-30T15:25:41Z</time>
      </trkpt>
      <trkpt lat="46.19957" lon="-0.53347">
        <ele>53.8</ele>
        <time>2021-03-30T15:25:42Z</time>
      </trkpt>
      <trkpt lat="46.1996" lon="-0.53355">
        <ele>53.8</ele>
        <time>2021-03-30T15:25:43Z</time>
      </trkpt>
      <trkpt lat="46.19964" lon="-0.5336">
        <ele>53.8</ele>
        <time>2021-03-30T15:25:44Z</time>
      </trkpt>
      <trkpt lat="46.19968" lon="-0.53361">
        <ele>53.8</ele>
        <time>2021-03-30T15:25:45Z</time>
      </trkpt>
      <trkpt lat="46.19972" lon="-0.53358">
        <ele>53.8</ele>
        <time>2021-03-30T15:25:46Z</time>
      </trkpt>
      <trkpt lat="46.19975" lon="-0.53352">
        <ele>53.8</ele>
        <time>2021-03-30T15:25:47Z</time>
      </trkpt>
      <trkpt lat="46.19994" lon="-0.53311">
        <ele>53.6</ele>
        <time>2021-03-30T15:25:52Z</time>
      </trkpt>
      <trkpt lat="46.20023" lon="-0.53253">
        <ele>53.4</ele>
        <time>2021-03-30T15:25:58Z</time>
      </trkpt>
      <trkpt lat="46.20043" lon="-0.53213">
        <ele>53.6</ele>
        <time>2021-03-30T15:26:02Z</time>
      </trkpt>
      <trkpt lat="46.20047" lon="-0.53202">
        <ele>53.6</ele>
        <time>2021-03-30T15:26:03Z</time>
      </trkpt>
      <trkpt lat="46.20051" lon="-0.53191">
        <ele>53.6</ele>
        <time>2021-03-30T15:26:04Z</time>
      </trkpt>
      <trkpt lat="46.20063" lon="-0.53173">
        <ele>53.6</ele>
        <time>2021-03-30T15:26:06Z</time>
      </trkpt>
      <trkpt lat="46.20077" lon="-0.53164">
        <ele>53.6</ele>
        <time>2021-03-30T15:26:08Z</time>
      </trkpt>
      <trkpt lat="46.20084" lon="-0.5316">
        <ele>53.8</ele>
        <time>2021-03-30T15:26:09Z</time>
      </trkpt>
      <trkpt lat="46.20092" lon="-0.53157">
        <ele>53.8</ele>
        <time>2021-03-30T15:26:10Z</time>
      </trkpt>
      <trkpt lat="46.20133" lon="-0.53144">
        <ele>54.2</ele>
        <time>2021-03-30T15:26:15Z</time>
      </trkpt>
      <trkpt lat="46.20158" lon="-0.53139">
        <ele>55</ele>
        <time>2021-03-30T15:26:18Z</time>
      </trkpt>
      <trkpt lat="46.20184" lon="-0.53138">
        <ele>55.2</ele>
        <time>2021-03-30T15:26:21Z</time>
      </trkpt>
      <trkpt lat="46.20227" lon="-0.53145">
        <ele>55.8</ele>
        <time>2021-03-30T15:26:26Z</time>
      </trkpt>
      <trkpt lat="46.20253" lon="-0.53153">
        <ele>55.8</ele>
        <time>2021-03-30T15:26:29Z</time>
      </trkpt>
      <trkpt lat="46.20279" lon="-0.53164">
        <ele>56</ele>
        <time>2021-03-30T15:26:32Z</time>
      </trkpt>
      <trkpt lat="46.20287" lon="-0.53167">
        <ele>56.2</ele>
        <time>2021-03-30T15:26:33Z</time>
      </trkpt>
      <trkpt lat="46.20322" lon="-0.53175">
        <ele>56.2</ele>
        <time>2021-03-30T15:26:37Z</time>
      </trkpt>
      <trkpt lat="46.20339" lon="-0.53177">
        <ele>56.4</ele>
        <time>2021-03-30T15:26:39Z</time>
      </trkpt>
      <trkpt lat="46.20364" lon="-0.53176">
        <ele>56.2</ele>
        <time>2021-03-30T15:26:42Z</time>
      </trkpt>
      <trkpt lat="46.20397" lon="-0.53175">
        <ele>56</ele>
        <time>2021-03-30T15:26:46Z</time>
      </trkpt>
      <trkpt lat="46.20405" lon="-0.53175">
        <ele>56</ele>
        <time>2021-03-30T15:26:47Z</time>
      </trkpt>
      <trkpt lat="46.20413" lon="-0.53176">
        <ele>56</ele>
        <time>2021-03-30T15:26:48Z</time>
      </trkpt>
      <trkpt lat="46.20422" lon="-0.53177">
        <ele>56</ele>
        <time>2021-03-30T15:26:49Z</time>
      </trkpt>
      <trkpt lat="46.2043" lon="-0.53178">
        <ele>56</ele>
        <time>2021-03-30T15:26:50Z</time>
      </trkpt>
      <trkpt lat="46.20491" lon="-0.53186">
        <ele>55.4</ele>
        <time>2021-03-30T15:26:57Z</time>
      </trkpt>
      <trkpt lat="46.205" lon="-0.53186">
        <ele>55.4</ele>
        <time>2021-03-30T15:26:58Z</time>
      </trkpt>
      <trkpt lat="46.20509" lon="-0.53186">
        <ele>55.4</ele>
        <time>2021-03-30T15:26:59Z</time>
      </trkpt>
      <trkpt lat="46.20544" lon="-0.53184">
        <ele>55</ele>
        <time>2021-03-30T15:27:03Z</time>
      </trkpt>
      <trkpt lat="46.20579" lon="-0.53181">
        <ele>54.2</ele>
        <time>2021-03-30T15:27:07Z</time>
      </trkpt>
      <trkpt lat="46.20588" lon="-0.5318">
        <ele>54</ele>
        <time>2021-03-30T15:27:08Z</time>
      </trkpt>
      <trkpt lat="46.2065" lon="-0.53173">
        <ele>53.4</ele>
        <time>2021-03-30T15:27:15Z</time>
      </trkpt>
      <trkpt lat="46.20676" lon="-0.53169">
        <ele>53.4</ele>
        <time>2021-03-30T15:27:18Z</time>
      </trkpt>
      <trkpt lat="46.20738" lon="-0.53158">
        <ele>53.2</ele>
        <time>2021-03-30T15:27:25Z</time>
      </trkpt>
      <trkpt lat="46.20783" lon="-0.53148">
        <ele>53</ele>
        <time>2021-03-30T15:27:30Z</time>
      </trkpt>
      <trkpt lat="46.20809" lon="-0.53144">
        <ele>52.8</ele>
        <time>2021-03-30T15:27:33Z</time>
      </trkpt>
      <trkpt lat="46.20826" lon="-0.5314">
        <ele>52.6</ele>
        <time>2021-03-30T15:27:35Z</time>
      </trkpt>
      <trkpt lat="46.20851" lon="-0.53134">
        <ele>52.2</ele>
        <time>2021-03-30T15:27:38Z</time>
      </trkpt>
      <trkpt lat="46.20859" lon="-0.53132">
        <ele>52</ele>
        <time>2021-03-30T15:27:39Z</time>
      </trkpt>
      <trkpt lat="46.20866" lon="-0.53129">
        <ele>51.8</ele>
        <time>2021-03-30T15:27:40Z</time>
      </trkpt>
      <trkpt lat="46.20873" lon="-0.53126">
        <ele>51.8</ele>
        <time>2021-03-30T15:27:41Z</time>
      </trkpt>
      <trkpt lat="46.20879" lon="-0.53123">
        <ele>51.8</ele>
        <time>2021-03-30T15:27:42Z</time>
      </trkpt>
      <trkpt lat="46.20884" lon="-0.5312">
        <ele>51.6</ele>
        <time>2021-03-30T15:27:43Z</time>
      </trkpt>
      <trkpt lat="46.20888" lon="-0.53117">
        <ele>51.6</ele>
        <time>2021-03-30T15:27:44Z</time>
      </trkpt>
      <trkpt lat="46.20893" lon="-0.53113">
        <ele>51.6</ele>
        <time>2021-03-30T15:27:45Z</time>
      </trkpt>
      <trkpt lat="46.20897" lon="-0.53111">
        <ele>51.4</ele>
        <time>2021-03-30T15:27:46Z</time>
      </trkpt>
      <trkpt lat="46.20902" lon="-0.53108">
        <ele>51.4</ele>
        <time>2021-03-30T15:27:47Z</time>
      </trkpt>
      <trkpt lat="46.20907" lon="-0.53105">
        <ele>51.4</ele>
        <time>2021-03-30T15:27:48Z</time>
      </trkpt>
      <trkpt lat="46.20922" lon="-0.53096">
        <ele>51.4</ele>
        <time>2021-03-30T15:27:51Z</time>
      </trkpt>
      <trkpt lat="46.20946" lon="-0.53082">
        <ele>51.2</ele>
        <time>2021-03-30T15:27:56Z</time>
      </trkpt>
      <trkpt lat="46.20963" lon="-0.53072">
        <ele>50.6</ele>
        <time>2021-03-30T15:27:59Z</time>
      </trkpt>
      <trkpt lat="46.20975" lon="-0.53065">
        <ele>50.2</ele>
        <time>2021-03-30T15:28:01Z</time>
      </trkpt>
      <trkpt lat="46.20987" lon="-0.53057">
        <ele>50</ele>
        <time>2021-03-30T15:28:03Z</time>
      </trkpt>
      <trkpt lat="46.20992" lon="-0.53054">
        <ele>50</ele>
        <time>2021-03-30T15:28:04Z</time>
      </trkpt>
      <trkpt lat="46.21012" lon="-0.53045">
        <ele>49.6</ele>
        <time>2021-03-30T15:28:07Z</time>
      </trkpt>
      <trkpt lat="46.2102" lon="-0.53043">
        <ele>49.6</ele>
        <time>2021-03-30T15:28:08Z</time>
      </trkpt>
      <trkpt lat="46.21046" lon="-0.53038">
        <ele>49</ele>
        <time>2021-03-30T15:28:11Z</time>
      </trkpt>
      <trkpt lat="46.21072" lon="-0.53033">
        <ele>48.4</ele>
        <time>2021-03-30T15:28:14Z</time>
      </trkpt>
      <trkpt lat="46.21081" lon="-0.53031">
        <ele>48.4</ele>
        <time>2021-03-30T15:28:15Z</time>
      </trkpt>
      <trkpt lat="46.21108" lon="-0.53024">
        <ele>47.4</ele>
        <time>2021-03-30T15:28:18Z</time>
      </trkpt>
      <trkpt lat="46.21117" lon="-0.53021">
        <ele>47.2</ele>
        <time>2021-03-30T15:28:19Z</time>
      </trkpt>
      <trkpt lat="46.21135" lon="-0.53013">
        <ele>46.2</ele>
        <time>2021-03-30T15:28:21Z</time>
      </trkpt>
      <trkpt lat="46.2115" lon="-0.52999">
        <ele>45.6</ele>
        <time>2021-03-30T15:28:23Z</time>
      </trkpt>
      <trkpt lat="46.21157" lon="-0.52991">
        <ele>45</ele>
        <time>2021-03-30T15:28:24Z</time>
      </trkpt>
      <trkpt lat="46.21162" lon="-0.52983">
        <ele>45</ele>
        <time>2021-03-30T15:28:25Z</time>
      </trkpt>
      <trkpt lat="46.21167" lon="-0.52975">
        <ele>44.8</ele>
        <time>2021-03-30T15:28:26Z</time>
      </trkpt>
      <trkpt lat="46.21172" lon="-0.52967">
        <ele>44.6</ele>
        <time>2021-03-30T15:28:27Z</time>
      </trkpt>
      <trkpt lat="46.21177" lon="-0.5296">
        <ele>44</ele>
        <time>2021-03-30T15:28:28Z</time>
      </trkpt>
      <trkpt lat="46.21181" lon="-0.52954">
        <ele>43.6</ele>
        <time>2021-03-30T15:28:29Z</time>
      </trkpt>
      <trkpt lat="46.21186" lon="-0.52948">
        <ele>43.4</ele>
        <time>2021-03-30T15:28:30Z</time>
      </trkpt>
      <trkpt lat="46.2119" lon="-0.52942">
        <ele>42.8</ele>
        <time>2021-03-30T15:28:31Z</time>
      </trkpt>
      <trkpt lat="46.21195" lon="-0.52936">
        <ele>42.6</ele>
        <time>2021-03-30T15:28:32Z</time>
      </trkpt>
      <trkpt lat="46.21199" lon="-0.52931">
        <ele>42.2</ele>
        <time>2021-03-30T15:28:33Z</time>
      </trkpt>
      <trkpt lat="46.21204" lon="-0.52926">
        <ele>41.8</ele>
        <time>2021-03-30T15:28:34Z</time>
      </trkpt>
      <trkpt lat="46.21208" lon="-0.52921">
        <ele>41.4</ele>
        <time>2021-03-30T15:28:35Z</time>
      </trkpt>
      <trkpt lat="46.21212" lon="-0.52916">
        <ele>41.2</ele>
        <time>2021-03-30T15:28:36Z</time>
      </trkpt>
      <trkpt lat="46.21214" lon="-0.52913">
        <ele>41</ele>
        <time>2021-03-30T15:28:37Z</time>
      </trkpt>
      <trkpt lat="46.21215" lon="-0.5291">
        <ele>41</ele>
        <time>2021-03-30T15:28:38Z</time>
      </trkpt>
      <trkpt lat="46.21215" lon="-0.52908">
        <ele>40.8</ele>
        <time>2021-03-30T15:28:39Z</time>
      </trkpt>
      <trkpt lat="46.21213" lon="-0.52905">
        <ele>40.8</ele>
        <time>2021-03-30T15:28:40Z</time>
      </trkpt>
      <trkpt lat="46.21211" lon="-0.52902">
        <ele>40.6</ele>
        <time>2021-03-30T15:28:41Z</time>
      </trkpt>
      <trkpt lat="46.21198" lon="-0.52883">
        <ele>40.4</ele>
        <time>2021-03-30T15:28:44Z</time>
      </trkpt>
      <trkpt lat="46.21163" lon="-0.52838">
        <ele>39.8</ele>
        <time>2021-03-30T15:28:50Z</time>
      </trkpt>
      <trkpt lat="46.21158" lon="-0.52832">
        <ele>39.8</ele>
        <time>2021-03-30T15:28:51Z</time>
      </trkpt>
      <trkpt lat="46.21154" lon="-0.52826">
        <ele>39.8</ele>
        <time>2021-03-30T15:28:52Z</time>
      </trkpt>
      <trkpt lat="46.21149" lon="-0.5282">
        <ele>39.6</ele>
        <time>2021-03-30T15:28:53Z</time>
      </trkpt>
      <trkpt lat="46.21145" lon="-0.52814">
        <ele>39.6</ele>
        <time>2021-03-30T15:28:54Z</time>
      </trkpt>
      <trkpt lat="46.21141" lon="-0.52808">
        <ele>39.6</ele>
        <time>2021-03-30T15:28:55Z</time>
      </trkpt>
      <trkpt lat="46.21139" lon="-0.52801">
        <ele>39.6</ele>
        <time>2021-03-30T15:28:56Z</time>
      </trkpt>
      <trkpt lat="46.21136" lon="-0.52794">
        <ele>39.6</ele>
        <time>2021-03-30T15:28:57Z</time>
      </trkpt>
      <trkpt lat="46.21133" lon="-0.52787">
        <ele>39.6</ele>
        <time>2021-03-30T15:28:58Z</time>
      </trkpt>
      <trkpt lat="46.21121" lon="-0.52762">
        <ele>39.2</ele>
        <time>2021-03-30T15:29:01Z</time>
      </trkpt>
      <trkpt lat="46.21105" lon="-0.52724">
        <ele>39</ele>
        <time>2021-03-30T15:29:05Z</time>
      </trkpt>
      <trkpt lat="46.21103" lon="-0.52713">
        <ele>39</ele>
        <time>2021-03-30T15:29:06Z</time>
      </trkpt>
      <trkpt lat="46.21098" lon="-0.52677">
        <ele>39</ele>
        <time>2021-03-30T15:29:09Z</time>
      </trkpt>
      <trkpt lat="46.21095" lon="-0.52653">
        <ele>38.8</ele>
        <time>2021-03-30T15:29:11Z</time>
      </trkpt>
      <trkpt lat="46.21092" lon="-0.5262">
        <ele>38.8</ele>
        <time>2021-03-30T15:29:14Z</time>
      </trkpt>
      <trkpt lat="46.2109" lon="-0.52611">
        <ele>38.8</ele>
        <time>2021-03-30T15:29:15Z</time>
      </trkpt>
      <trkpt lat="46.21089" lon="-0.52604">
        <ele>38.8</ele>
        <time>2021-03-30T15:29:16Z</time>
      </trkpt>
      <trkpt lat="46.21086" lon="-0.52597">
        <ele>38.8</ele>
        <time>2021-03-30T15:29:17Z</time>
      </trkpt>
      <trkpt lat="46.21083" lon="-0.52591">
        <ele>38.8</ele>
        <time>2021-03-30T15:29:18Z</time>
      </trkpt>
      <trkpt lat="46.21079" lon="-0.52585">
        <ele>38.8</ele>
        <time>2021-03-30T15:29:19Z</time>
      </trkpt>
      <trkpt lat="46.21075" lon="-0.5258">
        <ele>38.8</ele>
        <time>2021-03-30T15:29:20Z</time>
      </trkpt>
      <trkpt lat="46.21042" lon="-0.52544">
        <ele>39.6</ele>
        <time>2021-03-30T15:29:26Z</time>
      </trkpt>
      <trkpt lat="46.21036" lon="-0.52537">
        <ele>39.6</ele>
        <time>2021-03-30T15:29:27Z</time>
      </trkpt>
      <trkpt lat="46.21004" lon="-0.525">
        <ele>39.6</ele>
        <time>2021-03-30T15:29:33Z</time>
      </trkpt>
      <trkpt lat="46.20994" lon="-0.52489">
        <ele>39.6</ele>
        <time>2021-03-30T15:29:35Z</time>
      </trkpt>
      <trkpt lat="46.20989" lon="-0.52485">
        <ele>39.6</ele>
        <time>2021-03-30T15:29:36Z</time>
      </trkpt>
      <trkpt lat="46.20985" lon="-0.5248">
        <ele>39.6</ele>
        <time>2021-03-30T15:29:37Z</time>
      </trkpt>
      <trkpt lat="46.20982" lon="-0.52475">
        <ele>39.6</ele>
        <time>2021-03-30T15:29:38Z</time>
      </trkpt>
      <trkpt lat="46.20979" lon="-0.5247">
        <ele>39.6</ele>
        <time>2021-03-30T15:29:39Z</time>
      </trkpt>
      <trkpt lat="46.20976" lon="-0.52464">
        <ele>39.6</ele>
        <time>2021-03-30T15:29:40Z</time>
      </trkpt>
      <trkpt lat="46.20974" lon="-0.52457">
        <ele>39.6</ele>
        <time>2021-03-30T15:29:41Z</time>
      </trkpt>
      <trkpt lat="46.20967" lon="-0.52445">
        <ele>40</ele>
        <time>2021-03-30T15:29:43Z</time>
      </trkpt>
      <trkpt lat="46.20956" lon="-0.52427">
        <ele>40.4</ele>
        <time>2021-03-30T15:29:46Z</time>
      </trkpt>
      <trkpt lat="46.20951" lon="-0.52421">
        <ele>40.6</ele>
        <time>2021-03-30T15:29:47Z</time>
      </trkpt>
      <trkpt lat="46.20948" lon="-0.52416">
        <ele>40.8</ele>
        <time>2021-03-30T15:29:48Z</time>
      </trkpt>
      <trkpt lat="46.20945" lon="-0.5241">
        <ele>41</ele>
        <time>2021-03-30T15:29:49Z</time>
      </trkpt>
      <trkpt lat="46.20942" lon="-0.52405">
        <ele>41</ele>
        <time>2021-03-30T15:29:50Z</time>
      </trkpt>
      <trkpt lat="46.20939" lon="-0.524">
        <ele>41.2</ele>
        <time>2021-03-30T15:29:51Z</time>
      </trkpt>
      <trkpt lat="46.20929" lon="-0.52383">
        <ele>41.4</ele>
        <time>2021-03-30T15:29:54Z</time>
      </trkpt>
      <trkpt lat="46.20926" lon="-0.52378">
        <ele>41.6</ele>
        <time>2021-03-30T15:29:55Z</time>
      </trkpt>
      <trkpt lat="46.20923" lon="-0.52374">
        <ele>41.8</ele>
        <time>2021-03-30T15:29:56Z</time>
      </trkpt>
      <trkpt lat="46.20921" lon="-0.5237">
        <ele>42</ele>
        <time>2021-03-30T15:29:57Z</time>
      </trkpt>
      <trkpt lat="46.20919" lon="-0.52366">
        <ele>42.6</ele>
        <time>2021-03-30T15:29:58Z</time>
      </trkpt>
      <trkpt lat="46.20917" lon="-0.52362">
        <ele>42.8</ele>
        <time>2021-03-30T15:29:59Z</time>
      </trkpt>
      <trkpt lat="46.20916" lon="-0.5236">
        <ele>43.2</ele>
        <time>2021-03-30T15:30:00Z</time>
      </trkpt>
      <trkpt lat="46.20915" lon="-0.52359">
        <ele>43.4</ele>
        <time>2021-03-30T15:30:01Z</time>
      </trkpt>
      <trkpt lat="46.20914" lon="-0.52359">
        <ele>43.6</ele>
        <time>2021-03-30T15:30:02Z</time>
      </trkpt>
      <trkpt lat="46.20914" lon="-0.52359">
        <ele>44</ele>
        <time>2021-03-30T15:30:03Z</time>
      </trkpt>
      <trkpt lat="46.20914" lon="-0.52359">
        <ele>44.2</ele>
        <time>2021-03-30T15:30:04Z</time>
      </trkpt>
      <trkpt lat="46.20908" lon="-0.5237">
        <ele>44</ele>
        <time>2021-03-30T15:31:38Z</time>
      </trkpt>
      <trkpt lat="46.20906" lon="-0.52373">
        <ele>43.8</ele>
        <time>2021-03-30T15:31:39Z</time>
      </trkpt>
      <trkpt lat="46.20895" lon="-0.52388">
        <ele>43.6</ele>
        <time>2021-03-30T15:31:43Z</time>
      </trkpt>
      <trkpt lat="46.20895" lon="-0.52389">
        <ele>43.6</ele>
        <time>2021-03-30T15:31:44Z</time>
      </trkpt>
      <trkpt lat="46.20894" lon="-0.52389">
        <ele>43.4</ele>
        <time>2021-03-30T15:31:45Z</time>
      </trkpt>
      <trkpt lat="46.20899" lon="-0.52381">
        <ele>42</ele>
        <time>2021-03-30T15:32:03Z</time>
      </trkpt>
      <trkpt lat="46.20901" lon="-0.52377">
        <ele>42</ele>
        <time>2021-03-30T15:32:04Z</time>
      </trkpt>
      <trkpt lat="46.20904" lon="-0.52374">
        <ele>42</ele>
        <time>2021-03-30T15:32:05Z</time>
      </trkpt>
      <trkpt lat="46.20909" lon="-0.5237">
        <ele>42</ele>
        <time>2021-03-30T15:32:07Z</time>
      </trkpt>
      <trkpt lat="46.2091" lon="-0.5237">
        <ele>42</ele>
        <time>2021-03-30T15:32:08Z</time>
      </trkpt>
      <trkpt lat="46.20911" lon="-0.52371">
        <ele>42</ele>
        <time>2021-03-30T15:32:09Z</time>
      </trkpt>
      <trkpt lat="46.20911" lon="-0.52372">
        <ele>42</ele>
        <time>2021-03-30T15:32:10Z</time>
      </trkpt>
      <trkpt lat="46.2091" lon="-0.52374">
        <ele>42</ele>
        <time>2021-03-30T15:32:11Z</time>
      </trkpt>
      <trkpt lat="46.20909" lon="-0.52375">
        <ele>42</ele>
        <time>2021-03-30T15:32:12Z</time>
      </trkpt>
      <trkpt lat="46.20907" lon="-0.52385">
        <ele>42.6</ele>
        <time>2021-03-30T15:32:15Z</time>
      </trkpt>
      <trkpt lat="46.20908" lon="-0.52389">
        <ele>42.6</ele>
        <time>2021-03-30T15:32:16Z</time>
      </trkpt>
      <trkpt lat="46.20909" lon="-0.52393">
        <ele>42.6</ele>
        <time>2021-03-30T15:32:18Z</time>
      </trkpt>
      <trkpt lat="46.20909" lon="-0.52393">
        <ele>42.8</ele>
        <time>2021-03-30T15:32:19Z</time>
      </trkpt>
      <trkpt lat="46.20909" lon="-0.52393">
        <ele>42.8</ele>
        <time>2021-03-30T15:32:21Z</time>
      </trkpt>
      <trkpt lat="46.20912" lon="-0.52391">
        <ele>42.8</ele>
        <time>2021-03-30T15:32:24Z</time>
      </trkpt>
      <trkpt lat="46.20914" lon="-0.52389">
        <ele>42.8</ele>
        <time>2021-03-30T15:32:25Z</time>
      </trkpt>
      <trkpt lat="46.20916" lon="-0.52388">
        <ele>42.8</ele>
        <time>2021-03-30T15:32:26Z</time>
      </trkpt>
      <trkpt lat="46.20917" lon="-0.52389">
        <ele>42.8</ele>
        <time>2021-03-30T15:32:27Z</time>
      </trkpt>
      <trkpt lat="46.20919" lon="-0.52391">
        <ele>42.8</ele>
        <time>2021-03-30T15:32:28Z</time>
      </trkpt>
      <trkpt lat="46.20919" lon="-0.52394">
        <ele>42.8</ele>
        <time>2021-03-30T15:32:29Z</time>
      </trkpt>
      <trkpt lat="46.20919" lon="-0.52396">
        <ele>42.8</ele>
        <time>2021-03-30T15:32:30Z</time>
      </trkpt>
      <trkpt lat="46.20918" lon="-0.52398">
        <ele>42.8</ele>
        <time>2021-03-30T15:32:31Z</time>
      </trkpt>
      <trkpt lat="46.20914" lon="-0.52402">
        <ele>42.8</ele>
        <time>2021-03-30T15:32:33Z</time>
      </trkpt>
      <trkpt lat="46.20913" lon="-0.52405">
        <ele>42.8</ele>
        <time>2021-03-30T15:32:34Z</time>
      </trkpt>
      <trkpt lat="46.20912" lon="-0.52408">
        <ele>42.8</ele>
        <time>2021-03-30T15:32:35Z</time>
      </trkpt>
      <trkpt lat="46.20911" lon="-0.52412">
        <ele>42.8</ele>
        <time>2021-03-30T15:32:36Z</time>
      </trkpt>
      <trkpt lat="46.20912" lon="-0.52416">
        <ele>42.8</ele>
        <time>2021-03-30T15:32:37Z</time>
      </trkpt>
      <trkpt lat="46.20915" lon="-0.52425">
        <ele>42.6</ele>
        <time>2021-03-30T15:32:40Z</time>
      </trkpt>
      <trkpt lat="46.20915" lon="-0.52426">
        <ele>42.4</ele>
        <time>2021-03-30T15:32:41Z</time>
      </trkpt>
      <trkpt lat="46.20916" lon="-0.52426">
        <ele>42.4</ele>
        <time>2021-03-30T15:32:42Z</time>
      </trkpt>
      <trkpt lat="46.20916" lon="-0.52429">
        <ele>42.2</ele>
        <time>2021-03-30T15:32:43Z</time>
      </trkpt>
      <trkpt lat="46.20917" lon="-0.52433">
        <ele>42.2</ele>
        <time>2021-03-30T15:32:44Z</time>
      </trkpt>
      <trkpt lat="46.20919" lon="-0.52442">
        <ele>42.2</ele>
        <time>2021-03-30T15:32:46Z</time>
      </trkpt>
      <trkpt lat="46.20919" lon="-0.52446">
        <ele>42.2</ele>
        <time>2021-03-30T15:32:47Z</time>
      </trkpt>
      <trkpt lat="46.20924" lon="-0.52455">
        <ele>42</ele>
        <time>2021-03-30T15:32:50Z</time>
      </trkpt>
      <trkpt lat="46.20928" lon="-0.52455">
        <ele>42</ele>
        <time>2021-03-30T15:32:52Z</time>
      </trkpt>
      <trkpt lat="46.20933" lon="-0.5244">
        <ele>42</ele>
        <time>2021-03-30T15:32:56Z</time>
      </trkpt>
      <trkpt lat="46.20935" lon="-0.52436">
        <ele>42</ele>
        <time>2021-03-30T15:32:57Z</time>
      </trkpt>
      <trkpt lat="46.20938" lon="-0.52434">
        <ele>42</ele>
        <time>2021-03-30T15:32:58Z</time>
      </trkpt>
      <trkpt lat="46.20941" lon="-0.52432">
        <ele>42</ele>
        <time>2021-03-30T15:32:59Z</time>
      </trkpt>
      <trkpt lat="46.20943" lon="-0.52431">
        <ele>42</ele>
        <time>2021-03-30T15:33:00Z</time>
      </trkpt>
      <trkpt lat="46.20947" lon="-0.52431">
        <ele>42</ele>
        <time>2021-03-30T15:33:01Z</time>
      </trkpt>
      <trkpt lat="46.20949" lon="-0.52431">
        <ele>42</ele>
        <time>2021-03-30T15:33:02Z</time>
      </trkpt>
      <trkpt lat="46.20951" lon="-0.52431">
        <ele>42</ele>
        <time>2021-03-30T15:33:03Z</time>
      </trkpt>
      <trkpt lat="46.20952" lon="-0.5243">
        <ele>42</ele>
        <time>2021-03-30T15:33:04Z</time>
      </trkpt>
      <trkpt lat="46.20954" lon="-0.5243">
        <ele>42.2</ele>
        <time>2021-03-30T15:33:05Z</time>
      </trkpt>
      <trkpt lat="46.20954" lon="-0.5243">
        <ele>42.2</ele>
        <time>2021-03-30T15:33:06Z</time>
      </trkpt>
      <trkpt lat="46.20954" lon="-0.5243">
        <ele>42.4</ele>
        <time>2021-03-30T15:33:08Z</time>
      </trkpt>
      <trkpt lat="46.20952" lon="-0.52419">
        <ele>44.2</ele>
        <time>2021-03-30T15:34:29Z</time>
      </trkpt>
      <trkpt lat="46.2095" lon="-0.52416">
        <ele>44.2</ele>
        <time>2021-03-30T15:34:30Z</time>
      </trkpt>
      <trkpt lat="46.20949" lon="-0.52413">
        <ele>44.2</ele>
        <time>2021-03-30T15:34:31Z</time>
      </trkpt>
      <trkpt lat="46.2094" lon="-0.524">
        <ele>44.4</ele>
        <time>2021-03-30T15:34:35Z</time>
      </trkpt>
      <trkpt lat="46.20935" lon="-0.52394">
        <ele>44.4</ele>
        <time>2021-03-30T15:34:37Z</time>
      </trkpt>
      <trkpt lat="46.20933" lon="-0.5239">
        <ele>44.4</ele>
        <time>2021-03-30T15:34:38Z</time>
      </trkpt>
      <trkpt lat="46.20931" lon="-0.52387">
        <ele>44.4</ele>
        <time>2021-03-30T15:34:39Z</time>
      </trkpt>
      <trkpt lat="46.20929" lon="-0.52384">
        <ele>44.4</ele>
        <time>2021-03-30T15:34:40Z</time>
      </trkpt>
      <trkpt lat="46.20927" lon="-0.52382">
        <ele>44.4</ele>
        <time>2021-03-30T15:34:41Z</time>
      </trkpt>
      <trkpt lat="46.20925" lon="-0.52379">
        <ele>44.6</ele>
        <time>2021-03-30T15:34:42Z</time>
      </trkpt>
      <trkpt lat="46.20923" lon="-0.52376">
        <ele>44.6</ele>
        <time>2021-03-30T15:34:43Z</time>
      </trkpt>
      <trkpt lat="46.20922" lon="-0.52373">
        <ele>44.8</ele>
        <time>2021-03-30T15:34:44Z</time>
      </trkpt>
      <trkpt lat="46.2092" lon="-0.52371">
        <ele>44.8</ele>
        <time>2021-03-30T15:34:45Z</time>
      </trkpt>
      <trkpt lat="46.20919" lon="-0.52369">
        <ele>45</ele>
        <time>2021-03-30T15:34:46Z</time>
      </trkpt>
      <trkpt lat="46.20918" lon="-0.52366">
        <ele>45.2</ele>
        <time>2021-03-30T15:34:47Z</time>
      </trkpt>
      <trkpt lat="46.20916" lon="-0.52363">
        <ele>45.4</ele>
        <time>2021-03-30T15:34:48Z</time>
      </trkpt>
      <trkpt lat="46.20913" lon="-0.52353">
        <ele>45.4</ele>
        <time>2021-03-30T15:34:50Z</time>
      </trkpt>
      <trkpt lat="46.20908" lon="-0.52327">
        <ele>46</ele>
        <time>2021-03-30T15:34:54Z</time>
      </trkpt>
      <trkpt lat="46.20907" lon="-0.52321">
        <ele>46</ele>
        <time>2021-03-30T15:34:55Z</time>
      </trkpt>
      <trkpt lat="46.20905" lon="-0.52316">
        <ele>46</ele>
        <time>2021-03-30T15:34:56Z</time>
      </trkpt>
      <trkpt lat="46.20892" lon="-0.52295">
        <ele>46.2</ele>
        <time>2021-03-30T15:35:00Z</time>
      </trkpt>
      <trkpt lat="46.20882" lon="-0.52283">
        <ele>46.2</ele>
        <time>2021-03-30T15:35:03Z</time>
      </trkpt>
      <trkpt lat="46.20879" lon="-0.5228">
        <ele>46.2</ele>
        <time>2021-03-30T15:35:04Z</time>
      </trkpt>
      <trkpt lat="46.20877" lon="-0.52279">
        <ele>46.4</ele>
        <time>2021-03-30T15:35:05Z</time>
      </trkpt>
      <trkpt lat="46.20877" lon="-0.52278">
        <ele>46.6</ele>
        <time>2021-03-30T15:35:06Z</time>
      </trkpt>
      <trkpt lat="46.20877" lon="-0.52278">
        <ele>46.8</ele>
        <time>2021-03-30T15:35:08Z</time>
      </trkpt>
      <trkpt lat="46.20877" lon="-0.5227">
        <ele>47.8</ele>
        <time>2021-03-30T15:35:16Z</time>
      </trkpt>
      <trkpt lat="46.20879" lon="-0.52267">
        <ele>47.8</ele>
        <time>2021-03-30T15:35:17Z</time>
      </trkpt>
      <trkpt lat="46.20885" lon="-0.5226">
        <ele>47.8</ele>
        <time>2021-03-30T15:35:19Z</time>
      </trkpt>
      <trkpt lat="46.20888" lon="-0.52255">
        <ele>47.8</ele>
        <time>2021-03-30T15:35:20Z</time>
      </trkpt>
      <trkpt lat="46.20892" lon="-0.52248">
        <ele>47.8</ele>
        <time>2021-03-30T15:35:21Z</time>
      </trkpt>
      <trkpt lat="46.20909" lon="-0.52217">
        <ele>47.8</ele>
        <time>2021-03-30T15:35:25Z</time>
      </trkpt>
      <trkpt lat="46.20913" lon="-0.5221">
        <ele>47.8</ele>
        <time>2021-03-30T15:35:26Z</time>
      </trkpt>
      <trkpt lat="46.20917" lon="-0.52203">
        <ele>47.6</ele>
        <time>2021-03-30T15:35:27Z</time>
      </trkpt>
      <trkpt lat="46.2092" lon="-0.52197">
        <ele>47.6</ele>
        <time>2021-03-30T15:35:28Z</time>
      </trkpt>
      <trkpt lat="46.20924" lon="-0.5219">
        <ele>47.6</ele>
        <time>2021-03-30T15:35:29Z</time>
      </trkpt>
      <trkpt lat="46.20927" lon="-0.52185">
        <ele>47.6</ele>
        <time>2021-03-30T15:35:30Z</time>
      </trkpt>
      <trkpt lat="46.2093" lon="-0.5218">
        <ele>47.4</ele>
        <time>2021-03-30T15:35:31Z</time>
      </trkpt>
      <trkpt lat="46.20933" lon="-0.52175">
        <ele>47.4</ele>
        <time>2021-03-30T15:35:32Z</time>
      </trkpt>
      <trkpt lat="46.20935" lon="-0.52171">
        <ele>47.4</ele>
        <time>2021-03-30T15:35:33Z</time>
      </trkpt>
      <trkpt lat="46.20937" lon="-0.52168">
        <ele>47.4</ele>
        <time>2021-03-30T15:35:34Z</time>
      </trkpt>
      <trkpt lat="46.20938" lon="-0.52165">
        <ele>47.6</ele>
        <time>2021-03-30T15:35:35Z</time>
      </trkpt>
      <trkpt lat="46.20938" lon="-0.52163">
        <ele>47.8</ele>
        <time>2021-03-30T15:35:36Z</time>
      </trkpt>
      <trkpt lat="46.20938" lon="-0.52162">
        <ele>47.8</ele>
        <time>2021-03-30T15:35:37Z</time>
      </trkpt>
      <trkpt lat="46.20938" lon="-0.52162">
        <ele>47.8</ele>
        <time>2021-03-30T15:35:38Z</time>
      </trkpt>
      <trkpt lat="46.20938" lon="-0.52162">
        <ele>48.2</ele>
        <time>2021-03-30T15:35:39Z</time>
      </trkpt>
      <trkpt lat="46.20933" lon="-0.52164">
        <ele>50</ele>
        <time>2021-03-30T15:36:00Z</time>
      </trkpt>
      <trkpt lat="46.20931" lon="-0.52166">
        <ele>50</ele>
        <time>2021-03-30T15:36:01Z</time>
      </trkpt>
      <trkpt lat="46.20931" lon="-0.52169">
        <ele>50</ele>
        <time>2021-03-30T15:36:02Z</time>
      </trkpt>
      <trkpt lat="46.2093" lon="-0.52172">
        <ele>50</ele>
        <time>2021-03-30T15:36:03Z</time>
      </trkpt>
      <trkpt lat="46.20929" lon="-0.52174">
        <ele>50</ele>
        <time>2021-03-30T15:36:04Z</time>
      </trkpt>
      <trkpt lat="46.20926" lon="-0.52176">
        <ele>50</ele>
        <time>2021-03-30T15:36:05Z</time>
      </trkpt>
      <trkpt lat="46.20924" lon="-0.52178">
        <ele>50</ele>
        <time>2021-03-30T15:36:06Z</time>
      </trkpt>
      <trkpt lat="46.20922" lon="-0.5218">
        <ele>50</ele>
        <time>2021-03-30T15:36:07Z</time>
      </trkpt>
      <trkpt lat="46.20921" lon="-0.52182">
        <ele>50</ele>
        <time>2021-03-30T15:36:08Z</time>
      </trkpt>
      <trkpt lat="46.20918" lon="-0.52184">
        <ele>49.8</ele>
        <time>2021-03-30T15:36:09Z</time>
      </trkpt>
      <trkpt lat="46.20912" lon="-0.52189">
        <ele>49.8</ele>
        <time>2021-03-30T15:36:11Z</time>
      </trkpt>
      <trkpt lat="46.2091" lon="-0.52193">
        <ele>49.8</ele>
        <time>2021-03-30T15:36:13Z</time>
      </trkpt>
      <trkpt lat="46.20908" lon="-0.52194">
        <ele>49.6</ele>
        <time>2021-03-30T15:36:14Z</time>
      </trkpt>
      <trkpt lat="46.20905" lon="-0.52194">
        <ele>49.6</ele>
        <time>2021-03-30T15:36:15Z</time>
      </trkpt>
      <trkpt lat="46.20902" lon="-0.52195">
        <ele>49.6</ele>
        <time>2021-03-30T15:36:16Z</time>
      </trkpt>
      <trkpt lat="46.209" lon="-0.52195">
        <ele>49.6</ele>
        <time>2021-03-30T15:36:17Z</time>
      </trkpt>
      <trkpt lat="46.20899" lon="-0.52194">
        <ele>49.6</ele>
        <time>2021-03-30T15:36:18Z</time>
      </trkpt>
      <trkpt lat="46.20897" lon="-0.52193">
        <ele>49.6</ele>
        <time>2021-03-30T15:36:19Z</time>
      </trkpt>
      <trkpt lat="46.20895" lon="-0.52193">
        <ele>49.6</ele>
        <time>2021-03-30T15:36:20Z</time>
      </trkpt>
      <trkpt lat="46.20891" lon="-0.52193">
        <ele>49.6</ele>
        <time>2021-03-30T15:36:21Z</time>
      </trkpt>
      <trkpt lat="46.20886" lon="-0.52193">
        <ele>49.4</ele>
        <time>2021-03-30T15:36:23Z</time>
      </trkpt>
      <trkpt lat="46.20883" lon="-0.52192">
        <ele>49.4</ele>
        <time>2021-03-30T15:36:24Z</time>
      </trkpt>
      <trkpt lat="46.2088" lon="-0.52192">
        <ele>49.2</ele>
        <time>2021-03-30T15:36:25Z</time>
      </trkpt>
      <trkpt lat="46.20876" lon="-0.52192">
        <ele>49.2</ele>
        <time>2021-03-30T15:36:26Z</time>
      </trkpt>
      <trkpt lat="46.20866" lon="-0.52193">
        <ele>49.2</ele>
        <time>2021-03-30T15:36:29Z</time>
      </trkpt>
      <trkpt lat="46.20865" lon="-0.52193">
        <ele>49.2</ele>
        <time>2021-03-30T15:36:30Z</time>
      </trkpt>
      <trkpt lat="46.20864" lon="-0.52193">
        <ele>49.2</ele>
        <time>2021-03-30T15:36:31Z</time>
      </trkpt>
      <trkpt lat="46.20864" lon="-0.52193">
        <ele>49.2</ele>
        <time>2021-03-30T15:36:32Z</time>
      </trkpt>
      <trkpt lat="46.20862" lon="-0.52193">
        <ele>49.2</ele>
        <time>2021-03-30T15:36:33Z</time>
      </trkpt>
      <trkpt lat="46.20861" lon="-0.52193">
        <ele>49.2</ele>
        <time>2021-03-30T15:36:34Z</time>
      </trkpt>
      <trkpt lat="46.20859" lon="-0.52193">
        <ele>49.2</ele>
        <time>2021-03-30T15:36:35Z</time>
      </trkpt>
      <trkpt lat="46.20858" lon="-0.52193">
        <ele>49.2</ele>
        <time>2021-03-30T15:36:36Z</time>
      </trkpt>
      <trkpt lat="46.20858" lon="-0.52193">
        <ele>49.2</ele>
        <time>2021-03-30T15:36:37Z</time>
      </trkpt>
      <trkpt lat="46.20858" lon="-0.52193">
        <ele>49</ele>
        <time>2021-03-30T15:36:38Z</time>
      </trkpt>
      <trkpt lat="46.20854" lon="-0.52191">
        <ele>49</ele>
        <time>2021-03-30T15:36:59Z</time>
      </trkpt>
      <trkpt lat="46.20849" lon="-0.52191">
        <ele>49</ele>
        <time>2021-03-30T15:37:01Z</time>
      </trkpt>
      <trkpt lat="46.20848" lon="-0.52192">
        <ele>49</ele>
        <time>2021-03-30T15:37:02Z</time>
      </trkpt>
      <trkpt lat="46.20848" lon="-0.52193">
        <ele>49</ele>
        <time>2021-03-30T15:37:03Z</time>
      </trkpt>
      <trkpt lat="46.20847" lon="-0.52194">
        <ele>49</ele>
        <time>2021-03-30T15:37:04Z</time>
      </trkpt>
      <trkpt lat="46.20844" lon="-0.52194">
        <ele>49</ele>
        <time>2021-03-30T15:37:05Z</time>
      </trkpt>
      <trkpt lat="46.20837" lon="-0.52191">
        <ele>48.8</ele>
        <time>2021-03-30T15:37:08Z</time>
      </trkpt>
      <trkpt lat="46.20833" lon="-0.52194">
        <ele>48.6</ele>
        <time>2021-03-30T15:37:10Z</time>
      </trkpt>
      <trkpt lat="46.20829" lon="-0.52201">
        <ele>48.4</ele>
        <time>2021-03-30T15:37:12Z</time>
      </trkpt>
      <trkpt lat="46.20825" lon="-0.52204">
        <ele>48.4</ele>
        <time>2021-03-30T15:37:13Z</time>
      </trkpt>
      <trkpt lat="46.20819" lon="-0.5221">
        <ele>48.4</ele>
        <time>2021-03-30T15:37:15Z</time>
      </trkpt>
      <trkpt lat="46.20815" lon="-0.52217">
        <ele>48</ele>
        <time>2021-03-30T15:37:17Z</time>
      </trkpt>
      <trkpt lat="46.20814" lon="-0.52221">
        <ele>48</ele>
        <time>2021-03-30T15:37:18Z</time>
      </trkpt>
      <trkpt lat="46.20815" lon="-0.52225">
        <ele>48</ele>
        <time>2021-03-30T15:37:19Z</time>
      </trkpt>
      <trkpt lat="46.20816" lon="-0.52228">
        <ele>48</ele>
        <time>2021-03-30T15:37:20Z</time>
      </trkpt>
      <trkpt lat="46.20818" lon="-0.52229">
        <ele>47.8</ele>
        <time>2021-03-30T15:37:21Z</time>
      </trkpt>
      <trkpt lat="46.20824" lon="-0.52233">
        <ele>47.6</ele>
        <time>2021-03-30T15:37:23Z</time>
      </trkpt>
      <trkpt lat="46.20827" lon="-0.52234">
        <ele>47.4</ele>
        <time>2021-03-30T15:37:24Z</time>
      </trkpt>
      <trkpt lat="46.2083" lon="-0.52236">
        <ele>47.4</ele>
        <time>2021-03-30T15:37:25Z</time>
      </trkpt>
      <trkpt lat="46.20832" lon="-0.5224">
        <ele>47.2</ele>
        <time>2021-03-30T15:37:26Z</time>
      </trkpt>
      <trkpt lat="46.20831" lon="-0.52245">
        <ele>47</ele>
        <time>2021-03-30T15:37:27Z</time>
      </trkpt>
      <trkpt lat="46.20832" lon="-0.52249">
        <ele>47</ele>
        <time>2021-03-30T15:37:28Z</time>
      </trkpt>
      <trkpt lat="46.20831" lon="-0.52252">
        <ele>47</ele>
        <time>2021-03-30T15:37:29Z</time>
      </trkpt>
      <trkpt lat="46.2083" lon="-0.52253">
        <ele>46.8</ele>
        <time>2021-03-30T15:37:30Z</time>
      </trkpt>
      <trkpt lat="46.2083" lon="-0.52254">
        <ele>46.8</ele>
        <time>2021-03-30T15:37:31Z</time>
      </trkpt>
      <trkpt lat="46.20829" lon="-0.52256">
        <ele>46.8</ele>
        <time>2021-03-30T15:37:32Z</time>
      </trkpt>
      <trkpt lat="46.20825" lon="-0.52257">
        <ele>46.8</ele>
        <time>2021-03-30T15:37:33Z</time>
      </trkpt>
      <trkpt lat="46.20822" lon="-0.52258">
        <ele>46.6</ele>
        <time>2021-03-30T15:37:34Z</time>
      </trkpt>
      <trkpt lat="46.2082" lon="-0.52257">
        <ele>46.6</ele>
        <time>2021-03-30T15:37:35Z</time>
      </trkpt>
      <trkpt lat="46.20801" lon="-0.52255">
        <ele>46.4</ele>
        <time>2021-03-30T15:37:40Z</time>
      </trkpt>
      <trkpt lat="46.20797" lon="-0.52253">
        <ele>46.4</ele>
        <time>2021-03-30T15:37:42Z</time>
      </trkpt>
      <trkpt lat="46.20796" lon="-0.5225">
        <ele>46.2</ele>
        <time>2021-03-30T15:37:43Z</time>
      </trkpt>
      <trkpt lat="46.20796" lon="-0.52246">
        <ele>46</ele>
        <time>2021-03-30T15:37:44Z</time>
      </trkpt>
      <trkpt lat="46.20795" lon="-0.52237">
        <ele>45.8</ele>
        <time>2021-03-30T15:37:46Z</time>
      </trkpt>
      <trkpt lat="46.20792" lon="-0.52236">
        <ele>45.6</ele>
        <time>2021-03-30T15:37:47Z</time>
      </trkpt>
      <trkpt lat="46.20789" lon="-0.5223">
        <ele>45.6</ele>
        <time>2021-03-30T15:37:48Z</time>
      </trkpt>
      <trkpt lat="46.20787" lon="-0.52225">
        <ele>45.6</ele>
        <time>2021-03-30T15:37:49Z</time>
      </trkpt>
      <trkpt lat="46.20785" lon="-0.52222">
        <ele>45.6</ele>
        <time>2021-03-30T15:37:50Z</time>
      </trkpt>
      <trkpt lat="46.20781" lon="-0.52219">
        <ele>45.6</ele>
        <time>2021-03-30T15:37:51Z</time>
      </trkpt>
      <trkpt lat="46.20777" lon="-0.52215">
        <ele>45.6</ele>
        <time>2021-03-30T15:37:52Z</time>
      </trkpt>
      <trkpt lat="46.20777" lon="-0.52214">
        <ele>45.6</ele>
        <time>2021-03-30T15:37:53Z</time>
      </trkpt>
      <trkpt lat="46.20777" lon="-0.52214">
        <ele>45.8</ele>
        <time>2021-03-30T15:37:54Z</time>
      </trkpt>
      <trkpt lat="46.20777" lon="-0.52214">
        <ele>45.6</ele>
        <time>2021-03-30T15:37:55Z</time>
      </trkpt>
      <trkpt lat="46.20775" lon="-0.52203">
        <ele>46</ele>
        <time>2021-03-30T15:38:06Z</time>
      </trkpt>
      <trkpt lat="46.20778" lon="-0.52199">
        <ele>46</ele>
        <time>2021-03-30T15:38:08Z</time>
      </trkpt>
      <trkpt lat="46.20779" lon="-0.52196">
        <ele>46</ele>
        <time>2021-03-30T15:38:09Z</time>
      </trkpt>
      <trkpt lat="46.20779" lon="-0.52193">
        <ele>46</ele>
        <time>2021-03-30T15:38:10Z</time>
      </trkpt>
      <trkpt lat="46.2078" lon="-0.5219">
        <ele>46</ele>
        <time>2021-03-30T15:38:11Z</time>
      </trkpt>
      <trkpt lat="46.20781" lon="-0.52188">
        <ele>46</ele>
        <time>2021-03-30T15:38:12Z</time>
      </trkpt>
      <trkpt lat="46.20783" lon="-0.52187">
        <ele>46</ele>
        <time>2021-03-30T15:38:13Z</time>
      </trkpt>
      <trkpt lat="46.20785" lon="-0.52186">
        <ele>46</ele>
        <time>2021-03-30T15:38:14Z</time>
      </trkpt>
      <trkpt lat="46.20787" lon="-0.52186">
        <ele>46</ele>
        <time>2021-03-30T15:38:15Z</time>
      </trkpt>
      <trkpt lat="46.20792" lon="-0.52186">
        <ele>46.4</ele>
        <time>2021-03-30T15:38:17Z</time>
      </trkpt>
      <trkpt lat="46.20794" lon="-0.52184">
        <ele>46.4</ele>
        <time>2021-03-30T15:38:18Z</time>
      </trkpt>
      <trkpt lat="46.20796" lon="-0.52181">
        <ele>46.6</ele>
        <time>2021-03-30T15:38:19Z</time>
      </trkpt>
      <trkpt lat="46.20797" lon="-0.52176">
        <ele>46.8</ele>
        <time>2021-03-30T15:38:20Z</time>
      </trkpt>
      <trkpt lat="46.20797" lon="-0.52171">
        <ele>47</ele>
        <time>2021-03-30T15:38:21Z</time>
      </trkpt>
      <trkpt lat="46.20798" lon="-0.52166">
        <ele>47</ele>
        <time>2021-03-30T15:38:22Z</time>
      </trkpt>
      <trkpt lat="46.20799" lon="-0.52163">
        <ele>47</ele>
        <time>2021-03-30T15:38:23Z</time>
      </trkpt>
      <trkpt lat="46.20803" lon="-0.52157">
        <ele>47.2</ele>
        <time>2021-03-30T15:38:25Z</time>
      </trkpt>
      <trkpt lat="46.20806" lon="-0.52153">
        <ele>47.2</ele>
        <time>2021-03-30T15:38:26Z</time>
      </trkpt>
      <trkpt lat="46.20808" lon="-0.52152">
        <ele>47.2</ele>
        <time>2021-03-30T15:38:27Z</time>
      </trkpt>
      <trkpt lat="46.2081" lon="-0.52152">
        <ele>47.4</ele>
        <time>2021-03-30T15:38:28Z</time>
      </trkpt>
      <trkpt lat="46.20813" lon="-0.52151">
        <ele>47.4</ele>
        <time>2021-03-30T15:38:29Z</time>
      </trkpt>
      <trkpt lat="46.20815" lon="-0.5215">
        <ele>47.6</ele>
        <time>2021-03-30T15:38:30Z</time>
      </trkpt>
      <trkpt lat="46.2082" lon="-0.52146">
        <ele>47.8</ele>
        <time>2021-03-30T15:38:32Z</time>
      </trkpt>
      <trkpt lat="46.20823" lon="-0.52142">
        <ele>47.8</ele>
        <time>2021-03-30T15:38:33Z</time>
      </trkpt>
      <trkpt lat="46.20824" lon="-0.52136">
        <ele>47.8</ele>
        <time>2021-03-30T15:38:34Z</time>
      </trkpt>
      <trkpt lat="46.20827" lon="-0.52131">
        <ele>48.2</ele>
        <time>2021-03-30T15:38:35Z</time>
      </trkpt>
      <trkpt lat="46.20831" lon="-0.52125">
        <ele>48.4</ele>
        <time>2021-03-30T15:38:36Z</time>
      </trkpt>
      <trkpt lat="46.20834" lon="-0.52121">
        <ele>48.4</ele>
        <time>2021-03-30T15:38:37Z</time>
      </trkpt>
      <trkpt lat="46.20836" lon="-0.52118">
        <ele>48.6</ele>
        <time>2021-03-30T15:38:38Z</time>
      </trkpt>
      <trkpt lat="46.20849" lon="-0.52102">
        <ele>48.8</ele>
        <time>2021-03-30T15:38:42Z</time>
      </trkpt>
      <trkpt lat="46.20852" lon="-0.52099">
        <ele>48.8</ele>
        <time>2021-03-30T15:38:43Z</time>
      </trkpt>
      <trkpt lat="46.20855" lon="-0.52097">
        <ele>49</ele>
        <time>2021-03-30T15:38:44Z</time>
      </trkpt>
      <trkpt lat="46.20857" lon="-0.52096">
        <ele>49</ele>
        <time>2021-03-30T15:38:45Z</time>
      </trkpt>
      <trkpt lat="46.20859" lon="-0.52096">
        <ele>49</ele>
        <time>2021-03-30T15:38:46Z</time>
      </trkpt>
      <trkpt lat="46.20861" lon="-0.52093">
        <ele>49.2</ele>
        <time>2021-03-30T15:38:47Z</time>
      </trkpt>
      <trkpt lat="46.20873" lon="-0.52084">
        <ele>49.8</ele>
        <time>2021-03-30T15:38:52Z</time>
      </trkpt>
      <trkpt lat="46.20876" lon="-0.52079">
        <ele>50</ele>
        <time>2021-03-30T15:38:54Z</time>
      </trkpt>
      <trkpt lat="46.20878" lon="-0.52078">
        <ele>50.2</ele>
        <time>2021-03-30T15:38:55Z</time>
      </trkpt>
      <trkpt lat="46.20878" lon="-0.52078">
        <ele>50.2</ele>
        <time>2021-03-30T15:38:56Z</time>
      </trkpt>
      <trkpt lat="46.20878" lon="-0.52078">
        <ele>50.4</ele>
        <time>2021-03-30T15:38:58Z</time>
      </trkpt>
      <trkpt lat="46.20882" lon="-0.52088">
        <ele>51.2</ele>
        <time>2021-03-30T15:39:42Z</time>
      </trkpt>
      <trkpt lat="46.20885" lon="-0.52094">
        <ele>51.2</ele>
        <time>2021-03-30T15:39:43Z</time>
      </trkpt>
      <trkpt lat="46.20888" lon="-0.52099">
        <ele>51.2</ele>
        <time>2021-03-30T15:39:44Z</time>
      </trkpt>
      <trkpt lat="46.20895" lon="-0.52109">
        <ele>51</ele>
        <time>2021-03-30T15:39:46Z</time>
      </trkpt>
      <trkpt lat="46.20898" lon="-0.52113">
        <ele>51</ele>
        <time>2021-03-30T15:39:47Z</time>
      </trkpt>
      <trkpt lat="46.209" lon="-0.52115">
        <ele>51</ele>
        <time>2021-03-30T15:39:48Z</time>
      </trkpt>
      <trkpt lat="46.20903" lon="-0.52116">
        <ele>51</ele>
        <time>2021-03-30T15:39:49Z</time>
      </trkpt>
      <trkpt lat="46.20906" lon="-0.52115">
        <ele>50.8</ele>
        <time>2021-03-30T15:39:50Z</time>
      </trkpt>
      <trkpt lat="46.20909" lon="-0.52112">
        <ele>50.8</ele>
        <time>2021-03-30T15:39:51Z</time>
      </trkpt>
      <trkpt lat="46.20918" lon="-0.521">
        <ele>50.6</ele>
        <time>2021-03-30T15:39:54Z</time>
      </trkpt>
      <trkpt lat="46.20922" lon="-0.52096">
        <ele>50.6</ele>
        <time>2021-03-30T15:39:55Z</time>
      </trkpt>
      <trkpt lat="46.20939" lon="-0.52074">
        <ele>50.6</ele>
        <time>2021-03-30T15:40:00Z</time>
      </trkpt>
      <trkpt lat="46.20944" lon="-0.52066">
        <ele>50.6</ele>
        <time>2021-03-30T15:40:02Z</time>
      </trkpt>
      <trkpt lat="46.20947" lon="-0.52064">
        <ele>50.6</ele>
        <time>2021-03-30T15:40:03Z</time>
      </trkpt>
      <trkpt lat="46.20949" lon="-0.52063">
        <ele>50.6</ele>
        <time>2021-03-30T15:40:04Z</time>
      </trkpt>
      <trkpt lat="46.2095" lon="-0.52061">
        <ele>50.6</ele>
        <time>2021-03-30T15:40:05Z</time>
      </trkpt>
      <trkpt lat="46.2095" lon="-0.5206">
        <ele>50.6</ele>
        <time>2021-03-30T15:40:06Z</time>
      </trkpt>
      <trkpt lat="46.2095" lon="-0.5206">
        <ele>50.8</ele>
        <time>2021-03-30T15:40:08Z</time>
      </trkpt>
      <trkpt lat="46.20949" lon="-0.52074">
        <ele>52.2</ele>
        <time>2021-03-30T15:40:24Z</time>
      </trkpt>
      <trkpt lat="46.20949" lon="-0.52077">
        <ele>52.2</ele>
        <time>2021-03-30T15:40:25Z</time>
      </trkpt>
      <trkpt lat="46.20953" lon="-0.52085">
        <ele>52</ele>
        <time>2021-03-30T15:40:27Z</time>
      </trkpt>
      <trkpt lat="46.20955" lon="-0.52086">
        <ele>52</ele>
        <time>2021-03-30T15:40:28Z</time>
      </trkpt>
      <trkpt lat="46.20956" lon="-0.52087">
        <ele>52</ele>
        <time>2021-03-30T15:40:29Z</time>
      </trkpt>
      <trkpt lat="46.20958" lon="-0.52087">
        <ele>51.8</ele>
        <time>2021-03-30T15:40:30Z</time>
      </trkpt>
      <trkpt lat="46.2096" lon="-0.52088">
        <ele>51.6</ele>
        <time>2021-03-30T15:40:31Z</time>
      </trkpt>
      <trkpt lat="46.20962" lon="-0.52088">
        <ele>51.4</ele>
        <time>2021-03-30T15:40:32Z</time>
      </trkpt>
      <trkpt lat="46.20968" lon="-0.52085">
        <ele>51</ele>
        <time>2021-03-30T15:40:35Z</time>
      </trkpt>
      <trkpt lat="46.2097" lon="-0.52085">
        <ele>51</ele>
        <time>2021-03-30T15:40:36Z</time>
      </trkpt>
      <trkpt lat="46.20972" lon="-0.52087">
        <ele>50.8</ele>
        <time>2021-03-30T15:40:37Z</time>
      </trkpt>
      <trkpt lat="46.20973" lon="-0.52089">
        <ele>50.8</ele>
        <time>2021-03-30T15:40:38Z</time>
      </trkpt>
      <trkpt lat="46.20973" lon="-0.52091">
        <ele>50.8</ele>
        <time>2021-03-30T15:40:39Z</time>
      </trkpt>
      <trkpt lat="46.20973" lon="-0.52094">
        <ele>50.8</ele>
        <time>2021-03-30T15:40:40Z</time>
      </trkpt>
      <trkpt lat="46.20973" lon="-0.52097">
        <ele>50.6</ele>
        <time>2021-03-30T15:40:41Z</time>
      </trkpt>
      <trkpt lat="46.20974" lon="-0.521">
        <ele>50.6</ele>
        <time>2021-03-30T15:40:42Z</time>
      </trkpt>
      <trkpt lat="46.20975" lon="-0.52102">
        <ele>50.6</ele>
        <time>2021-03-30T15:40:43Z</time>
      </trkpt>
      <trkpt lat="46.20975" lon="-0.52102">
        <ele>50.4</ele>
        <time>2021-03-30T15:40:44Z</time>
      </trkpt>
      <trkpt lat="46.20975" lon="-0.52102">
        <ele>50.4</ele>
        <time>2021-03-30T15:40:46Z</time>
      </trkpt>
      <trkpt lat="46.20979" lon="-0.52109">
        <ele>50.2</ele>
        <time>2021-03-30T15:41:05Z</time>
      </trkpt>
      <trkpt lat="46.20983" lon="-0.52117">
        <ele>50.2</ele>
        <time>2021-03-30T15:41:07Z</time>
      </trkpt>
      <trkpt lat="46.20984" lon="-0.52121">
        <ele>50.2</ele>
        <time>2021-03-30T15:41:08Z</time>
      </trkpt>
      <trkpt lat="46.20984" lon="-0.52125">
        <ele>50.2</ele>
        <time>2021-03-30T15:41:09Z</time>
      </trkpt>
      <trkpt lat="46.20984" lon="-0.52128">
        <ele>50</ele>
        <time>2021-03-30T15:41:10Z</time>
      </trkpt>
      <trkpt lat="46.20983" lon="-0.5213">
        <ele>50</ele>
        <time>2021-03-30T15:41:11Z</time>
      </trkpt>
      <trkpt lat="46.20983" lon="-0.52131">
        <ele>50</ele>
        <time>2021-03-30T15:41:12Z</time>
      </trkpt>
      <trkpt lat="46.20982" lon="-0.52131">
        <ele>50</ele>
        <time>2021-03-30T15:41:13Z</time>
      </trkpt>
      <trkpt lat="46.2098" lon="-0.52131">
        <ele>49.8</ele>
        <time>2021-03-30T15:41:14Z</time>
      </trkpt>
      <trkpt lat="46.20978" lon="-0.52132">
        <ele>49.8</ele>
        <time>2021-03-30T15:41:15Z</time>
      </trkpt>
      <trkpt lat="46.20977" lon="-0.52133">
        <ele>49.6</ele>
        <time>2021-03-30T15:41:16Z</time>
      </trkpt>
      <trkpt lat="46.20977" lon="-0.52137">
        <ele>49.6</ele>
        <time>2021-03-30T15:41:18Z</time>
      </trkpt>
      <trkpt lat="46.20976" lon="-0.52138">
        <ele>49.6</ele>
        <time>2021-03-30T15:41:19Z</time>
      </trkpt>
      <trkpt lat="46.20976" lon="-0.52139">
        <ele>49.6</ele>
        <time>2021-03-30T15:41:20Z</time>
      </trkpt>
      <trkpt lat="46.20976" lon="-0.52141">
        <ele>49.6</ele>
        <time>2021-03-30T15:41:21Z</time>
      </trkpt>
      <trkpt lat="46.20976" lon="-0.52144">
        <ele>49.6</ele>
        <time>2021-03-30T15:41:22Z</time>
      </trkpt>
      <trkpt lat="46.20978" lon="-0.52149">
        <ele>49.4</ele>
        <time>2021-03-30T15:41:24Z</time>
      </trkpt>
      <trkpt lat="46.20979" lon="-0.52153">
        <ele>49.4</ele>
        <time>2021-03-30T15:41:25Z</time>
      </trkpt>
      <trkpt lat="46.20979" lon="-0.52157">
        <ele>49.4</ele>
        <time>2021-03-30T15:41:26Z</time>
      </trkpt>
      <trkpt lat="46.20978" lon="-0.52162">
        <ele>49.4</ele>
        <time>2021-03-30T15:41:27Z</time>
      </trkpt>
      <trkpt lat="46.20977" lon="-0.52165">
        <ele>49.4</ele>
        <time>2021-03-30T15:41:28Z</time>
      </trkpt>
      <trkpt lat="46.20975" lon="-0.52169">
        <ele>49.4</ele>
        <time>2021-03-30T15:41:29Z</time>
      </trkpt>
      <trkpt lat="46.20973" lon="-0.5217">
        <ele>49.4</ele>
        <time>2021-03-30T15:41:30Z</time>
      </trkpt>
      <trkpt lat="46.20961" lon="-0.5217">
        <ele>49.2</ele>
        <time>2021-03-30T15:41:33Z</time>
      </trkpt>
      <trkpt lat="46.20951" lon="-0.52165">
        <ele>49.2</ele>
        <time>2021-03-30T15:41:36Z</time>
      </trkpt>
      <trkpt lat="46.2095" lon="-0.52164">
        <ele>49.2</ele>
        <time>2021-03-30T15:41:37Z</time>
      </trkpt>
      <trkpt lat="46.2095" lon="-0.52164">
        <ele>49.2</ele>
        <time>2021-03-30T15:41:38Z</time>
      </trkpt>
      <trkpt lat="46.2095" lon="-0.52164">
        <ele>49.2</ele>
        <time>2021-03-30T15:41:40Z</time>
      </trkpt>
      <trkpt lat="46.20947" lon="-0.52162">
        <ele>49.6</ele>
        <time>2021-03-30T15:42:00Z</time>
      </trkpt>
      <trkpt lat="46.20945" lon="-0.52161">
        <ele>49.6</ele>
        <time>2021-03-30T15:42:01Z</time>
      </trkpt>
      <trkpt lat="46.20932" lon="-0.52144">
        <ele>49.6</ele>
        <time>2021-03-30T15:42:06Z</time>
      </trkpt>
      <trkpt lat="46.2092" lon="-0.52127">
        <ele>49.6</ele>
        <time>2021-03-30T15:42:09Z</time>
      </trkpt>
      <trkpt lat="46.20917" lon="-0.52123">
        <ele>49.6</ele>
        <time>2021-03-30T15:42:10Z</time>
      </trkpt>
      <trkpt lat="46.20916" lon="-0.52119">
        <ele>49.6</ele>
        <time>2021-03-30T15:42:11Z</time>
      </trkpt>
      <trkpt lat="46.20916" lon="-0.52115">
        <ele>49.6</ele>
        <time>2021-03-30T15:42:12Z</time>
      </trkpt>
      <trkpt lat="46.20918" lon="-0.52111">
        <ele>49.6</ele>
        <time>2021-03-30T15:42:13Z</time>
      </trkpt>
      <trkpt lat="46.20927" lon="-0.521">
        <ele>49.4</ele>
        <time>2021-03-30T15:42:16Z</time>
      </trkpt>
      <trkpt lat="46.20932" lon="-0.52095">
        <ele>49.4</ele>
        <time>2021-03-30T15:42:17Z</time>
      </trkpt>
      <trkpt lat="46.20936" lon="-0.52089">
        <ele>49.4</ele>
        <time>2021-03-30T15:42:18Z</time>
      </trkpt>
      <trkpt lat="46.20944" lon="-0.52076">
        <ele>49.4</ele>
        <time>2021-03-30T15:42:20Z</time>
      </trkpt>
      <trkpt lat="46.20953" lon="-0.52064">
        <ele>49.4</ele>
        <time>2021-03-30T15:42:22Z</time>
      </trkpt>
      <trkpt lat="46.20959" lon="-0.5206">
        <ele>49.4</ele>
        <time>2021-03-30T15:42:23Z</time>
      </trkpt>
      <trkpt lat="46.20965" lon="-0.52057">
        <ele>49.4</ele>
        <time>2021-03-30T15:42:24Z</time>
      </trkpt>
      <trkpt lat="46.20994" lon="-0.52041">
        <ele>49.4</ele>
        <time>2021-03-30T15:42:28Z</time>
      </trkpt>
      <trkpt lat="46.21018" lon="-0.52029">
        <ele>49.2</ele>
        <time>2021-03-30T15:42:31Z</time>
      </trkpt>
      <trkpt lat="46.21027" lon="-0.52025">
        <ele>49.2</ele>
        <time>2021-03-30T15:42:32Z</time>
      </trkpt>
      <trkpt lat="46.21042" lon="-0.52015">
        <ele>49.2</ele>
        <time>2021-03-30T15:42:34Z</time>
      </trkpt>
      <trkpt lat="46.21049" lon="-0.52012">
        <ele>49.2</ele>
        <time>2021-03-30T15:42:35Z</time>
      </trkpt>
      <trkpt lat="46.21055" lon="-0.52007">
        <ele>49.2</ele>
        <time>2021-03-30T15:42:36Z</time>
      </trkpt>
      <trkpt lat="46.21061" lon="-0.52004">
        <ele>49.2</ele>
        <time>2021-03-30T15:42:37Z</time>
      </trkpt>
      <trkpt lat="46.21066" lon="-0.52">
        <ele>49.2</ele>
        <time>2021-03-30T15:42:38Z</time>
      </trkpt>
      <trkpt lat="46.2107" lon="-0.51996">
        <ele>49.2</ele>
        <time>2021-03-30T15:42:39Z</time>
      </trkpt>
      <trkpt lat="46.21072" lon="-0.5199">
        <ele>49.2</ele>
        <time>2021-03-30T15:42:40Z</time>
      </trkpt>
      <trkpt lat="46.21073" lon="-0.51984">
        <ele>49.2</ele>
        <time>2021-03-30T15:42:41Z</time>
      </trkpt>
      <trkpt lat="46.21072" lon="-0.51977">
        <ele>49.2</ele>
        <time>2021-03-30T15:42:42Z</time>
      </trkpt>
      <trkpt lat="46.21069" lon="-0.51943">
        <ele>50</ele>
        <time>2021-03-30T15:42:46Z</time>
      </trkpt>
      <trkpt lat="46.21067" lon="-0.51893">
        <ele>50.2</ele>
        <time>2021-03-30T15:42:51Z</time>
      </trkpt>
      <trkpt lat="46.21065" lon="-0.51862">
        <ele>50.4</ele>
        <time>2021-03-30T15:42:54Z</time>
      </trkpt>
      <trkpt lat="46.21061" lon="-0.51778">
        <ele>50.6</ele>
        <time>2021-03-30T15:43:02Z</time>
      </trkpt>
      <trkpt lat="46.21059" lon="-0.51745">
        <ele>51.2</ele>
        <time>2021-03-30T15:43:05Z</time>
      </trkpt>
      <trkpt lat="46.21056" lon="-0.51682">
        <ele>52.2</ele>
        <time>2021-03-30T15:43:11Z</time>
      </trkpt>
      <trkpt lat="46.21055" lon="-0.51672">
        <ele>52.4</ele>
        <time>2021-03-30T15:43:12Z</time>
      </trkpt>
      <trkpt lat="46.21051" lon="-0.51618">
        <ele>53.4</ele>
        <time>2021-03-30T15:43:17Z</time>
      </trkpt>
      <trkpt lat="46.21051" lon="-0.51607">
        <ele>53.4</ele>
        <time>2021-03-30T15:43:18Z</time>
      </trkpt>
      <trkpt lat="46.2105" lon="-0.51597">
        <ele>53.8</ele>
        <time>2021-03-30T15:43:19Z</time>
      </trkpt>
      <trkpt lat="46.21049" lon="-0.51586">
        <ele>54</ele>
        <time>2021-03-30T15:43:20Z</time>
      </trkpt>
      <trkpt lat="46.21048" lon="-0.51575">
        <ele>54.2</ele>
        <time>2021-03-30T15:43:21Z</time>
      </trkpt>
      <trkpt lat="46.21048" lon="-0.51564">
        <ele>54.4</ele>
        <time>2021-03-30T15:43:22Z</time>
      </trkpt>
      <trkpt lat="46.21047" lon="-0.51553">
        <ele>54.4</ele>
        <time>2021-03-30T15:43:23Z</time>
      </trkpt>
      <trkpt lat="46.21046" lon="-0.51543">
        <ele>55</ele>
        <time>2021-03-30T15:43:24Z</time>
      </trkpt>
      <trkpt lat="46.21046" lon="-0.51532">
        <ele>55.2</ele>
        <time>2021-03-30T15:43:25Z</time>
      </trkpt>
      <trkpt lat="46.21045" lon="-0.51522">
        <ele>55.2</ele>
        <time>2021-03-30T15:43:26Z</time>
      </trkpt>
      <trkpt lat="46.21045" lon="-0.51511">
        <ele>55.4</ele>
        <time>2021-03-30T15:43:27Z</time>
      </trkpt>
      <trkpt lat="46.21044" lon="-0.51501">
        <ele>55.4</ele>
        <time>2021-03-30T15:43:28Z</time>
      </trkpt>
      <trkpt lat="46.21044" lon="-0.51491">
        <ele>55.6</ele>
        <time>2021-03-30T15:43:29Z</time>
      </trkpt>
      <trkpt lat="46.21043" lon="-0.51481">
        <ele>55.6</ele>
        <time>2021-03-30T15:43:30Z</time>
      </trkpt>
      <trkpt lat="46.21042" lon="-0.5147">
        <ele>55.6</ele>
        <time>2021-03-30T15:43:31Z</time>
      </trkpt>
      <trkpt lat="46.2104" lon="-0.51461">
        <ele>55.6</ele>
        <time>2021-03-30T15:43:32Z</time>
      </trkpt>
      <trkpt lat="46.21038" lon="-0.51453">
        <ele>55.8</ele>
        <time>2021-03-30T15:43:33Z</time>
      </trkpt>
      <trkpt lat="46.21034" lon="-0.5145">
        <ele>55.8</ele>
        <time>2021-03-30T15:43:34Z</time>
      </trkpt>
      <trkpt lat="46.21029" lon="-0.51448">
        <ele>56</ele>
        <time>2021-03-30T15:43:35Z</time>
      </trkpt>
      <trkpt lat="46.21024" lon="-0.51447">
        <ele>56</ele>
        <time>2021-03-30T15:43:36Z</time>
      </trkpt>
      <trkpt lat="46.21019" lon="-0.51447">
        <ele>56.2</ele>
        <time>2021-03-30T15:43:37Z</time>
      </trkpt>
      <trkpt lat="46.21014" lon="-0.51447">
        <ele>56.2</ele>
        <time>2021-03-30T15:43:38Z</time>
      </trkpt>
      <trkpt lat="46.21009" lon="-0.51447">
        <ele>56.2</ele>
        <time>2021-03-30T15:43:39Z</time>
      </trkpt>
      <trkpt lat="46.21004" lon="-0.51446">
        <ele>56.8</ele>
        <time>2021-03-30T15:43:40Z</time>
      </trkpt>
      <trkpt lat="46.20999" lon="-0.51444">
        <ele>57.8</ele>
        <time>2021-03-30T15:43:41Z</time>
      </trkpt>
      <trkpt lat="46.20995" lon="-0.5144">
        <ele>58.8</ele>
        <time>2021-03-30T15:43:42Z</time>
      </trkpt>
      <trkpt lat="46.20992" lon="-0.51434">
        <ele>59.4</ele>
        <time>2021-03-30T15:43:43Z</time>
      </trkpt>
      <trkpt lat="46.20991" lon="-0.51428">
        <ele>59.6</ele>
        <time>2021-03-30T15:43:44Z</time>
      </trkpt>
      <trkpt lat="46.2099" lon="-0.51421">
        <ele>59.8</ele>
        <time>2021-03-30T15:43:45Z</time>
      </trkpt>
      <trkpt lat="46.2099" lon="-0.51416">
        <ele>60</ele>
        <time>2021-03-30T15:43:46Z</time>
      </trkpt>
      <trkpt lat="46.2099" lon="-0.5141">
        <ele>60.2</ele>
        <time>2021-03-30T15:43:47Z</time>
      </trkpt>
      <trkpt lat="46.2099" lon="-0.51404">
        <ele>60.2</ele>
        <time>2021-03-30T15:43:48Z</time>
      </trkpt>
      <trkpt lat="46.20989" lon="-0.51399">
        <ele>60.4</ele>
        <time>2021-03-30T15:43:49Z</time>
      </trkpt>
      <trkpt lat="46.20988" lon="-0.51393">
        <ele>60.4</ele>
        <time>2021-03-30T15:43:50Z</time>
      </trkpt>
      <trkpt lat="46.20987" lon="-0.51386">
        <ele>60.6</ele>
        <time>2021-03-30T15:43:51Z</time>
      </trkpt>
      <trkpt lat="46.20986" lon="-0.51379">
        <ele>60.6</ele>
        <time>2021-03-30T15:43:52Z</time>
      </trkpt>
      <trkpt lat="46.20986" lon="-0.51372">
        <ele>60.6</ele>
        <time>2021-03-30T15:43:53Z</time>
      </trkpt>
      <trkpt lat="46.20986" lon="-0.51364">
        <ele>60.6</ele>
        <time>2021-03-30T15:43:54Z</time>
      </trkpt>
      <trkpt lat="46.20987" lon="-0.51356">
        <ele>60.6</ele>
        <time>2021-03-30T15:43:55Z</time>
      </trkpt>
      <trkpt lat="46.2099" lon="-0.51349">
        <ele>60.6</ele>
        <time>2021-03-30T15:43:56Z</time>
      </trkpt>
      <trkpt lat="46.20994" lon="-0.51342">
        <ele>60.6</ele>
        <time>2021-03-30T15:43:57Z</time>
      </trkpt>
      <trkpt lat="46.20998" lon="-0.51336">
        <ele>60.6</ele>
        <time>2021-03-30T15:43:58Z</time>
      </trkpt>
      <trkpt lat="46.21002" lon="-0.51329">
        <ele>60.6</ele>
        <time>2021-03-30T15:43:59Z</time>
      </trkpt>
      <trkpt lat="46.21007" lon="-0.51321">
        <ele>60.6</ele>
        <time>2021-03-30T15:44:00Z</time>
      </trkpt>
      <trkpt lat="46.21011" lon="-0.51314">
        <ele>60.4</ele>
        <time>2021-03-30T15:44:01Z</time>
      </trkpt>
      <trkpt lat="46.21016" lon="-0.51307">
        <ele>60.4</ele>
        <time>2021-03-30T15:44:02Z</time>
      </trkpt>
      <trkpt lat="46.2102" lon="-0.51299">
        <ele>60.4</ele>
        <time>2021-03-30T15:44:03Z</time>
      </trkpt>
      <trkpt lat="46.21024" lon="-0.5129">
        <ele>60.4</ele>
        <time>2021-03-30T15:44:04Z</time>
      </trkpt>
      <trkpt lat="46.21027" lon="-0.5128">
        <ele>60.4</ele>
        <time>2021-03-30T15:44:05Z</time>
      </trkpt>
      <trkpt lat="46.2103" lon="-0.5127">
        <ele>60.2</ele>
        <time>2021-03-30T15:44:06Z</time>
      </trkpt>
      <trkpt lat="46.21034" lon="-0.51261">
        <ele>60.2</ele>
        <time>2021-03-30T15:44:07Z</time>
      </trkpt>
      <trkpt lat="46.21037" lon="-0.5125">
        <ele>60.2</ele>
        <time>2021-03-30T15:44:08Z</time>
      </trkpt>
      <trkpt lat="46.2104" lon="-0.5124">
        <ele>60</ele>
        <time>2021-03-30T15:44:09Z</time>
      </trkpt>
      <trkpt lat="46.21052" lon="-0.51197">
        <ele>59.6</ele>
        <time>2021-03-30T15:44:13Z</time>
      </trkpt>
      <trkpt lat="46.21055" lon="-0.51175">
        <ele>59.4</ele>
        <time>2021-03-30T15:44:15Z</time>
      </trkpt>
      <trkpt lat="46.21055" lon="-0.51154">
        <ele>59.4</ele>
        <time>2021-03-30T15:44:17Z</time>
      </trkpt>
      <trkpt lat="46.21052" lon="-0.5112">
        <ele>59.4</ele>
        <time>2021-03-30T15:44:20Z</time>
      </trkpt>
      <trkpt lat="46.2105" lon="-0.5111">
        <ele>59.4</ele>
        <time>2021-03-30T15:44:21Z</time>
      </trkpt>
      <trkpt lat="46.21045" lon="-0.51089">
        <ele>59.6</ele>
        <time>2021-03-30T15:44:23Z</time>
      </trkpt>
      <trkpt lat="46.21039" lon="-0.51069">
        <ele>59.6</ele>
        <time>2021-03-30T15:44:25Z</time>
      </trkpt>
      <trkpt lat="46.2103" lon="-0.51041">
        <ele>60</ele>
        <time>2021-03-30T15:44:28Z</time>
      </trkpt>
      <trkpt lat="46.21004" lon="-0.50961">
        <ele>60.6</ele>
        <time>2021-03-30T15:44:36Z</time>
      </trkpt>
      <trkpt lat="46.20998" lon="-0.50941">
        <ele>60.8</ele>
        <time>2021-03-30T15:44:38Z</time>
      </trkpt>
      <trkpt lat="46.20993" lon="-0.5092">
        <ele>61</ele>
        <time>2021-03-30T15:44:40Z</time>
      </trkpt>
      <trkpt lat="46.20981" lon="-0.50869">
        <ele>61.6</ele>
        <time>2021-03-30T15:44:45Z</time>
      </trkpt>
      <trkpt lat="46.20979" lon="-0.50859">
        <ele>61.6</ele>
        <time>2021-03-30T15:44:46Z</time>
      </trkpt>
      <trkpt lat="46.20968" lon="-0.50798">
        <ele>62</ele>
        <time>2021-03-30T15:44:52Z</time>
      </trkpt>
      <trkpt lat="46.20966" lon="-0.50789">
        <ele>62.2</ele>
        <time>2021-03-30T15:44:53Z</time>
      </trkpt>
      <trkpt lat="46.20965" lon="-0.50781">
        <ele>62.2</ele>
        <time>2021-03-30T15:44:54Z</time>
      </trkpt>
      <trkpt lat="46.20964" lon="-0.50774">
        <ele>62.2</ele>
        <time>2021-03-30T15:44:55Z</time>
      </trkpt>
      <trkpt lat="46.20962" lon="-0.50767">
        <ele>62.2</ele>
        <time>2021-03-30T15:44:56Z</time>
      </trkpt>
      <trkpt lat="46.20961" lon="-0.50761">
        <ele>62.6</ele>
        <time>2021-03-30T15:44:57Z</time>
      </trkpt>
      <trkpt lat="46.2096" lon="-0.50756">
        <ele>62.6</ele>
        <time>2021-03-30T15:44:58Z</time>
      </trkpt>
      <trkpt lat="46.20959" lon="-0.5075">
        <ele>62.4</ele>
        <time>2021-03-30T15:44:59Z</time>
      </trkpt>
      <trkpt lat="46.20958" lon="-0.50744">
        <ele>62.8</ele>
        <time>2021-03-30T15:45:00Z</time>
      </trkpt>
      <trkpt lat="46.20956" lon="-0.50739">
        <ele>63</ele>
        <time>2021-03-30T15:45:01Z</time>
      </trkpt>
      <trkpt lat="46.20955" lon="-0.50734">
        <ele>63.2</ele>
        <time>2021-03-30T15:45:02Z</time>
      </trkpt>
      <trkpt lat="46.20954" lon="-0.50729">
        <ele>63.4</ele>
        <time>2021-03-30T15:45:03Z</time>
      </trkpt>
      <trkpt lat="46.2095" lon="-0.50711">
        <ele>63.6</ele>
        <time>2021-03-30T15:45:06Z</time>
      </trkpt>
      <trkpt lat="46.20949" lon="-0.50704">
        <ele>63.6</ele>
        <time>2021-03-30T15:45:07Z</time>
      </trkpt>
      <trkpt lat="46.20949" lon="-0.50698">
        <ele>63.8</ele>
        <time>2021-03-30T15:45:08Z</time>
      </trkpt>
      <trkpt lat="46.20948" lon="-0.50688">
        <ele>64.2</ele>
        <time>2021-03-30T15:45:10Z</time>
      </trkpt>
      <trkpt lat="46.20948" lon="-0.50683">
        <ele>64.4</ele>
        <time>2021-03-30T15:45:11Z</time>
      </trkpt>
      <trkpt lat="46.20948" lon="-0.50679">
        <ele>64.6</ele>
        <time>2021-03-30T15:45:12Z</time>
      </trkpt>
      <trkpt lat="46.20947" lon="-0.50674">
        <ele>64.6</ele>
        <time>2021-03-30T15:45:13Z</time>
      </trkpt>
      <trkpt lat="46.20946" lon="-0.50669">
        <ele>64.6</ele>
        <time>2021-03-30T15:45:14Z</time>
      </trkpt>
      <trkpt lat="46.20945" lon="-0.50662">
        <ele>64.8</ele>
        <time>2021-03-30T15:45:15Z</time>
      </trkpt>
      <trkpt lat="46.20943" lon="-0.50655">
        <ele>64.8</ele>
        <time>2021-03-30T15:45:16Z</time>
      </trkpt>
      <trkpt lat="46.20942" lon="-0.50647">
        <ele>64.8</ele>
        <time>2021-03-30T15:45:17Z</time>
      </trkpt>
      <trkpt lat="46.2094" lon="-0.50639">
        <ele>64.8</ele>
        <time>2021-03-30T15:45:18Z</time>
      </trkpt>
      <trkpt lat="46.20937" lon="-0.5063">
        <ele>64.8</ele>
        <time>2021-03-30T15:45:19Z</time>
      </trkpt>
      <trkpt lat="46.20935" lon="-0.5062">
        <ele>64.6</ele>
        <time>2021-03-30T15:45:20Z</time>
      </trkpt>
      <trkpt lat="46.20933" lon="-0.5061">
        <ele>64.4</ele>
        <time>2021-03-30T15:45:21Z</time>
      </trkpt>
      <trkpt lat="46.20931" lon="-0.506">
        <ele>64.4</ele>
        <time>2021-03-30T15:45:22Z</time>
      </trkpt>
      <trkpt lat="46.20924" lon="-0.50571">
        <ele>64.4</ele>
        <time>2021-03-30T15:45:25Z</time>
      </trkpt>
      <trkpt lat="46.20922" lon="-0.50562">
        <ele>64.4</ele>
        <time>2021-03-30T15:45:26Z</time>
      </trkpt>
      <trkpt lat="46.2092" lon="-0.50554">
        <ele>64.4</ele>
        <time>2021-03-30T15:45:27Z</time>
      </trkpt>
      <trkpt lat="46.20918" lon="-0.50547">
        <ele>64.6</ele>
        <time>2021-03-30T15:45:28Z</time>
      </trkpt>
      <trkpt lat="46.20915" lon="-0.50538">
        <ele>64.6</ele>
        <time>2021-03-30T15:45:29Z</time>
      </trkpt>
      <trkpt lat="46.20905" lon="-0.50491">
        <ele>64.4</ele>
        <time>2021-03-30T15:45:34Z</time>
      </trkpt>
      <trkpt lat="46.20895" lon="-0.50426">
        <ele>64</ele>
        <time>2021-03-30T15:45:40Z</time>
      </trkpt>
      <trkpt lat="46.20894" lon="-0.50417">
        <ele>64</ele>
        <time>2021-03-30T15:45:41Z</time>
      </trkpt>
      <trkpt lat="46.20893" lon="-0.50409">
        <ele>64</ele>
        <time>2021-03-30T15:45:42Z</time>
      </trkpt>
      <trkpt lat="46.20892" lon="-0.504">
        <ele>64</ele>
        <time>2021-03-30T15:45:43Z</time>
      </trkpt>
      <trkpt lat="46.20891" lon="-0.50391">
        <ele>64</ele>
        <time>2021-03-30T15:45:44Z</time>
      </trkpt>
      <trkpt lat="46.20886" lon="-0.50354">
        <ele>64</ele>
        <time>2021-03-30T15:45:48Z</time>
      </trkpt>
      <trkpt lat="46.20874" lon="-0.50277">
        <ele>64.2</ele>
        <time>2021-03-30T15:45:56Z</time>
      </trkpt>
      <trkpt lat="46.20858" lon="-0.50198">
        <ele>64.2</ele>
        <time>2021-03-30T15:46:04Z</time>
      </trkpt>
      <trkpt lat="46.20853" lon="-0.50169">
        <ele>64.2</ele>
        <time>2021-03-30T15:46:07Z</time>
      </trkpt>
      <trkpt lat="46.20852" lon="-0.50161">
        <ele>64.2</ele>
        <time>2021-03-30T15:46:08Z</time>
      </trkpt>
      <trkpt lat="46.20851" lon="-0.50153">
        <ele>64.2</ele>
        <time>2021-03-30T15:46:09Z</time>
      </trkpt>
      <trkpt lat="46.20849" lon="-0.50145">
        <ele>64.2</ele>
        <time>2021-03-30T15:46:10Z</time>
      </trkpt>
      <trkpt lat="46.20848" lon="-0.50136">
        <ele>64.2</ele>
        <time>2021-03-30T15:46:11Z</time>
      </trkpt>
      <trkpt lat="46.20845" lon="-0.50111">
        <ele>64.4</ele>
        <time>2021-03-30T15:46:14Z</time>
      </trkpt>
      <trkpt lat="46.20845" lon="-0.50103">
        <ele>64.6</ele>
        <time>2021-03-30T15:46:15Z</time>
      </trkpt>
      <trkpt lat="46.20844" lon="-0.50096">
        <ele>64.6</ele>
        <time>2021-03-30T15:46:16Z</time>
      </trkpt>
      <trkpt lat="46.20844" lon="-0.50089">
        <ele>64.8</ele>
        <time>2021-03-30T15:46:17Z</time>
      </trkpt>
      <trkpt lat="46.20844" lon="-0.50084">
        <ele>65</ele>
        <time>2021-03-30T15:46:18Z</time>
      </trkpt>
      <trkpt lat="46.20844" lon="-0.50079">
        <ele>65</ele>
        <time>2021-03-30T15:46:19Z</time>
      </trkpt>
      <trkpt lat="46.20844" lon="-0.50076">
        <ele>65</ele>
        <time>2021-03-30T15:46:20Z</time>
      </trkpt>
      <trkpt lat="46.20844" lon="-0.50073">
        <ele>65</ele>
        <time>2021-03-30T15:46:21Z</time>
      </trkpt>
      <trkpt lat="46.20844" lon="-0.50071">
        <ele>65.2</ele>
        <time>2021-03-30T15:46:22Z</time>
      </trkpt>
      <trkpt lat="46.20844" lon="-0.50071">
        <ele>65.2</ele>
        <time>2021-03-30T15:46:23Z</time>
      </trkpt>
      <trkpt lat="46.20844" lon="-0.50071">
        <ele>65.6</ele>
        <time>2021-03-30T15:46:24Z</time>
      </trkpt>
      <trkpt lat="46.20849" lon="-0.50075">
        <ele>67.6</ele>
        <time>2021-03-30T15:46:50Z</time>
      </trkpt>
      <trkpt lat="46.20851" lon="-0.50076">
        <ele>67.6</ele>
        <time>2021-03-30T15:46:51Z</time>
      </trkpt>
      <trkpt lat="46.20853" lon="-0.50077">
        <ele>67.6</ele>
        <time>2021-03-30T15:46:52Z</time>
      </trkpt>
      <trkpt lat="46.20856" lon="-0.50074">
        <ele>67.6</ele>
        <time>2021-03-30T15:46:54Z</time>
      </trkpt>
      <trkpt lat="46.2086" lon="-0.5007">
        <ele>67.6</ele>
        <time>2021-03-30T15:46:56Z</time>
      </trkpt>
      <trkpt lat="46.20861" lon="-0.50069">
        <ele>67.4</ele>
        <time>2021-03-30T15:46:57Z</time>
      </trkpt>
      <trkpt lat="46.20863" lon="-0.50069">
        <ele>67.4</ele>
        <time>2021-03-30T15:46:58Z</time>
      </trkpt>
      <trkpt lat="46.20865" lon="-0.50068">
        <ele>67.4</ele>
        <time>2021-03-30T15:46:59Z</time>
      </trkpt>
      <trkpt lat="46.20871" lon="-0.50066">
        <ele>67.4</ele>
        <time>2021-03-30T15:47:01Z</time>
      </trkpt>
      <trkpt lat="46.20872" lon="-0.50064">
        <ele>67.4</ele>
        <time>2021-03-30T15:47:02Z</time>
      </trkpt>
      <trkpt lat="46.20873" lon="-0.50063">
        <ele>67.4</ele>
        <time>2021-03-30T15:47:03Z</time>
      </trkpt>
      <trkpt lat="46.20874" lon="-0.5006">
        <ele>67.2</ele>
        <time>2021-03-30T15:47:04Z</time>
      </trkpt>
      <trkpt lat="46.20875" lon="-0.50057">
        <ele>67.2</ele>
        <time>2021-03-30T15:47:05Z</time>
      </trkpt>
      <trkpt lat="46.20876" lon="-0.50056">
        <ele>67.2</ele>
        <time>2021-03-30T15:47:06Z</time>
      </trkpt>
      <trkpt lat="46.20877" lon="-0.50055">
        <ele>67.2</ele>
        <time>2021-03-30T15:47:07Z</time>
      </trkpt>
      <trkpt lat="46.20877" lon="-0.50055">
        <ele>67.2</ele>
        <time>2021-03-30T15:47:08Z</time>
      </trkpt>
      <trkpt lat="46.20877" lon="-0.50055">
        <ele>67</ele>
        <time>2021-03-30T15:47:10Z</time>
      </trkpt>
      <trkpt lat="46.20886" lon="-0.5005">
        <ele>66.8</ele>
        <time>2021-03-30T15:47:27Z</time>
      </trkpt>
      <trkpt lat="46.20887" lon="-0.50049">
        <ele>66.8</ele>
        <time>2021-03-30T15:47:28Z</time>
      </trkpt>
      <trkpt lat="46.20891" lon="-0.50048">
        <ele>66.8</ele>
        <time>2021-03-30T15:47:30Z</time>
      </trkpt>
      <trkpt lat="46.20894" lon="-0.50046">
        <ele>66.6</ele>
        <time>2021-03-30T15:47:32Z</time>
      </trkpt>
      <trkpt lat="46.20896" lon="-0.50044">
        <ele>66.4</ele>
        <time>2021-03-30T15:47:33Z</time>
      </trkpt>
      <trkpt lat="46.20898" lon="-0.50043">
        <ele>66.4</ele>
        <time>2021-03-30T15:47:34Z</time>
      </trkpt>
      <trkpt lat="46.20901" lon="-0.50041">
        <ele>66.2</ele>
        <time>2021-03-30T15:47:35Z</time>
      </trkpt>
      <trkpt lat="46.20903" lon="-0.50041">
        <ele>66.2</ele>
        <time>2021-03-30T15:47:36Z</time>
      </trkpt>
      <trkpt lat="46.20905" lon="-0.5004">
        <ele>66</ele>
        <time>2021-03-30T15:47:37Z</time>
      </trkpt>
      <trkpt lat="46.20907" lon="-0.50038">
        <ele>66</ele>
        <time>2021-03-30T15:47:38Z</time>
      </trkpt>
      <trkpt lat="46.20909" lon="-0.50036">
        <ele>66.2</ele>
        <time>2021-03-30T15:47:39Z</time>
      </trkpt>
      <trkpt lat="46.20914" lon="-0.5003">
        <ele>65.8</ele>
        <time>2021-03-30T15:47:41Z</time>
      </trkpt>
      <trkpt lat="46.20916" lon="-0.50027">
        <ele>65.6</ele>
        <time>2021-03-30T15:47:42Z</time>
      </trkpt>
      <trkpt lat="46.20918" lon="-0.50024">
        <ele>65.4</ele>
        <time>2021-03-30T15:47:43Z</time>
      </trkpt>
      <trkpt lat="46.2092" lon="-0.5002">
        <ele>65.4</ele>
        <time>2021-03-30T15:47:44Z</time>
      </trkpt>
      <trkpt lat="46.20918" lon="-0.5">
        <ele>65</ele>
        <time>2021-03-30T15:47:49Z</time>
      </trkpt>
      <trkpt lat="46.20917" lon="-0.49996">
        <ele>65.2</ele>
        <time>2021-03-30T15:47:50Z</time>
      </trkpt>
      <trkpt lat="46.20917" lon="-0.49991">
        <ele>65</ele>
        <time>2021-03-30T15:47:51Z</time>
      </trkpt>
      <trkpt lat="46.20918" lon="-0.49989">
        <ele>65.2</ele>
        <time>2021-03-30T15:47:52Z</time>
      </trkpt>
      <trkpt lat="46.20919" lon="-0.49988">
        <ele>65.2</ele>
        <time>2021-03-30T15:47:53Z</time>
      </trkpt>
      <trkpt lat="46.20921" lon="-0.49987">
        <ele>65.2</ele>
        <time>2021-03-30T15:47:54Z</time>
      </trkpt>
      <trkpt lat="46.20922" lon="-0.49987">
        <ele>65.2</ele>
        <time>2021-03-30T15:47:55Z</time>
      </trkpt>
      <trkpt lat="46.20922" lon="-0.49989">
        <ele>65.2</ele>
        <time>2021-03-30T15:47:56Z</time>
      </trkpt>
      <trkpt lat="46.20923" lon="-0.49991">
        <ele>65.2</ele>
        <time>2021-03-30T15:47:57Z</time>
      </trkpt>
      <trkpt lat="46.20927" lon="-0.49997">
        <ele>65.2</ele>
        <time>2021-03-30T15:47:59Z</time>
      </trkpt>
      <trkpt lat="46.20929" lon="-0.5">
        <ele>65.2</ele>
        <time>2021-03-30T15:48:00Z</time>
      </trkpt>
      <trkpt lat="46.2093" lon="-0.50003">
        <ele>65.2</ele>
        <time>2021-03-30T15:48:01Z</time>
      </trkpt>
      <trkpt lat="46.20933" lon="-0.50015">
        <ele>65</ele>
        <time>2021-03-30T15:48:04Z</time>
      </trkpt>
      <trkpt lat="46.20935" lon="-0.50018">
        <ele>64.8</ele>
        <time>2021-03-30T15:48:05Z</time>
      </trkpt>
      <trkpt lat="46.20938" lon="-0.50017">
        <ele>64.6</ele>
        <time>2021-03-30T15:48:07Z</time>
      </trkpt>
      <trkpt lat="46.20939" lon="-0.50014">
        <ele>64.6</ele>
        <time>2021-03-30T15:48:08Z</time>
      </trkpt>
      <trkpt lat="46.20938" lon="-0.50012">
        <ele>64.6</ele>
        <time>2021-03-30T15:48:09Z</time>
      </trkpt>
      <trkpt lat="46.20937" lon="-0.50008">
        <ele>64.6</ele>
        <time>2021-03-30T15:48:10Z</time>
      </trkpt>
      <trkpt lat="46.20937" lon="-0.50005">
        <ele>64.4</ele>
        <time>2021-03-30T15:48:11Z</time>
      </trkpt>
      <trkpt lat="46.20937" lon="-0.50001">
        <ele>64.4</ele>
        <time>2021-03-30T15:48:13Z</time>
      </trkpt>
      <trkpt lat="46.20938" lon="-0.5">
        <ele>64.4</ele>
        <time>2021-03-30T15:48:14Z</time>
      </trkpt>
      <trkpt lat="46.20939" lon="-0.50001">
        <ele>64.4</ele>
        <time>2021-03-30T15:48:15Z</time>
      </trkpt>
      <trkpt lat="46.2094" lon="-0.50002">
        <ele>64.4</ele>
        <time>2021-03-30T15:48:16Z</time>
      </trkpt>
      <trkpt lat="46.2094" lon="-0.50004">
        <ele>64.4</ele>
        <time>2021-03-30T15:48:17Z</time>
      </trkpt>
      <trkpt lat="46.20944" lon="-0.50012">
        <ele>64.4</ele>
        <time>2021-03-30T15:48:20Z</time>
      </trkpt>
      <trkpt lat="46.20945" lon="-0.50014">
        <ele>64.4</ele>
        <time>2021-03-30T15:48:21Z</time>
      </trkpt>
      <trkpt lat="46.20946" lon="-0.50015">
        <ele>64.4</ele>
        <time>2021-03-30T15:48:22Z</time>
      </trkpt>
      <trkpt lat="46.20947" lon="-0.50016">
        <ele>64.4</ele>
        <time>2021-03-30T15:48:23Z</time>
      </trkpt>
      <trkpt lat="46.20948" lon="-0.50016">
        <ele>64.4</ele>
        <time>2021-03-30T15:48:24Z</time>
      </trkpt>
      <trkpt lat="46.20954" lon="-0.50013">
        <ele>64.4</ele>
        <time>2021-03-30T15:48:27Z</time>
      </trkpt>
      <trkpt lat="46.20955" lon="-0.5001">
        <ele>64.4</ele>
        <time>2021-03-30T15:48:28Z</time>
      </trkpt>
      <trkpt lat="46.20948" lon="-0.49998">
        <ele>64.2</ele>
        <time>2021-03-30T15:48:31Z</time>
      </trkpt>
      <trkpt lat="46.20933" lon="-0.49973">
        <ele>64</ele>
        <time>2021-03-30T15:48:35Z</time>
      </trkpt>
      <trkpt lat="46.20915" lon="-0.49941">
        <ele>63.6</ele>
        <time>2021-03-30T15:48:39Z</time>
      </trkpt>
      <trkpt lat="46.2091" lon="-0.49933">
        <ele>63.4</ele>
        <time>2021-03-30T15:48:40Z</time>
      </trkpt>
      <trkpt lat="46.20906" lon="-0.49926">
        <ele>63.2</ele>
        <time>2021-03-30T15:48:41Z</time>
      </trkpt>
      <trkpt lat="46.20902" lon="-0.49918">
        <ele>63</ele>
        <time>2021-03-30T15:48:42Z</time>
      </trkpt>
      <trkpt lat="46.20899" lon="-0.4991">
        <ele>63</ele>
        <time>2021-03-30T15:48:43Z</time>
      </trkpt>
      <trkpt lat="46.20896" lon="-0.49902">
        <ele>62.8</ele>
        <time>2021-03-30T15:48:44Z</time>
      </trkpt>
      <trkpt lat="46.20894" lon="-0.49895">
        <ele>62.8</ele>
        <time>2021-03-30T15:48:45Z</time>
      </trkpt>
      <trkpt lat="46.20891" lon="-0.49888">
        <ele>62.8</ele>
        <time>2021-03-30T15:48:46Z</time>
      </trkpt>
      <trkpt lat="46.20889" lon="-0.49884">
        <ele>62.8</ele>
        <time>2021-03-30T15:48:47Z</time>
      </trkpt>
      <trkpt lat="46.20887" lon="-0.49881">
        <ele>62.8</ele>
        <time>2021-03-30T15:48:48Z</time>
      </trkpt>
      <trkpt lat="46.20886" lon="-0.49879">
        <ele>62.8</ele>
        <time>2021-03-30T15:48:49Z</time>
      </trkpt>
      <trkpt lat="46.20885" lon="-0.49878">
        <ele>62.8</ele>
        <time>2021-03-30T15:48:50Z</time>
      </trkpt>
      <trkpt lat="46.20885" lon="-0.49878">
        <ele>63.4</ele>
        <time>2021-03-30T15:48:51Z</time>
      </trkpt>
      <trkpt lat="46.20885" lon="-0.49878">
        <ele>64.2</ele>
        <time>2021-03-30T15:48:53Z</time>
      </trkpt>
      <trkpt lat="46.20886" lon="-0.49868">
        <ele>65.4</ele>
        <time>2021-03-30T15:49:24Z</time>
      </trkpt>
      <trkpt lat="46.20887" lon="-0.49862">
        <ele>65.4</ele>
        <time>2021-03-30T15:49:25Z</time>
      </trkpt>
      <trkpt lat="46.2089" lon="-0.49856">
        <ele>65.4</ele>
        <time>2021-03-30T15:49:26Z</time>
      </trkpt>
      <trkpt lat="46.20894" lon="-0.4985">
        <ele>65.4</ele>
        <time>2021-03-30T15:49:27Z</time>
      </trkpt>
      <trkpt lat="46.20898" lon="-0.49844">
        <ele>65.4</ele>
        <time>2021-03-30T15:49:28Z</time>
      </trkpt>
      <trkpt lat="46.20904" lon="-0.49837">
        <ele>65.4</ele>
        <time>2021-03-30T15:49:29Z</time>
      </trkpt>
      <trkpt lat="46.2093" lon="-0.49811">
        <ele>64.4</ele>
        <time>2021-03-30T15:49:33Z</time>
      </trkpt>
      <trkpt lat="46.20938" lon="-0.49804">
        <ele>63.8</ele>
        <time>2021-03-30T15:49:34Z</time>
      </trkpt>
      <trkpt lat="46.20953" lon="-0.4979">
        <ele>62.8</ele>
        <time>2021-03-30T15:49:36Z</time>
      </trkpt>
      <trkpt lat="46.20961" lon="-0.49783">
        <ele>62.4</ele>
        <time>2021-03-30T15:49:37Z</time>
      </trkpt>
      <trkpt lat="46.20976" lon="-0.49769">
        <ele>61.2</ele>
        <time>2021-03-30T15:49:39Z</time>
      </trkpt>
      <trkpt lat="46.20984" lon="-0.49762">
        <ele>60.4</ele>
        <time>2021-03-30T15:49:40Z</time>
      </trkpt>
      <trkpt lat="46.20992" lon="-0.49754">
        <ele>60</ele>
        <time>2021-03-30T15:49:41Z</time>
      </trkpt>
      <trkpt lat="46.21016" lon="-0.49733">
        <ele>58.4</ele>
        <time>2021-03-30T15:49:44Z</time>
      </trkpt>
      <trkpt lat="46.21023" lon="-0.49725">
        <ele>57.4</ele>
        <time>2021-03-30T15:49:45Z</time>
      </trkpt>
      <trkpt lat="46.21031" lon="-0.49717">
        <ele>56.6</ele>
        <time>2021-03-30T15:49:46Z</time>
      </trkpt>
      <trkpt lat="46.21039" lon="-0.4971">
        <ele>56</ele>
        <time>2021-03-30T15:49:47Z</time>
      </trkpt>
      <trkpt lat="46.21056" lon="-0.49694">
        <ele>54.8</ele>
        <time>2021-03-30T15:49:49Z</time>
      </trkpt>
      <trkpt lat="46.21071" lon="-0.49679">
        <ele>53.6</ele>
        <time>2021-03-30T15:49:51Z</time>
      </trkpt>
      <trkpt lat="46.21077" lon="-0.49673">
        <ele>52.8</ele>
        <time>2021-03-30T15:49:52Z</time>
      </trkpt>
      <trkpt lat="46.21082" lon="-0.49666">
        <ele>52.2</ele>
        <time>2021-03-30T15:49:53Z</time>
      </trkpt>
      <trkpt lat="46.21084" lon="-0.49659">
        <ele>51.6</ele>
        <time>2021-03-30T15:49:54Z</time>
      </trkpt>
      <trkpt lat="46.21084" lon="-0.49652">
        <ele>51.2</ele>
        <time>2021-03-30T15:49:55Z</time>
      </trkpt>
      <trkpt lat="46.21082" lon="-0.49648">
        <ele>50.8</ele>
        <time>2021-03-30T15:49:56Z</time>
      </trkpt>
      <trkpt lat="46.21081" lon="-0.49644">
        <ele>50.4</ele>
        <time>2021-03-30T15:49:57Z</time>
      </trkpt>
      <trkpt lat="46.21078" lon="-0.4964">
        <ele>50.4</ele>
        <time>2021-03-30T15:49:58Z</time>
      </trkpt>
      <trkpt lat="46.21076" lon="-0.49635">
        <ele>50.4</ele>
        <time>2021-03-30T15:49:59Z</time>
      </trkpt>
      <trkpt lat="46.21074" lon="-0.4963">
        <ele>50.2</ele>
        <time>2021-03-30T15:50:00Z</time>
      </trkpt>
      <trkpt lat="46.21069" lon="-0.49619">
        <ele>50</ele>
        <time>2021-03-30T15:50:02Z</time>
      </trkpt>
      <trkpt lat="46.21064" lon="-0.49607">
        <ele>50</ele>
        <time>2021-03-30T15:50:04Z</time>
      </trkpt>
      <trkpt lat="46.21062" lon="-0.49602">
        <ele>50</ele>
        <time>2021-03-30T15:50:05Z</time>
      </trkpt>
      <trkpt lat="46.2106" lon="-0.49597">
        <ele>50</ele>
        <time>2021-03-30T15:50:06Z</time>
      </trkpt>
      <trkpt lat="46.21058" lon="-0.49593">
        <ele>50.2</ele>
        <time>2021-03-30T15:50:07Z</time>
      </trkpt>
      <trkpt lat="46.21056" lon="-0.49588">
        <ele>50.4</ele>
        <time>2021-03-30T15:50:08Z</time>
      </trkpt>
      <trkpt lat="46.21054" lon="-0.49583">
        <ele>50.4</ele>
        <time>2021-03-30T15:50:09Z</time>
      </trkpt>
      <trkpt lat="46.21042" lon="-0.49552">
        <ele>50.6</ele>
        <time>2021-03-30T15:50:13Z</time>
      </trkpt>
      <trkpt lat="46.21025" lon="-0.4951">
        <ele>50.6</ele>
        <time>2021-03-30T15:50:18Z</time>
      </trkpt>
      <trkpt lat="46.21022" lon="-0.49501">
        <ele>50.6</ele>
        <time>2021-03-30T15:50:19Z</time>
      </trkpt>
      <trkpt lat="46.21008" lon="-0.49464">
        <ele>51</ele>
        <time>2021-03-30T15:50:23Z</time>
      </trkpt>
      <trkpt lat="46.21004" lon="-0.49455">
        <ele>51</ele>
        <time>2021-03-30T15:50:24Z</time>
      </trkpt>
      <trkpt lat="46.20994" lon="-0.49429">
        <ele>51</ele>
        <time>2021-03-30T15:50:27Z</time>
      </trkpt>
      <trkpt lat="46.20988" lon="-0.49412">
        <ele>51</ele>
        <time>2021-03-30T15:50:29Z</time>
      </trkpt>
      <trkpt lat="46.20984" lon="-0.49404">
        <ele>51.2</ele>
        <time>2021-03-30T15:50:30Z</time>
      </trkpt>
      <trkpt lat="46.20981" lon="-0.49397">
        <ele>51.2</ele>
        <time>2021-03-30T15:50:31Z</time>
      </trkpt>
      <trkpt lat="46.20979" lon="-0.49391">
        <ele>51.6</ele>
        <time>2021-03-30T15:50:32Z</time>
      </trkpt>
      <trkpt lat="46.20978" lon="-0.49385">
        <ele>51.6</ele>
        <time>2021-03-30T15:50:33Z</time>
      </trkpt>
      <trkpt lat="46.20978" lon="-0.4938">
        <ele>51.6</ele>
        <time>2021-03-30T15:50:34Z</time>
      </trkpt>
      <trkpt lat="46.2098" lon="-0.49376">
        <ele>51.6</ele>
        <time>2021-03-30T15:50:35Z</time>
      </trkpt>
      <trkpt lat="46.20983" lon="-0.49373">
        <ele>51.8</ele>
        <time>2021-03-30T15:50:36Z</time>
      </trkpt>
      <trkpt lat="46.20998" lon="-0.4936">
        <ele>51.8</ele>
        <time>2021-03-30T15:50:39Z</time>
      </trkpt>
      <trkpt lat="46.21019" lon="-0.49344">
        <ele>51.6</ele>
        <time>2021-03-30T15:50:43Z</time>
      </trkpt>
      <trkpt lat="46.21024" lon="-0.49341">
        <ele>51.6</ele>
        <time>2021-03-30T15:50:44Z</time>
      </trkpt>
      <trkpt lat="46.21027" lon="-0.49336">
        <ele>51.4</ele>
        <time>2021-03-30T15:50:45Z</time>
      </trkpt>
      <trkpt lat="46.21028" lon="-0.49332">
        <ele>51.2</ele>
        <time>2021-03-30T15:50:46Z</time>
      </trkpt>
      <trkpt lat="46.21026" lon="-0.49329">
        <ele>51.2</ele>
        <time>2021-03-30T15:50:47Z</time>
      </trkpt>
      <trkpt lat="46.21023" lon="-0.49326">
        <ele>51.2</ele>
        <time>2021-03-30T15:50:48Z</time>
      </trkpt>
      <trkpt lat="46.2102" lon="-0.49323">
        <ele>51.2</ele>
        <time>2021-03-30T15:50:49Z</time>
      </trkpt>
      <trkpt lat="46.21015" lon="-0.49318">
        <ele>51</ele>
        <time>2021-03-30T15:50:50Z</time>
      </trkpt>
      <trkpt lat="46.21003" lon="-0.49298">
        <ele>50.8</ele>
        <time>2021-03-30T15:50:53Z</time>
      </trkpt>
      <trkpt lat="46.20979" lon="-0.49255">
        <ele>50.4</ele>
        <time>2021-03-30T15:50:59Z</time>
      </trkpt>
      <trkpt lat="46.20975" lon="-0.49248">
        <ele>50.4</ele>
        <time>2021-03-30T15:51:00Z</time>
      </trkpt>
      <trkpt lat="46.2097" lon="-0.49242">
        <ele>50.6</ele>
        <time>2021-03-30T15:51:01Z</time>
      </trkpt>
      <trkpt lat="46.2096" lon="-0.49232">
        <ele>50.6</ele>
        <time>2021-03-30T15:51:03Z</time>
      </trkpt>
      <trkpt lat="46.20954" lon="-0.49231">
        <ele>50.6</ele>
        <time>2021-03-30T15:51:04Z</time>
      </trkpt>
      <trkpt lat="46.20947" lon="-0.49232">
        <ele>50.6</ele>
        <time>2021-03-30T15:51:05Z</time>
      </trkpt>
      <trkpt lat="46.20941" lon="-0.49236">
        <ele>50.6</ele>
        <time>2021-03-30T15:51:06Z</time>
      </trkpt>
      <trkpt lat="46.20935" lon="-0.49242">
        <ele>50.6</ele>
        <time>2021-03-30T15:51:07Z</time>
      </trkpt>
      <trkpt lat="46.20929" lon="-0.49247">
        <ele>50.6</ele>
        <time>2021-03-30T15:51:08Z</time>
      </trkpt>
      <trkpt lat="46.20923" lon="-0.49253">
        <ele>50.6</ele>
        <time>2021-03-30T15:51:09Z</time>
      </trkpt>
      <trkpt lat="46.20891" lon="-0.49276">
        <ele>50.8</ele>
        <time>2021-03-30T15:51:14Z</time>
      </trkpt>
      <trkpt lat="46.20884" lon="-0.49278">
        <ele>50.8</ele>
        <time>2021-03-30T15:51:15Z</time>
      </trkpt>
      <trkpt lat="46.2087" lon="-0.49279">
        <ele>51.2</ele>
        <time>2021-03-30T15:51:17Z</time>
      </trkpt>
      <trkpt lat="46.20863" lon="-0.49275">
        <ele>51.2</ele>
        <time>2021-03-30T15:51:18Z</time>
      </trkpt>
      <trkpt lat="46.20858" lon="-0.49268">
        <ele>51.4</ele>
        <time>2021-03-30T15:51:19Z</time>
      </trkpt>
      <trkpt lat="46.20848" lon="-0.49252">
        <ele>51.6</ele>
        <time>2021-03-30T15:51:21Z</time>
      </trkpt>
      <trkpt lat="46.20843" lon="-0.49244">
        <ele>51.6</ele>
        <time>2021-03-30T15:51:22Z</time>
      </trkpt>
      <trkpt lat="46.20815" lon="-0.49188">
        <ele>51.4</ele>
        <time>2021-03-30T15:51:28Z</time>
      </trkpt>
      <trkpt lat="46.20792" lon="-0.49135">
        <ele>49.6</ele>
        <time>2021-03-30T15:51:33Z</time>
      </trkpt>
      <trkpt lat="46.20774" lon="-0.49092">
        <ele>48.2</ele>
        <time>2021-03-30T15:51:37Z</time>
      </trkpt>
      <trkpt lat="46.20759" lon="-0.49061">
        <ele>46.6</ele>
        <time>2021-03-30T15:51:40Z</time>
      </trkpt>
      <trkpt lat="46.20754" lon="-0.49051">
        <ele>46.2</ele>
        <time>2021-03-30T15:51:41Z</time>
      </trkpt>
      <trkpt lat="46.20745" lon="-0.49031">
        <ele>45.6</ele>
        <time>2021-03-30T15:51:43Z</time>
      </trkpt>
      <trkpt lat="46.20736" lon="-0.49012">
        <ele>45.4</ele>
        <time>2021-03-30T15:51:45Z</time>
      </trkpt>
      <trkpt lat="46.20732" lon="-0.49003">
        <ele>45.2</ele>
        <time>2021-03-30T15:51:46Z</time>
      </trkpt>
      <trkpt lat="46.20728" lon="-0.48993">
        <ele>45</ele>
        <time>2021-03-30T15:51:47Z</time>
      </trkpt>
      <trkpt lat="46.20724" lon="-0.48985">
        <ele>44.8</ele>
        <time>2021-03-30T15:51:48Z</time>
      </trkpt>
      <trkpt lat="46.20721" lon="-0.48977">
        <ele>44.8</ele>
        <time>2021-03-30T15:51:49Z</time>
      </trkpt>
      <trkpt lat="46.20718" lon="-0.4897">
        <ele>44.6</ele>
        <time>2021-03-30T15:51:50Z</time>
      </trkpt>
      <trkpt lat="46.20716" lon="-0.48965">
        <ele>44.6</ele>
        <time>2021-03-30T15:51:51Z</time>
      </trkpt>
      <trkpt lat="46.20715" lon="-0.4896">
        <ele>44.6</ele>
        <time>2021-03-30T15:51:52Z</time>
      </trkpt>
      <trkpt lat="46.20715" lon="-0.48956">
        <ele>44.6</ele>
        <time>2021-03-30T15:51:53Z</time>
      </trkpt>
      <trkpt lat="46.20715" lon="-0.48953">
        <ele>44.4</ele>
        <time>2021-03-30T15:51:54Z</time>
      </trkpt>
      <trkpt lat="46.20717" lon="-0.48948">
        <ele>44.4</ele>
        <time>2021-03-30T15:51:55Z</time>
      </trkpt>
      <trkpt lat="46.20717" lon="-0.48941">
        <ele>44.4</ele>
        <time>2021-03-30T15:51:56Z</time>
      </trkpt>
      <trkpt lat="46.20715" lon="-0.4892">
        <ele>44</ele>
        <time>2021-03-30T15:51:59Z</time>
      </trkpt>
      <trkpt lat="46.20714" lon="-0.48913">
        <ele>44</ele>
        <time>2021-03-30T15:52:00Z</time>
      </trkpt>
      <trkpt lat="46.20712" lon="-0.48907">
        <ele>43.8</ele>
        <time>2021-03-30T15:52:01Z</time>
      </trkpt>
      <trkpt lat="46.20711" lon="-0.489">
        <ele>43.8</ele>
        <time>2021-03-30T15:52:02Z</time>
      </trkpt>
      <trkpt lat="46.20709" lon="-0.48895">
        <ele>43.8</ele>
        <time>2021-03-30T15:52:03Z</time>
      </trkpt>
      <trkpt lat="46.20708" lon="-0.4889">
        <ele>43.8</ele>
        <time>2021-03-30T15:52:04Z</time>
      </trkpt>
      <trkpt lat="46.20705" lon="-0.48885">
        <ele>43.8</ele>
        <time>2021-03-30T15:52:05Z</time>
      </trkpt>
      <trkpt lat="46.20695" lon="-0.48858">
        <ele>43.6</ele>
        <time>2021-03-30T15:52:09Z</time>
      </trkpt>
      <trkpt lat="46.20692" lon="-0.4885">
        <ele>43.4</ele>
        <time>2021-03-30T15:52:10Z</time>
      </trkpt>
      <trkpt lat="46.20672" lon="-0.48802">
        <ele>43</ele>
        <time>2021-03-30T15:52:15Z</time>
      </trkpt>
      <trkpt lat="46.20654" lon="-0.48755">
        <ele>42.6</ele>
        <time>2021-03-30T15:52:20Z</time>
      </trkpt>
      <trkpt lat="46.20651" lon="-0.48746">
        <ele>42.6</ele>
        <time>2021-03-30T15:52:21Z</time>
      </trkpt>
      <trkpt lat="46.20649" lon="-0.48738">
        <ele>42.4</ele>
        <time>2021-03-30T15:52:22Z</time>
      </trkpt>
      <trkpt lat="46.20647" lon="-0.4873">
        <ele>42.4</ele>
        <time>2021-03-30T15:52:23Z</time>
      </trkpt>
      <trkpt lat="46.20643" lon="-0.48725">
        <ele>42.4</ele>
        <time>2021-03-30T15:52:24Z</time>
      </trkpt>
      <trkpt lat="46.20638" lon="-0.48721">
        <ele>42.4</ele>
        <time>2021-03-30T15:52:25Z</time>
      </trkpt>
      <trkpt lat="46.20632" lon="-0.48719">
        <ele>42.4</ele>
        <time>2021-03-30T15:52:26Z</time>
      </trkpt>
      <trkpt lat="46.20625" lon="-0.48719">
        <ele>42.4</ele>
        <time>2021-03-30T15:52:27Z</time>
      </trkpt>
      <trkpt lat="46.20618" lon="-0.48721">
        <ele>42.4</ele>
        <time>2021-03-30T15:52:28Z</time>
      </trkpt>
      <trkpt lat="46.20612" lon="-0.48724">
        <ele>42.4</ele>
        <time>2021-03-30T15:52:29Z</time>
      </trkpt>
      <trkpt lat="46.20605" lon="-0.48727">
        <ele>42.4</ele>
        <time>2021-03-30T15:52:30Z</time>
      </trkpt>
      <trkpt lat="46.20598" lon="-0.48731">
        <ele>42.4</ele>
        <time>2021-03-30T15:52:31Z</time>
      </trkpt>
      <trkpt lat="46.20584" lon="-0.48739">
        <ele>42.4</ele>
        <time>2021-03-30T15:52:33Z</time>
      </trkpt>
      <trkpt lat="46.20578" lon="-0.48742">
        <ele>42.6</ele>
        <time>2021-03-30T15:52:34Z</time>
      </trkpt>
      <trkpt lat="46.20572" lon="-0.48744">
        <ele>42.6</ele>
        <time>2021-03-30T15:52:35Z</time>
      </trkpt>
      <trkpt lat="46.20568" lon="-0.48744">
        <ele>42.8</ele>
        <time>2021-03-30T15:52:36Z</time>
      </trkpt>
      <trkpt lat="46.20565" lon="-0.48741">
        <ele>42.8</ele>
        <time>2021-03-30T15:52:37Z</time>
      </trkpt>
      <trkpt lat="46.20564" lon="-0.48736">
        <ele>42.8</ele>
        <time>2021-03-30T15:52:38Z</time>
      </trkpt>
      <trkpt lat="46.20563" lon="-0.48729">
        <ele>42.8</ele>
        <time>2021-03-30T15:52:39Z</time>
      </trkpt>
      <trkpt lat="46.20562" lon="-0.48723">
        <ele>42.8</ele>
        <time>2021-03-30T15:52:40Z</time>
      </trkpt>
      <trkpt lat="46.20561" lon="-0.48717">
        <ele>43</ele>
        <time>2021-03-30T15:52:41Z</time>
      </trkpt>
      <trkpt lat="46.20559" lon="-0.48712">
        <ele>43</ele>
        <time>2021-03-30T15:52:42Z</time>
      </trkpt>
      <trkpt lat="46.20556" lon="-0.48709">
        <ele>43.2</ele>
        <time>2021-03-30T15:52:43Z</time>
      </trkpt>
      <trkpt lat="46.20553" lon="-0.48707">
        <ele>43.2</ele>
        <time>2021-03-30T15:52:44Z</time>
      </trkpt>
      <trkpt lat="46.20537" lon="-0.48708">
        <ele>43.4</ele>
        <time>2021-03-30T15:52:47Z</time>
      </trkpt>
      <trkpt lat="46.20531" lon="-0.48708">
        <ele>43.4</ele>
        <time>2021-03-30T15:52:48Z</time>
      </trkpt>
      <trkpt lat="46.20525" lon="-0.48708">
        <ele>43.4</ele>
        <time>2021-03-30T15:52:49Z</time>
      </trkpt>
      <trkpt lat="46.20519" lon="-0.48708">
        <ele>43.4</ele>
        <time>2021-03-30T15:52:50Z</time>
      </trkpt>
      <trkpt lat="46.20508" lon="-0.48708">
        <ele>43.4</ele>
        <time>2021-03-30T15:52:52Z</time>
      </trkpt>
      <trkpt lat="46.20502" lon="-0.48708">
        <ele>43.4</ele>
        <time>2021-03-30T15:52:53Z</time>
      </trkpt>
      <trkpt lat="46.20489" lon="-0.48707">
        <ele>43.6</ele>
        <time>2021-03-30T15:52:55Z</time>
      </trkpt>
      <trkpt lat="46.20477" lon="-0.48707">
        <ele>43.8</ele>
        <time>2021-03-30T15:52:57Z</time>
      </trkpt>
      <trkpt lat="46.20471" lon="-0.48707">
        <ele>43.8</ele>
        <time>2021-03-30T15:52:58Z</time>
      </trkpt>
      <trkpt lat="46.20465" lon="-0.48706">
        <ele>43.8</ele>
        <time>2021-03-30T15:52:59Z</time>
      </trkpt>
      <trkpt lat="46.20451" lon="-0.48706">
        <ele>44</ele>
        <time>2021-03-30T15:53:01Z</time>
      </trkpt>
      <trkpt lat="46.20432" lon="-0.48706">
        <ele>44</ele>
        <time>2021-03-30T15:53:04Z</time>
      </trkpt>
      <trkpt lat="46.20421" lon="-0.48715">
        <ele>44</ele>
        <time>2021-03-30T15:53:06Z</time>
      </trkpt>
      <trkpt lat="46.20416" lon="-0.4872">
        <ele>44</ele>
        <time>2021-03-30T15:53:07Z</time>
      </trkpt>
      <trkpt lat="46.2041" lon="-0.48727">
        <ele>44.2</ele>
        <time>2021-03-30T15:53:08Z</time>
      </trkpt>
      <trkpt lat="46.20404" lon="-0.48734">
        <ele>44.2</ele>
        <time>2021-03-30T15:53:09Z</time>
      </trkpt>
      <trkpt lat="46.20394" lon="-0.48746">
        <ele>44.2</ele>
        <time>2021-03-30T15:53:11Z</time>
      </trkpt>
      <trkpt lat="46.20389" lon="-0.48752">
        <ele>44.2</ele>
        <time>2021-03-30T15:53:12Z</time>
      </trkpt>
      <trkpt lat="46.20384" lon="-0.48758">
        <ele>44.2</ele>
        <time>2021-03-30T15:53:13Z</time>
      </trkpt>
      <trkpt lat="46.20379" lon="-0.48764">
        <ele>44.2</ele>
        <time>2021-03-30T15:53:14Z</time>
      </trkpt>
      <trkpt lat="46.20356" lon="-0.4879">
        <ele>44.2</ele>
        <time>2021-03-30T15:53:18Z</time>
      </trkpt>
      <trkpt lat="46.20321" lon="-0.4883">
        <ele>44.4</ele>
        <time>2021-03-30T15:53:24Z</time>
      </trkpt>
      <trkpt lat="46.20304" lon="-0.48848">
        <ele>44.6</ele>
        <time>2021-03-30T15:53:27Z</time>
      </trkpt>
      <trkpt lat="46.20299" lon="-0.48854">
        <ele>44.8</ele>
        <time>2021-03-30T15:53:28Z</time>
      </trkpt>
      <trkpt lat="46.20295" lon="-0.48859">
        <ele>44.8</ele>
        <time>2021-03-30T15:53:29Z</time>
      </trkpt>
      <trkpt lat="46.20291" lon="-0.48864">
        <ele>44.8</ele>
        <time>2021-03-30T15:53:30Z</time>
      </trkpt>
      <trkpt lat="46.20288" lon="-0.48867">
        <ele>45</ele>
        <time>2021-03-30T15:53:31Z</time>
      </trkpt>
      <trkpt lat="46.20285" lon="-0.4887">
        <ele>45</ele>
        <time>2021-03-30T15:53:32Z</time>
      </trkpt>
      <trkpt lat="46.20282" lon="-0.48871">
        <ele>45.2</ele>
        <time>2021-03-30T15:53:33Z</time>
      </trkpt>
      <trkpt lat="46.20279" lon="-0.4887">
        <ele>45.8</ele>
        <time>2021-03-30T15:53:34Z</time>
      </trkpt>
      <trkpt lat="46.20276" lon="-0.48867">
        <ele>46.4</ele>
        <time>2021-03-30T15:53:35Z</time>
      </trkpt>
      <trkpt lat="46.2027" lon="-0.4886">
        <ele>46.8</ele>
        <time>2021-03-30T15:53:37Z</time>
      </trkpt>
      <trkpt lat="46.20267" lon="-0.48856">
        <ele>47.2</ele>
        <time>2021-03-30T15:53:38Z</time>
      </trkpt>
      <trkpt lat="46.20265" lon="-0.48852">
        <ele>47.6</ele>
        <time>2021-03-30T15:53:39Z</time>
      </trkpt>
      <trkpt lat="46.20263" lon="-0.48849">
        <ele>47.8</ele>
        <time>2021-03-30T15:53:40Z</time>
      </trkpt>
      <trkpt lat="46.20262" lon="-0.48847">
        <ele>48</ele>
        <time>2021-03-30T15:53:41Z</time>
      </trkpt>
      <trkpt lat="46.20261" lon="-0.48846">
        <ele>48</ele>
        <time>2021-03-30T15:53:42Z</time>
      </trkpt>
      <trkpt lat="46.20261" lon="-0.48846">
        <ele>48.2</ele>
        <time>2021-03-30T15:53:43Z</time>
      </trkpt>
      <trkpt lat="46.20259" lon="-0.48842">
        <ele>49</ele>
        <time>2021-03-30T15:54:05Z</time>
      </trkpt>
      <trkpt lat="46.20256" lon="-0.48836">
        <ele>49</ele>
        <time>2021-03-30T15:54:06Z</time>
      </trkpt>
      <trkpt lat="46.20252" lon="-0.4883">
        <ele>49</ele>
        <time>2021-03-30T15:54:07Z</time>
      </trkpt>
      <trkpt lat="46.20249" lon="-0.48822">
        <ele>49</ele>
        <time>2021-03-30T15:54:08Z</time>
      </trkpt>
      <trkpt lat="46.20242" lon="-0.48805">
        <ele>49</ele>
        <time>2021-03-30T15:54:10Z</time>
      </trkpt>
      <trkpt lat="46.2022" lon="-0.48762">
        <ele>48.6</ele>
        <time>2021-03-30T15:54:15Z</time>
      </trkpt>
      <trkpt lat="46.20215" lon="-0.48755">
        <ele>48.4</ele>
        <time>2021-03-30T15:54:16Z</time>
      </trkpt>
      <trkpt lat="46.20211" lon="-0.48749">
        <ele>48.4</ele>
        <time>2021-03-30T15:54:17Z</time>
      </trkpt>
      <trkpt lat="46.20207" lon="-0.48745">
        <ele>48.4</ele>
        <time>2021-03-30T15:54:18Z</time>
      </trkpt>
      <trkpt lat="46.20205" lon="-0.48742">
        <ele>48.4</ele>
        <time>2021-03-30T15:54:19Z</time>
      </trkpt>
      <trkpt lat="46.20201" lon="-0.48737">
        <ele>48.4</ele>
        <time>2021-03-30T15:54:20Z</time>
      </trkpt>
      <trkpt lat="46.20181" lon="-0.48716">
        <ele>48.8</ele>
        <time>2021-03-30T15:54:24Z</time>
      </trkpt>
      <trkpt lat="46.2016" lon="-0.48693">
        <ele>49.4</ele>
        <time>2021-03-30T15:54:28Z</time>
      </trkpt>
      <trkpt lat="46.20156" lon="-0.48688">
        <ele>49.6</ele>
        <time>2021-03-30T15:54:29Z</time>
      </trkpt>
      <trkpt lat="46.20155" lon="-0.48684">
        <ele>49.8</ele>
        <time>2021-03-30T15:54:30Z</time>
      </trkpt>
      <trkpt lat="46.20153" lon="-0.48681">
        <ele>50</ele>
        <time>2021-03-30T15:54:31Z</time>
      </trkpt>
      <trkpt lat="46.20151" lon="-0.48679">
        <ele>50</ele>
        <time>2021-03-30T15:54:32Z</time>
      </trkpt>
      <trkpt lat="46.20149" lon="-0.48677">
        <ele>50.2</ele>
        <time>2021-03-30T15:54:33Z</time>
      </trkpt>
      <trkpt lat="46.20147" lon="-0.48674">
        <ele>50.4</ele>
        <time>2021-03-30T15:54:34Z</time>
      </trkpt>
      <trkpt lat="46.2014" lon="-0.48662">
        <ele>51</ele>
        <time>2021-03-30T15:54:38Z</time>
      </trkpt>
      <trkpt lat="46.20138" lon="-0.48658">
        <ele>51.2</ele>
        <time>2021-03-30T15:54:39Z</time>
      </trkpt>
      <trkpt lat="46.2013" lon="-0.48645">
        <ele>51.6</ele>
        <time>2021-03-30T15:54:42Z</time>
      </trkpt>
      <trkpt lat="46.20125" lon="-0.48637">
        <ele>51.6</ele>
        <time>2021-03-30T15:54:44Z</time>
      </trkpt>
      <trkpt lat="46.20123" lon="-0.48632">
        <ele>51.6</ele>
        <time>2021-03-30T15:54:45Z</time>
      </trkpt>
      <trkpt lat="46.20121" lon="-0.48629">
        <ele>51.6</ele>
        <time>2021-03-30T15:54:46Z</time>
      </trkpt>
      <trkpt lat="46.20119" lon="-0.48625">
        <ele>51.6</ele>
        <time>2021-03-30T15:54:47Z</time>
      </trkpt>
      <trkpt lat="46.20118" lon="-0.48621">
        <ele>51.6</ele>
        <time>2021-03-30T15:54:48Z</time>
      </trkpt>
      <trkpt lat="46.20116" lon="-0.48617">
        <ele>51.6</ele>
        <time>2021-03-30T15:54:49Z</time>
      </trkpt>
      <trkpt lat="46.20114" lon="-0.48613">
        <ele>51.6</ele>
        <time>2021-03-30T15:54:50Z</time>
      </trkpt>
      <trkpt lat="46.20112" lon="-0.48609">
        <ele>51.6</ele>
        <time>2021-03-30T15:54:51Z</time>
      </trkpt>
      <trkpt lat="46.2011" lon="-0.48605">
        <ele>51.6</ele>
        <time>2021-03-30T15:54:52Z</time>
      </trkpt>
      <trkpt lat="46.20108" lon="-0.48601">
        <ele>51.4</ele>
        <time>2021-03-30T15:54:53Z</time>
      </trkpt>
      <trkpt lat="46.20106" lon="-0.48597">
        <ele>51.4</ele>
        <time>2021-03-30T15:54:54Z</time>
      </trkpt>
      <trkpt lat="46.20095" lon="-0.48571">
        <ele>51.2</ele>
        <time>2021-03-30T15:54:59Z</time>
      </trkpt>
      <trkpt lat="46.2008" lon="-0.4854">
        <ele>51</ele>
        <time>2021-03-30T15:55:04Z</time>
      </trkpt>
      <trkpt lat="46.20072" lon="-0.48519">
        <ele>50.6</ele>
        <time>2021-03-30T15:55:07Z</time>
      </trkpt>
      <trkpt lat="46.20069" lon="-0.48512">
        <ele>50.4</ele>
        <time>2021-03-30T15:55:08Z</time>
      </trkpt>
      <trkpt lat="46.20062" lon="-0.48497">
        <ele>50.2</ele>
        <time>2021-03-30T15:55:10Z</time>
      </trkpt>
      <trkpt lat="46.20059" lon="-0.48489">
        <ele>50.2</ele>
        <time>2021-03-30T15:55:11Z</time>
      </trkpt>
      <trkpt lat="46.20041" lon="-0.48447">
        <ele>50</ele>
        <time>2021-03-30T15:55:16Z</time>
      </trkpt>
      <trkpt lat="46.20038" lon="-0.4844">
        <ele>50</ele>
        <time>2021-03-30T15:55:17Z</time>
      </trkpt>
      <trkpt lat="46.20034" lon="-0.48432">
        <ele>50</ele>
        <time>2021-03-30T15:55:18Z</time>
      </trkpt>
      <trkpt lat="46.2" lon="-0.48382">
        <ele>50.4</ele>
        <time>2021-03-30T15:55:25Z</time>
      </trkpt>
      <trkpt lat="46.19963" lon="-0.48338">
        <ele>51</ele>
        <time>2021-03-30T15:55:32Z</time>
      </trkpt>
      <trkpt lat="46.19957" lon="-0.48335">
        <ele>51</ele>
        <time>2021-03-30T15:55:33Z</time>
      </trkpt>
      <trkpt lat="46.19951" lon="-0.48333">
        <ele>51</ele>
        <time>2021-03-30T15:55:34Z</time>
      </trkpt>
      <trkpt lat="46.19944" lon="-0.48335">
        <ele>51</ele>
        <time>2021-03-30T15:55:35Z</time>
      </trkpt>
      <trkpt lat="46.19937" lon="-0.48337">
        <ele>51</ele>
        <time>2021-03-30T15:55:36Z</time>
      </trkpt>
      <trkpt lat="46.1993" lon="-0.48342">
        <ele>51</ele>
        <time>2021-03-30T15:55:37Z</time>
      </trkpt>
      <trkpt lat="46.19923" lon="-0.48348">
        <ele>51</ele>
        <time>2021-03-30T15:55:38Z</time>
      </trkpt>
      <trkpt lat="46.19917" lon="-0.48355">
        <ele>51</ele>
        <time>2021-03-30T15:55:39Z</time>
      </trkpt>
      <trkpt lat="46.19912" lon="-0.48362">
        <ele>51</ele>
        <time>2021-03-30T15:55:40Z</time>
      </trkpt>
      <trkpt lat="46.19906" lon="-0.4837">
        <ele>51.2</ele>
        <time>2021-03-30T15:55:41Z</time>
      </trkpt>
      <trkpt lat="46.19896" lon="-0.48385">
        <ele>51.4</ele>
        <time>2021-03-30T15:55:43Z</time>
      </trkpt>
      <trkpt lat="46.1988" lon="-0.48409">
        <ele>51.8</ele>
        <time>2021-03-30T15:55:46Z</time>
      </trkpt>
      <trkpt lat="46.19875" lon="-0.48416">
        <ele>52</ele>
        <time>2021-03-30T15:55:47Z</time>
      </trkpt>
      <trkpt lat="46.19864" lon="-0.48432">
        <ele>52.2</ele>
        <time>2021-03-30T15:55:49Z</time>
      </trkpt>
      <trkpt lat="46.19849" lon="-0.48453">
        <ele>52.4</ele>
        <time>2021-03-30T15:55:52Z</time>
      </trkpt>
      <trkpt lat="46.19844" lon="-0.4846">
        <ele>52.6</ele>
        <time>2021-03-30T15:55:53Z</time>
      </trkpt>
      <trkpt lat="46.1982" lon="-0.48486">
        <ele>53.8</ele>
        <time>2021-03-30T15:55:57Z</time>
      </trkpt>
      <trkpt lat="46.198" lon="-0.48506">
        <ele>54.4</ele>
        <time>2021-03-30T15:56:00Z</time>
      </trkpt>
      <trkpt lat="46.19794" lon="-0.48513">
        <ele>54.8</ele>
        <time>2021-03-30T15:56:01Z</time>
      </trkpt>
      <trkpt lat="46.19787" lon="-0.4852">
        <ele>55.2</ele>
        <time>2021-03-30T15:56:02Z</time>
      </trkpt>
      <trkpt lat="46.19781" lon="-0.48527">
        <ele>55.2</ele>
        <time>2021-03-30T15:56:03Z</time>
      </trkpt>
      <trkpt lat="46.19774" lon="-0.48534">
        <ele>55.4</ele>
        <time>2021-03-30T15:56:04Z</time>
      </trkpt>
      <trkpt lat="46.19768" lon="-0.48541">
        <ele>55.6</ele>
        <time>2021-03-30T15:56:05Z</time>
      </trkpt>
      <trkpt lat="46.19762" lon="-0.48548">
        <ele>55.6</ele>
        <time>2021-03-30T15:56:06Z</time>
      </trkpt>
      <trkpt lat="46.19756" lon="-0.48554">
        <ele>55.6</ele>
        <time>2021-03-30T15:56:07Z</time>
      </trkpt>
      <trkpt lat="46.1975" lon="-0.48561">
        <ele>55.6</ele>
        <time>2021-03-30T15:56:08Z</time>
      </trkpt>
      <trkpt lat="46.19743" lon="-0.48569">
        <ele>55.8</ele>
        <time>2021-03-30T15:56:09Z</time>
      </trkpt>
      <trkpt lat="46.19737" lon="-0.48576">
        <ele>55.8</ele>
        <time>2021-03-30T15:56:10Z</time>
      </trkpt>
      <trkpt lat="46.1973" lon="-0.48582">
        <ele>55.8</ele>
        <time>2021-03-30T15:56:11Z</time>
      </trkpt>
      <trkpt lat="46.19724" lon="-0.48589">
        <ele>56</ele>
        <time>2021-03-30T15:56:12Z</time>
      </trkpt>
      <trkpt lat="46.19717" lon="-0.48595">
        <ele>56.2</ele>
        <time>2021-03-30T15:56:13Z</time>
      </trkpt>
      <trkpt lat="46.1971" lon="-0.486">
        <ele>56.2</ele>
        <time>2021-03-30T15:56:14Z</time>
      </trkpt>
      <trkpt lat="46.19703" lon="-0.48606">
        <ele>56.4</ele>
        <time>2021-03-30T15:56:15Z</time>
      </trkpt>
      <trkpt lat="46.19696" lon="-0.48611">
        <ele>56.4</ele>
        <time>2021-03-30T15:56:16Z</time>
      </trkpt>
      <trkpt lat="46.19689" lon="-0.48616">
        <ele>56.6</ele>
        <time>2021-03-30T15:56:17Z</time>
      </trkpt>
      <trkpt lat="46.19681" lon="-0.48622">
        <ele>56.6</ele>
        <time>2021-03-30T15:56:18Z</time>
      </trkpt>
      <trkpt lat="46.19674" lon="-0.48627">
        <ele>56.8</ele>
        <time>2021-03-30T15:56:19Z</time>
      </trkpt>
      <trkpt lat="46.19667" lon="-0.48631">
        <ele>57</ele>
        <time>2021-03-30T15:56:20Z</time>
      </trkpt>
      <trkpt lat="46.1966" lon="-0.48636">
        <ele>57.2</ele>
        <time>2021-03-30T15:56:21Z</time>
      </trkpt>
      <trkpt lat="46.19653" lon="-0.48642">
        <ele>57.2</ele>
        <time>2021-03-30T15:56:22Z</time>
      </trkpt>
      <trkpt lat="46.19646" lon="-0.48647">
        <ele>57.2</ele>
        <time>2021-03-30T15:56:23Z</time>
      </trkpt>
      <trkpt lat="46.19639" lon="-0.48651">
        <ele>57.4</ele>
        <time>2021-03-30T15:56:24Z</time>
      </trkpt>
      <trkpt lat="46.19632" lon="-0.48655">
        <ele>57.4</ele>
        <time>2021-03-30T15:56:25Z</time>
      </trkpt>
      <trkpt lat="46.19625" lon="-0.48659">
        <ele>57.6</ele>
        <time>2021-03-30T15:56:26Z</time>
      </trkpt>
      <trkpt lat="46.19617" lon="-0.48662">
        <ele>57.8</ele>
        <time>2021-03-30T15:56:27Z</time>
      </trkpt>
      <trkpt lat="46.1961" lon="-0.48664">
        <ele>58</ele>
        <time>2021-03-30T15:56:28Z</time>
      </trkpt>
      <trkpt lat="46.19604" lon="-0.48666">
        <ele>58.2</ele>
        <time>2021-03-30T15:56:29Z</time>
      </trkpt>
      <trkpt lat="46.19598" lon="-0.48667">
        <ele>58.2</ele>
        <time>2021-03-30T15:56:30Z</time>
      </trkpt>
      <trkpt lat="46.19592" lon="-0.48668">
        <ele>58.4</ele>
        <time>2021-03-30T15:56:31Z</time>
      </trkpt>
      <trkpt lat="46.19588" lon="-0.48669">
        <ele>58.6</ele>
        <time>2021-03-30T15:56:32Z</time>
      </trkpt>
      <trkpt lat="46.19584" lon="-0.48672">
        <ele>58.6</ele>
        <time>2021-03-30T15:56:33Z</time>
      </trkpt>
      <trkpt lat="46.19582" lon="-0.48677">
        <ele>58.8</ele>
        <time>2021-03-30T15:56:34Z</time>
      </trkpt>
      <trkpt lat="46.19582" lon="-0.48684">
        <ele>58.8</ele>
        <time>2021-03-30T15:56:35Z</time>
      </trkpt>
      <trkpt lat="46.19583" lon="-0.48691">
        <ele>59</ele>
        <time>2021-03-30T15:56:36Z</time>
      </trkpt>
      <trkpt lat="46.19584" lon="-0.487">
        <ele>59</ele>
        <time>2021-03-30T15:56:37Z</time>
      </trkpt>
      <trkpt lat="46.19585" lon="-0.48709">
        <ele>59</ele>
        <time>2021-03-30T15:56:38Z</time>
      </trkpt>
      <trkpt lat="46.19586" lon="-0.48719">
        <ele>59</ele>
        <time>2021-03-30T15:56:39Z</time>
      </trkpt>
      <trkpt lat="46.19588" lon="-0.48729">
        <ele>59</ele>
        <time>2021-03-30T15:56:40Z</time>
      </trkpt>
      <trkpt lat="46.1959" lon="-0.48741">
        <ele>59</ele>
        <time>2021-03-30T15:56:41Z</time>
      </trkpt>
      <trkpt lat="46.19593" lon="-0.48752">
        <ele>59</ele>
        <time>2021-03-30T15:56:42Z</time>
      </trkpt>
      <trkpt lat="46.19597" lon="-0.48762">
        <ele>59</ele>
        <time>2021-03-30T15:56:43Z</time>
      </trkpt>
      <trkpt lat="46.19601" lon="-0.48773">
        <ele>59</ele>
        <time>2021-03-30T15:56:44Z</time>
      </trkpt>
      <trkpt lat="46.19605" lon="-0.48784">
        <ele>59</ele>
        <time>2021-03-30T15:56:45Z</time>
      </trkpt>
      <trkpt lat="46.1961" lon="-0.48794">
        <ele>59</ele>
        <time>2021-03-30T15:56:46Z</time>
      </trkpt>
      <trkpt lat="46.19634" lon="-0.48845">
        <ele>58</ele>
        <time>2021-03-30T15:56:51Z</time>
      </trkpt>
      <trkpt lat="46.19641" lon="-0.48864">
        <ele>57.8</ele>
        <time>2021-03-30T15:56:53Z</time>
      </trkpt>
      <trkpt lat="46.19643" lon="-0.48873">
        <ele>57.8</ele>
        <time>2021-03-30T15:56:54Z</time>
      </trkpt>
      <trkpt lat="46.1965" lon="-0.48892">
        <ele>57.8</ele>
        <time>2021-03-30T15:56:56Z</time>
      </trkpt>
      <trkpt lat="46.19653" lon="-0.489">
        <ele>57.8</ele>
        <time>2021-03-30T15:56:57Z</time>
      </trkpt>
      <trkpt lat="46.19656" lon="-0.48908">
        <ele>57.8</ele>
        <time>2021-03-30T15:56:58Z</time>
      </trkpt>
      <trkpt lat="46.1966" lon="-0.48916">
        <ele>57.8</ele>
        <time>2021-03-30T15:56:59Z</time>
      </trkpt>
      <trkpt lat="46.19663" lon="-0.48925">
        <ele>58</ele>
        <time>2021-03-30T15:57:00Z</time>
      </trkpt>
      <trkpt lat="46.19666" lon="-0.48933">
        <ele>58</ele>
        <time>2021-03-30T15:57:01Z</time>
      </trkpt>
      <trkpt lat="46.1967" lon="-0.48942">
        <ele>58.4</ele>
        <time>2021-03-30T15:57:02Z</time>
      </trkpt>
      <trkpt lat="46.19673" lon="-0.4895">
        <ele>58.8</ele>
        <time>2021-03-30T15:57:03Z</time>
      </trkpt>
      <trkpt lat="46.19677" lon="-0.48959">
        <ele>59</ele>
        <time>2021-03-30T15:57:04Z</time>
      </trkpt>
      <trkpt lat="46.19681" lon="-0.48967">
        <ele>59.2</ele>
        <time>2021-03-30T15:57:05Z</time>
      </trkpt>
      <trkpt lat="46.19688" lon="-0.48984">
        <ele>59.4</ele>
        <time>2021-03-30T15:57:07Z</time>
      </trkpt>
      <trkpt lat="46.19699" lon="-0.49009">
        <ele>60.4</ele>
        <time>2021-03-30T15:57:10Z</time>
      </trkpt>
      <trkpt lat="46.19706" lon="-0.49027">
        <ele>61</ele>
        <time>2021-03-30T15:57:12Z</time>
      </trkpt>
      <trkpt lat="46.19709" lon="-0.49036">
        <ele>61.6</ele>
        <time>2021-03-30T15:57:13Z</time>
      </trkpt>
      <trkpt lat="46.19717" lon="-0.49062">
        <ele>62</ele>
        <time>2021-03-30T15:57:16Z</time>
      </trkpt>
      <trkpt lat="46.19721" lon="-0.49071">
        <ele>62.6</ele>
        <time>2021-03-30T15:57:17Z</time>
      </trkpt>
      <trkpt lat="46.19725" lon="-0.4908">
        <ele>63</ele>
        <time>2021-03-30T15:57:18Z</time>
      </trkpt>
      <trkpt lat="46.19728" lon="-0.49089">
        <ele>63.2</ele>
        <time>2021-03-30T15:57:19Z</time>
      </trkpt>
      <trkpt lat="46.19732" lon="-0.49098">
        <ele>63.6</ele>
        <time>2021-03-30T15:57:20Z</time>
      </trkpt>
      <trkpt lat="46.19736" lon="-0.49107">
        <ele>64</ele>
        <time>2021-03-30T15:57:21Z</time>
      </trkpt>
      <trkpt lat="46.19739" lon="-0.49116">
        <ele>64.2</ele>
        <time>2021-03-30T15:57:22Z</time>
      </trkpt>
      <trkpt lat="46.19743" lon="-0.49124">
        <ele>64.2</ele>
        <time>2021-03-30T15:57:23Z</time>
      </trkpt>
      <trkpt lat="46.19746" lon="-0.49132">
        <ele>64.4</ele>
        <time>2021-03-30T15:57:24Z</time>
      </trkpt>
      <trkpt lat="46.1975" lon="-0.49139">
        <ele>64.4</ele>
        <time>2021-03-30T15:57:25Z</time>
      </trkpt>
      <trkpt lat="46.19755" lon="-0.49146">
        <ele>64.6</ele>
        <time>2021-03-30T15:57:26Z</time>
      </trkpt>
      <trkpt lat="46.1976" lon="-0.49152">
        <ele>64.6</ele>
        <time>2021-03-30T15:57:27Z</time>
      </trkpt>
      <trkpt lat="46.19766" lon="-0.49158">
        <ele>64.8</ele>
        <time>2021-03-30T15:57:28Z</time>
      </trkpt>
      <trkpt lat="46.19771" lon="-0.49165">
        <ele>64.8</ele>
        <time>2021-03-30T15:57:29Z</time>
      </trkpt>
      <trkpt lat="46.19774" lon="-0.49172">
        <ele>65</ele>
        <time>2021-03-30T15:57:30Z</time>
      </trkpt>
      <trkpt lat="46.19777" lon="-0.49181">
        <ele>65.4</ele>
        <time>2021-03-30T15:57:31Z</time>
      </trkpt>
      <trkpt lat="46.19779" lon="-0.4919">
        <ele>66</ele>
        <time>2021-03-30T15:57:32Z</time>
      </trkpt>
      <trkpt lat="46.19782" lon="-0.49198">
        <ele>66.4</ele>
        <time>2021-03-30T15:57:33Z</time>
      </trkpt>
      <trkpt lat="46.19784" lon="-0.49205">
        <ele>66.6</ele>
        <time>2021-03-30T15:57:34Z</time>
      </trkpt>
      <trkpt lat="46.19786" lon="-0.49212">
        <ele>66.8</ele>
        <time>2021-03-30T15:57:35Z</time>
      </trkpt>
      <trkpt lat="46.1979" lon="-0.49217">
        <ele>67</ele>
        <time>2021-03-30T15:57:36Z</time>
      </trkpt>
      <trkpt lat="46.19793" lon="-0.4922">
        <ele>67</ele>
        <time>2021-03-30T15:57:37Z</time>
      </trkpt>
      <trkpt lat="46.19796" lon="-0.49223">
        <ele>67.2</ele>
        <time>2021-03-30T15:57:38Z</time>
      </trkpt>
      <trkpt lat="46.19799" lon="-0.49226">
        <ele>67.4</ele>
        <time>2021-03-30T15:57:39Z</time>
      </trkpt>
      <trkpt lat="46.198" lon="-0.4923">
        <ele>67.4</ele>
        <time>2021-03-30T15:57:40Z</time>
      </trkpt>
      <trkpt lat="46.19801" lon="-0.49234">
        <ele>67.8</ele>
        <time>2021-03-30T15:57:41Z</time>
      </trkpt>
      <trkpt lat="46.19801" lon="-0.49241">
        <ele>68</ele>
        <time>2021-03-30T15:57:42Z</time>
      </trkpt>
      <trkpt lat="46.19801" lon="-0.49248">
        <ele>68.2</ele>
        <time>2021-03-30T15:57:43Z</time>
      </trkpt>
      <trkpt lat="46.198" lon="-0.49255">
        <ele>68.4</ele>
        <time>2021-03-30T15:57:44Z</time>
      </trkpt>
      <trkpt lat="46.19797" lon="-0.49264">
        <ele>68.6</ele>
        <time>2021-03-30T15:57:45Z</time>
      </trkpt>
      <trkpt lat="46.19796" lon="-0.49272">
        <ele>68.8</ele>
        <time>2021-03-30T15:57:46Z</time>
      </trkpt>
      <trkpt lat="46.19794" lon="-0.49281">
        <ele>68.8</ele>
        <time>2021-03-30T15:57:47Z</time>
      </trkpt>
      <trkpt lat="46.19792" lon="-0.49291">
        <ele>69</ele>
        <time>2021-03-30T15:57:48Z</time>
      </trkpt>
      <trkpt lat="46.1979" lon="-0.49301">
        <ele>69.2</ele>
        <time>2021-03-30T15:57:49Z</time>
      </trkpt>
      <trkpt lat="46.19788" lon="-0.4931">
        <ele>69.2</ele>
        <time>2021-03-30T15:57:50Z</time>
      </trkpt>
      <trkpt lat="46.19787" lon="-0.4932">
        <ele>69.4</ele>
        <time>2021-03-30T15:57:51Z</time>
      </trkpt>
      <trkpt lat="46.19785" lon="-0.49328">
        <ele>69.4</ele>
        <time>2021-03-30T15:57:52Z</time>
      </trkpt>
      <trkpt lat="46.19783" lon="-0.49337">
        <ele>69.4</ele>
        <time>2021-03-30T15:57:53Z</time>
      </trkpt>
      <trkpt lat="46.19782" lon="-0.49345">
        <ele>69.6</ele>
        <time>2021-03-30T15:57:54Z</time>
      </trkpt>
      <trkpt lat="46.1978" lon="-0.49354">
        <ele>69.8</ele>
        <time>2021-03-30T15:57:55Z</time>
      </trkpt>
      <trkpt lat="46.19779" lon="-0.49364">
        <ele>69.8</ele>
        <time>2021-03-30T15:57:56Z</time>
      </trkpt>
      <trkpt lat="46.19778" lon="-0.49374">
        <ele>69.8</ele>
        <time>2021-03-30T15:57:57Z</time>
      </trkpt>
      <trkpt lat="46.19776" lon="-0.49384">
        <ele>70</ele>
        <time>2021-03-30T15:57:58Z</time>
      </trkpt>
      <trkpt lat="46.19775" lon="-0.49394">
        <ele>70</ele>
        <time>2021-03-30T15:57:59Z</time>
      </trkpt>
      <trkpt lat="46.19773" lon="-0.49404">
        <ele>70</ele>
        <time>2021-03-30T15:58:00Z</time>
      </trkpt>
      <trkpt lat="46.19771" lon="-0.49414">
        <ele>70</ele>
        <time>2021-03-30T15:58:01Z</time>
      </trkpt>
      <trkpt lat="46.1977" lon="-0.49424">
        <ele>70.2</ele>
        <time>2021-03-30T15:58:02Z</time>
      </trkpt>
      <trkpt lat="46.19768" lon="-0.49433">
        <ele>70.2</ele>
        <time>2021-03-30T15:58:03Z</time>
      </trkpt>
      <trkpt lat="46.19767" lon="-0.49441">
        <ele>70.2</ele>
        <time>2021-03-30T15:58:04Z</time>
      </trkpt>
      <trkpt lat="46.19765" lon="-0.49449">
        <ele>70.4</ele>
        <time>2021-03-30T15:58:05Z</time>
      </trkpt>
      <trkpt lat="46.19764" lon="-0.49457">
        <ele>70.4</ele>
        <time>2021-03-30T15:58:06Z</time>
      </trkpt>
      <trkpt lat="46.19763" lon="-0.49465">
        <ele>70.4</ele>
        <time>2021-03-30T15:58:07Z</time>
      </trkpt>
      <trkpt lat="46.19761" lon="-0.49473">
        <ele>70.6</ele>
        <time>2021-03-30T15:58:08Z</time>
      </trkpt>
      <trkpt lat="46.19759" lon="-0.49483">
        <ele>70.6</ele>
        <time>2021-03-30T15:58:09Z</time>
      </trkpt>
      <trkpt lat="46.19758" lon="-0.49493">
        <ele>70.8</ele>
        <time>2021-03-30T15:58:10Z</time>
      </trkpt>
      <trkpt lat="46.19756" lon="-0.49502">
        <ele>71</ele>
        <time>2021-03-30T15:58:11Z</time>
      </trkpt>
      <trkpt lat="46.19754" lon="-0.49512">
        <ele>71.2</ele>
        <time>2021-03-30T15:58:12Z</time>
      </trkpt>
      <trkpt lat="46.19752" lon="-0.49522">
        <ele>71.4</ele>
        <time>2021-03-30T15:58:13Z</time>
      </trkpt>
      <trkpt lat="46.19751" lon="-0.49533">
        <ele>71.6</ele>
        <time>2021-03-30T15:58:14Z</time>
      </trkpt>
      <trkpt lat="46.19749" lon="-0.49543">
        <ele>71.6</ele>
        <time>2021-03-30T15:58:15Z</time>
      </trkpt>
      <trkpt lat="46.19747" lon="-0.49552">
        <ele>71.8</ele>
        <time>2021-03-30T15:58:16Z</time>
      </trkpt>
      <trkpt lat="46.19746" lon="-0.49562">
        <ele>72.2</ele>
        <time>2021-03-30T15:58:17Z</time>
      </trkpt>
      <trkpt lat="46.19744" lon="-0.4957">
        <ele>72</ele>
        <time>2021-03-30T15:58:18Z</time>
      </trkpt>
      <trkpt lat="46.19743" lon="-0.49579">
        <ele>72</ele>
        <time>2021-03-30T15:58:19Z</time>
      </trkpt>
      <trkpt lat="46.19741" lon="-0.49587">
        <ele>72</ele>
        <time>2021-03-30T15:58:20Z</time>
      </trkpt>
      <trkpt lat="46.1974" lon="-0.49595">
        <ele>72.2</ele>
        <time>2021-03-30T15:58:21Z</time>
      </trkpt>
      <trkpt lat="46.19738" lon="-0.49602">
        <ele>72.2</ele>
        <time>2021-03-30T15:58:22Z</time>
      </trkpt>
      <trkpt lat="46.19735" lon="-0.49605">
        <ele>72.2</ele>
        <time>2021-03-30T15:58:23Z</time>
      </trkpt>
      <trkpt lat="46.19732" lon="-0.49605">
        <ele>72.4</ele>
        <time>2021-03-30T15:58:24Z</time>
      </trkpt>
      <trkpt lat="46.19729" lon="-0.49604">
        <ele>72.6</ele>
        <time>2021-03-30T15:58:25Z</time>
      </trkpt>
      <trkpt lat="46.19726" lon="-0.49602">
        <ele>72.6</ele>
        <time>2021-03-30T15:58:26Z</time>
      </trkpt>
      <trkpt lat="46.19724" lon="-0.49599">
        <ele>72.8</ele>
        <time>2021-03-30T15:58:27Z</time>
      </trkpt>
      <trkpt lat="46.19722" lon="-0.49596">
        <ele>72.8</ele>
        <time>2021-03-30T15:58:28Z</time>
      </trkpt>
      <trkpt lat="46.19719" lon="-0.49593">
        <ele>73</ele>
        <time>2021-03-30T15:58:29Z</time>
      </trkpt>
      <trkpt lat="46.19717" lon="-0.4959">
        <ele>73.4</ele>
        <time>2021-03-30T15:58:30Z</time>
      </trkpt>
      <trkpt lat="46.19715" lon="-0.49587">
        <ele>73.4</ele>
        <time>2021-03-30T15:58:31Z</time>
      </trkpt>
      <trkpt lat="46.19713" lon="-0.49584">
        <ele>73.6</ele>
        <time>2021-03-30T15:58:32Z</time>
      </trkpt>
      <trkpt lat="46.1971" lon="-0.4958">
        <ele>73.6</ele>
        <time>2021-03-30T15:58:33Z</time>
      </trkpt>
      <trkpt lat="46.19708" lon="-0.49576">
        <ele>73.6</ele>
        <time>2021-03-30T15:58:34Z</time>
      </trkpt>
      <trkpt lat="46.19705" lon="-0.49572">
        <ele>73.8</ele>
        <time>2021-03-30T15:58:35Z</time>
      </trkpt>
      <trkpt lat="46.19702" lon="-0.49569">
        <ele>73.8</ele>
        <time>2021-03-30T15:58:36Z</time>
      </trkpt>
      <trkpt lat="46.197" lon="-0.49565">
        <ele>73.8</ele>
        <time>2021-03-30T15:58:37Z</time>
      </trkpt>
      <trkpt lat="46.19697" lon="-0.49561">
        <ele>73.8</ele>
        <time>2021-03-30T15:58:38Z</time>
      </trkpt>
      <trkpt lat="46.19695" lon="-0.49556">
        <ele>73.8</ele>
        <time>2021-03-30T15:58:39Z</time>
      </trkpt>
      <trkpt lat="46.19691" lon="-0.49551">
        <ele>73.8</ele>
        <time>2021-03-30T15:58:40Z</time>
      </trkpt>
      <trkpt lat="46.1967" lon="-0.49527">
        <ele>73.8</ele>
        <time>2021-03-30T15:58:44Z</time>
      </trkpt>
      <trkpt lat="46.19639" lon="-0.49492">
        <ele>73.4</ele>
        <time>2021-03-30T15:58:49Z</time>
      </trkpt>
      <trkpt lat="46.19626" lon="-0.49477">
        <ele>73</ele>
        <time>2021-03-30T15:58:51Z</time>
      </trkpt>
      <trkpt lat="46.19613" lon="-0.49462">
        <ele>72.8</ele>
        <time>2021-03-30T15:58:53Z</time>
      </trkpt>
      <trkpt lat="46.19594" lon="-0.49437">
        <ele>72</ele>
        <time>2021-03-30T15:58:56Z</time>
      </trkpt>
      <trkpt lat="46.19576" lon="-0.49413">
        <ele>71.6</ele>
        <time>2021-03-30T15:58:59Z</time>
      </trkpt>
      <trkpt lat="46.19565" lon="-0.49395">
        <ele>71.4</ele>
        <time>2021-03-30T15:59:01Z</time>
      </trkpt>
      <trkpt lat="46.19555" lon="-0.49375">
        <ele>71.2</ele>
        <time>2021-03-30T15:59:03Z</time>
      </trkpt>
      <trkpt lat="46.19526" lon="-0.49319">
        <ele>70.4</ele>
        <time>2021-03-30T15:59:09Z</time>
      </trkpt>
      <trkpt lat="46.19506" lon="-0.4928">
        <ele>69.2</ele>
        <time>2021-03-30T15:59:13Z</time>
      </trkpt>
      <trkpt lat="46.19493" lon="-0.49247">
        <ele>68.8</ele>
        <time>2021-03-30T15:59:16Z</time>
      </trkpt>
      <trkpt lat="46.19484" lon="-0.49227">
        <ele>67.8</ele>
        <time>2021-03-30T15:59:18Z</time>
      </trkpt>
      <trkpt lat="46.19474" lon="-0.49209">
        <ele>67</ele>
        <time>2021-03-30T15:59:20Z</time>
      </trkpt>
      <trkpt lat="46.19469" lon="-0.49201">
        <ele>66.6</ele>
        <time>2021-03-30T15:59:21Z</time>
      </trkpt>
      <trkpt lat="46.19464" lon="-0.49194">
        <ele>65.8</ele>
        <time>2021-03-30T15:59:22Z</time>
      </trkpt>
      <trkpt lat="46.19451" lon="-0.4918">
        <ele>65.4</ele>
        <time>2021-03-30T15:59:24Z</time>
      </trkpt>
      <trkpt lat="46.19445" lon="-0.49175">
        <ele>65.4</ele>
        <time>2021-03-30T15:59:25Z</time>
      </trkpt>
      <trkpt lat="46.19431" lon="-0.49164">
        <ele>65.2</ele>
        <time>2021-03-30T15:59:27Z</time>
      </trkpt>
      <trkpt lat="46.19425" lon="-0.49159">
        <ele>65.2</ele>
        <time>2021-03-30T15:59:28Z</time>
      </trkpt>
      <trkpt lat="46.19419" lon="-0.49153">
        <ele>65.2</ele>
        <time>2021-03-30T15:59:29Z</time>
      </trkpt>
      <trkpt lat="46.19414" lon="-0.49146">
        <ele>65.2</ele>
        <time>2021-03-30T15:59:30Z</time>
      </trkpt>
      <trkpt lat="46.19404" lon="-0.4913">
        <ele>65</ele>
        <time>2021-03-30T15:59:32Z</time>
      </trkpt>
      <trkpt lat="46.194" lon="-0.49122">
        <ele>65</ele>
        <time>2021-03-30T15:59:33Z</time>
      </trkpt>
      <trkpt lat="46.19396" lon="-0.49113">
        <ele>65</ele>
        <time>2021-03-30T15:59:34Z</time>
      </trkpt>
      <trkpt lat="46.19393" lon="-0.49104">
        <ele>65.2</ele>
        <time>2021-03-30T15:59:35Z</time>
      </trkpt>
      <trkpt lat="46.1939" lon="-0.49095">
        <ele>65.4</ele>
        <time>2021-03-30T15:59:36Z</time>
      </trkpt>
      <trkpt lat="46.19387" lon="-0.49086">
        <ele>65.4</ele>
        <time>2021-03-30T15:59:37Z</time>
      </trkpt>
      <trkpt lat="46.19384" lon="-0.49077">
        <ele>65.4</ele>
        <time>2021-03-30T15:59:38Z</time>
      </trkpt>
      <trkpt lat="46.19382" lon="-0.49067">
        <ele>65.4</ele>
        <time>2021-03-30T15:59:39Z</time>
      </trkpt>
      <trkpt lat="46.1938" lon="-0.49058">
        <ele>65.4</ele>
        <time>2021-03-30T15:59:40Z</time>
      </trkpt>
      <trkpt lat="46.19378" lon="-0.49049">
        <ele>65.4</ele>
        <time>2021-03-30T15:59:41Z</time>
      </trkpt>
      <trkpt lat="46.19375" lon="-0.49041">
        <ele>65.6</ele>
        <time>2021-03-30T15:59:42Z</time>
      </trkpt>
      <trkpt lat="46.19372" lon="-0.49032">
        <ele>65.6</ele>
        <time>2021-03-30T15:59:43Z</time>
      </trkpt>
      <trkpt lat="46.19369" lon="-0.49023">
        <ele>65.4</ele>
        <time>2021-03-30T15:59:44Z</time>
      </trkpt>
      <trkpt lat="46.19366" lon="-0.49014">
        <ele>65.4</ele>
        <time>2021-03-30T15:59:45Z</time>
      </trkpt>
      <trkpt lat="46.19355" lon="-0.4897">
        <ele>65.4</ele>
        <time>2021-03-30T15:59:50Z</time>
      </trkpt>
      <trkpt lat="46.19352" lon="-0.48962">
        <ele>65.4</ele>
        <time>2021-03-30T15:59:51Z</time>
      </trkpt>
      <trkpt lat="46.19333" lon="-0.48909">
        <ele>65.4</ele>
        <time>2021-03-30T15:59:57Z</time>
      </trkpt>
      <trkpt lat="46.19306" lon="-0.48858">
        <ele>65.4</ele>
        <time>2021-03-30T16:00:03Z</time>
      </trkpt>
      <trkpt lat="46.19298" lon="-0.48844">
        <ele>65.4</ele>
        <time>2021-03-30T16:00:05Z</time>
      </trkpt>
      <trkpt lat="46.19296" lon="-0.4884">
        <ele>65.4</ele>
        <time>2021-03-30T16:00:06Z</time>
      </trkpt>
      <trkpt lat="46.19295" lon="-0.48838">
        <ele>65.4</ele>
        <time>2021-03-30T16:00:07Z</time>
      </trkpt>
      <trkpt lat="46.19295" lon="-0.48837">
        <ele>65.4</ele>
        <time>2021-03-30T16:00:08Z</time>
      </trkpt>
      <trkpt lat="46.19295" lon="-0.48836">
        <ele>65.4</ele>
        <time>2021-03-30T16:00:09Z</time>
      </trkpt>
      <trkpt lat="46.19294" lon="-0.48836">
        <ele>65.4</ele>
        <time>2021-03-30T16:00:10Z</time>
      </trkpt>
      <trkpt lat="46.19294" lon="-0.48836">
        <ele>65.4</ele>
        <time>2021-03-30T16:00:12Z</time>
      </trkpt>
      <trkpt lat="46.19304" lon="-0.48829">
        <ele>67.6</ele>
        <time>2021-03-30T16:00:49Z</time>
      </trkpt>
      <trkpt lat="46.19306" lon="-0.48826">
        <ele>67.6</ele>
        <time>2021-03-30T16:00:50Z</time>
      </trkpt>
      <trkpt lat="46.19307" lon="-0.48823">
        <ele>67.6</ele>
        <time>2021-03-30T16:00:51Z</time>
      </trkpt>
      <trkpt lat="46.19307" lon="-0.48819">
        <ele>67.4</ele>
        <time>2021-03-30T16:00:52Z</time>
      </trkpt>
      <trkpt lat="46.19307" lon="-0.48814">
        <ele>67.4</ele>
        <time>2021-03-30T16:00:53Z</time>
      </trkpt>
      <trkpt lat="46.19307" lon="-0.48809">
        <ele>67.4</ele>
        <time>2021-03-30T16:00:54Z</time>
      </trkpt>
      <trkpt lat="46.19306" lon="-0.48806">
        <ele>67.4</ele>
        <time>2021-03-30T16:00:55Z</time>
      </trkpt>
      <trkpt lat="46.19306" lon="-0.48803">
        <ele>67.2</ele>
        <time>2021-03-30T16:00:56Z</time>
      </trkpt>
      <trkpt lat="46.19306" lon="-0.48802">
        <ele>67.2</ele>
        <time>2021-03-30T16:00:57Z</time>
      </trkpt>
      <trkpt lat="46.19306" lon="-0.488">
        <ele>67</ele>
        <time>2021-03-30T16:00:58Z</time>
      </trkpt>
      <trkpt lat="46.19307" lon="-0.48792">
        <ele>66.8</ele>
        <time>2021-03-30T16:01:01Z</time>
      </trkpt>
      <trkpt lat="46.19308" lon="-0.4879">
        <ele>66.6</ele>
        <time>2021-03-30T16:01:02Z</time>
      </trkpt>
      <trkpt lat="46.19308" lon="-0.48788">
        <ele>66.6</ele>
        <time>2021-03-30T16:01:03Z</time>
      </trkpt>
      <trkpt lat="46.19309" lon="-0.48786">
        <ele>66.6</ele>
        <time>2021-03-30T16:01:04Z</time>
      </trkpt>
      <trkpt lat="46.1931" lon="-0.48784">
        <ele>66.6</ele>
        <time>2021-03-30T16:01:05Z</time>
      </trkpt>
      <trkpt lat="46.1931" lon="-0.48783">
        <ele>66.6</ele>
        <time>2021-03-30T16:01:06Z</time>
      </trkpt>
      <trkpt lat="46.19312" lon="-0.48782">
        <ele>66.6</ele>
        <time>2021-03-30T16:01:07Z</time>
      </trkpt>
      <trkpt lat="46.19312" lon="-0.48781">
        <ele>66.6</ele>
        <time>2021-03-30T16:01:08Z</time>
      </trkpt>
      <trkpt lat="46.19312" lon="-0.48781">
        <ele>66.6</ele>
        <time>2021-03-30T16:01:09Z</time>
      </trkpt>
      <trkpt lat="46.19317" lon="-0.48792">
        <ele>66.6</ele>
        <time>2021-03-30T16:02:03Z</time>
      </trkpt>
      <trkpt lat="46.19318" lon="-0.48795">
        <ele>66.6</ele>
        <time>2021-03-30T16:02:05Z</time>
      </trkpt>
      <trkpt lat="46.19319" lon="-0.48796">
        <ele>66.8</ele>
        <time>2021-03-30T16:02:06Z</time>
      </trkpt>
      <trkpt lat="46.19319" lon="-0.48798">
        <ele>66.8</ele>
        <time>2021-03-30T16:02:08Z</time>
      </trkpt>
      <trkpt lat="46.19318" lon="-0.4881">
        <ele>66.8</ele>
        <time>2021-03-30T16:02:15Z</time>
      </trkpt>
      <trkpt lat="46.19317" lon="-0.48812">
        <ele>66.8</ele>
        <time>2021-03-30T16:02:16Z</time>
      </trkpt>
      <trkpt lat="46.19317" lon="-0.48815">
        <ele>66.8</ele>
        <time>2021-03-30T16:02:17Z</time>
      </trkpt>
      <trkpt lat="46.19317" lon="-0.48817">
        <ele>66.8</ele>
        <time>2021-03-30T16:02:18Z</time>
      </trkpt>
      <trkpt lat="46.19317" lon="-0.4882">
        <ele>66.8</ele>
        <time>2021-03-30T16:02:19Z</time>
      </trkpt>
      <trkpt lat="46.19317" lon="-0.48822">
        <ele>66.8</ele>
        <time>2021-03-30T16:02:20Z</time>
      </trkpt>
      <trkpt lat="46.19317" lon="-0.48824">
        <ele>66.8</ele>
        <time>2021-03-30T16:02:21Z</time>
      </trkpt>
      <trkpt lat="46.19317" lon="-0.48826">
        <ele>66.8</ele>
        <time>2021-03-30T16:02:22Z</time>
      </trkpt>
      <trkpt lat="46.19316" lon="-0.48827">
        <ele>66.8</ele>
        <time>2021-03-30T16:02:24Z</time>
      </trkpt>
      <trkpt lat="46.19315" lon="-0.48827">
        <ele>67</ele>
        <time>2021-03-30T16:02:25Z</time>
      </trkpt>
      <trkpt lat="46.19315" lon="-0.48828">
        <ele>67</ele>
        <time>2021-03-30T16:02:26Z</time>
      </trkpt>
      <trkpt lat="46.19314" lon="-0.48829">
        <ele>67.2</ele>
        <time>2021-03-30T16:02:27Z</time>
      </trkpt>
      <trkpt lat="46.19313" lon="-0.48829">
        <ele>67.2</ele>
        <time>2021-03-30T16:02:28Z</time>
      </trkpt>
      <trkpt lat="46.19309" lon="-0.48831">
        <ele>67.2</ele>
        <time>2021-03-30T16:02:30Z</time>
      </trkpt>
      <trkpt lat="46.19307" lon="-0.48833">
        <ele>67.2</ele>
        <time>2021-03-30T16:02:31Z</time>
      </trkpt>
      <trkpt lat="46.19304" lon="-0.48834">
        <ele>67.2</ele>
        <time>2021-03-30T16:02:32Z</time>
      </trkpt>
      <trkpt lat="46.19296" lon="-0.48827">
        <ele>67.2</ele>
        <time>2021-03-30T16:02:35Z</time>
      </trkpt>
      <trkpt lat="46.19289" lon="-0.48818">
        <ele>67.2</ele>
        <time>2021-03-30T16:02:37Z</time>
      </trkpt>
      <trkpt lat="46.19285" lon="-0.48814">
        <ele>67.2</ele>
        <time>2021-03-30T16:02:38Z</time>
      </trkpt>
      <trkpt lat="46.19281" lon="-0.4881">
        <ele>67.2</ele>
        <time>2021-03-30T16:02:39Z</time>
      </trkpt>
      <trkpt lat="46.19257" lon="-0.48786">
        <ele>66.8</ele>
        <time>2021-03-30T16:02:44Z</time>
      </trkpt>
      <trkpt lat="46.19254" lon="-0.48782">
        <ele>66.6</ele>
        <time>2021-03-30T16:02:45Z</time>
      </trkpt>
      <trkpt lat="46.19253" lon="-0.48777">
        <ele>66.6</ele>
        <time>2021-03-30T16:02:46Z</time>
      </trkpt>
      <trkpt lat="46.19254" lon="-0.48773">
        <ele>66.6</ele>
        <time>2021-03-30T16:02:47Z</time>
      </trkpt>
      <trkpt lat="46.19257" lon="-0.48769">
        <ele>66.6</ele>
        <time>2021-03-30T16:02:48Z</time>
      </trkpt>
      <trkpt lat="46.1926" lon="-0.48767">
        <ele>66.6</ele>
        <time>2021-03-30T16:02:49Z</time>
      </trkpt>
      <trkpt lat="46.19268" lon="-0.48762">
        <ele>66.4</ele>
        <time>2021-03-30T16:02:51Z</time>
      </trkpt>
      <trkpt lat="46.19274" lon="-0.48759">
        <ele>66.4</ele>
        <time>2021-03-30T16:02:52Z</time>
      </trkpt>
      <trkpt lat="46.19279" lon="-0.48758">
        <ele>66.2</ele>
        <time>2021-03-30T16:02:53Z</time>
      </trkpt>
      <trkpt lat="46.19297" lon="-0.48753">
        <ele>66.2</ele>
        <time>2021-03-30T16:02:56Z</time>
      </trkpt>
      <trkpt lat="46.19302" lon="-0.48751">
        <ele>66</ele>
        <time>2021-03-30T16:02:57Z</time>
      </trkpt>
      <trkpt lat="46.19308" lon="-0.48749">
        <ele>66</ele>
        <time>2021-03-30T16:02:58Z</time>
      </trkpt>
      <trkpt lat="46.1934" lon="-0.48738">
        <ele>65.8</ele>
        <time>2021-03-30T16:03:04Z</time>
      </trkpt>
      <trkpt lat="46.19353" lon="-0.48731">
        <ele>65.8</ele>
        <time>2021-03-30T16:03:06Z</time>
      </trkpt>
      <trkpt lat="46.19367" lon="-0.48722">
        <ele>65.6</ele>
        <time>2021-03-30T16:03:08Z</time>
      </trkpt>
      <trkpt lat="46.19374" lon="-0.48717">
        <ele>65.4</ele>
        <time>2021-03-30T16:03:09Z</time>
      </trkpt>
      <trkpt lat="46.19388" lon="-0.48707">
        <ele>65.2</ele>
        <time>2021-03-30T16:03:11Z</time>
      </trkpt>
      <trkpt lat="46.1942" lon="-0.48684">
        <ele>64.8</ele>
        <time>2021-03-30T16:03:16Z</time>
      </trkpt>
      <trkpt lat="46.19427" lon="-0.4868">
        <ele>64.8</ele>
        <time>2021-03-30T16:03:17Z</time>
      </trkpt>
      <trkpt lat="46.19432" lon="-0.48676">
        <ele>64.8</ele>
        <time>2021-03-30T16:03:18Z</time>
      </trkpt>
      <trkpt lat="46.19436" lon="-0.48673">
        <ele>64.8</ele>
        <time>2021-03-30T16:03:19Z</time>
      </trkpt>
      <trkpt lat="46.19439" lon="-0.48669">
        <ele>64.8</ele>
        <time>2021-03-30T16:03:20Z</time>
      </trkpt>
      <trkpt lat="46.1944" lon="-0.48665">
        <ele>64.8</ele>
        <time>2021-03-30T16:03:21Z</time>
      </trkpt>
      <trkpt lat="46.1944" lon="-0.48661">
        <ele>64.8</ele>
        <time>2021-03-30T16:03:22Z</time>
      </trkpt>
      <trkpt lat="46.19438" lon="-0.48657">
        <ele>64.8</ele>
        <time>2021-03-30T16:03:23Z</time>
      </trkpt>
      <trkpt lat="46.19431" lon="-0.48646">
        <ele>65</ele>
        <time>2021-03-30T16:03:26Z</time>
      </trkpt>
      <trkpt lat="46.19418" lon="-0.48623">
        <ele>66</ele>
        <time>2021-03-30T16:03:30Z</time>
      </trkpt>
      <trkpt lat="46.19414" lon="-0.48615">
        <ele>66.2</ele>
        <time>2021-03-30T16:03:31Z</time>
      </trkpt>
      <trkpt lat="46.19405" lon="-0.486">
        <ele>66.4</ele>
        <time>2021-03-30T16:03:33Z</time>
      </trkpt>
      <trkpt lat="46.19397" lon="-0.48585">
        <ele>66.6</ele>
        <time>2021-03-30T16:03:35Z</time>
      </trkpt>
      <trkpt lat="46.19385" lon="-0.48562">
        <ele>66.6</ele>
        <time>2021-03-30T16:03:38Z</time>
      </trkpt>
      <trkpt lat="46.1936" lon="-0.48519">
        <ele>66.6</ele>
        <time>2021-03-30T16:03:43Z</time>
      </trkpt>
      <trkpt lat="46.19349" lon="-0.485">
        <ele>66.6</ele>
        <time>2021-03-30T16:03:45Z</time>
      </trkpt>
      <trkpt lat="46.19332" lon="-0.48468">
        <ele>66.4</ele>
        <time>2021-03-30T16:03:48Z</time>
      </trkpt>
      <trkpt lat="46.19307" lon="-0.48424">
        <ele>65.6</ele>
        <time>2021-03-30T16:03:52Z</time>
      </trkpt>
      <trkpt lat="46.19301" lon="-0.48414">
        <ele>65</ele>
        <time>2021-03-30T16:03:53Z</time>
      </trkpt>
      <trkpt lat="46.19295" lon="-0.48403">
        <ele>64.6</ele>
        <time>2021-03-30T16:03:54Z</time>
      </trkpt>
      <trkpt lat="46.19281" lon="-0.48383">
        <ele>63.4</ele>
        <time>2021-03-30T16:03:56Z</time>
      </trkpt>
      <trkpt lat="46.19268" lon="-0.48363">
        <ele>62.4</ele>
        <time>2021-03-30T16:03:58Z</time>
      </trkpt>
      <trkpt lat="46.19255" lon="-0.48343">
        <ele>60.6</ele>
        <time>2021-03-30T16:04:00Z</time>
      </trkpt>
      <trkpt lat="46.19242" lon="-0.48321">
        <ele>59</ele>
        <time>2021-03-30T16:04:02Z</time>
      </trkpt>
      <trkpt lat="46.19231" lon="-0.483">
        <ele>58.2</ele>
        <time>2021-03-30T16:04:04Z</time>
      </trkpt>
      <trkpt lat="46.19226" lon="-0.48289">
        <ele>57.6</ele>
        <time>2021-03-30T16:04:05Z</time>
      </trkpt>
      <trkpt lat="46.19221" lon="-0.48279">
        <ele>57.4</ele>
        <time>2021-03-30T16:04:06Z</time>
      </trkpt>
      <trkpt lat="46.19217" lon="-0.48268">
        <ele>56.4</ele>
        <time>2021-03-30T16:04:07Z</time>
      </trkpt>
      <trkpt lat="46.19212" lon="-0.48258">
        <ele>56</ele>
        <time>2021-03-30T16:04:08Z</time>
      </trkpt>
      <trkpt lat="46.19207" lon="-0.48249">
        <ele>55.6</ele>
        <time>2021-03-30T16:04:09Z</time>
      </trkpt>
      <trkpt lat="46.19202" lon="-0.4824">
        <ele>55.6</ele>
        <time>2021-03-30T16:04:10Z</time>
      </trkpt>
      <trkpt lat="46.19197" lon="-0.48232">
        <ele>55.4</ele>
        <time>2021-03-30T16:04:11Z</time>
      </trkpt>
      <trkpt lat="46.19191" lon="-0.48225">
        <ele>55.4</ele>
        <time>2021-03-30T16:04:12Z</time>
      </trkpt>
      <trkpt lat="46.19166" lon="-0.482">
        <ele>55.4</ele>
        <time>2021-03-30T16:04:16Z</time>
      </trkpt>
      <trkpt lat="46.19153" lon="-0.48186">
        <ele>55.4</ele>
        <time>2021-03-30T16:04:18Z</time>
      </trkpt>
      <trkpt lat="46.19135" lon="-0.48162">
        <ele>56.2</ele>
        <time>2021-03-30T16:04:21Z</time>
      </trkpt>
      <trkpt lat="46.1913" lon="-0.48153">
        <ele>56.6</ele>
        <time>2021-03-30T16:04:22Z</time>
      </trkpt>
      <trkpt lat="46.19102" lon="-0.48094">
        <ele>57.2</ele>
        <time>2021-03-30T16:04:28Z</time>
      </trkpt>
      <trkpt lat="46.19083" lon="-0.4803">
        <ele>57</ele>
        <time>2021-03-30T16:04:34Z</time>
      </trkpt>
      <trkpt lat="46.1908" lon="-0.48019">
        <ele>57</ele>
        <time>2021-03-30T16:04:35Z</time>
      </trkpt>
      <trkpt lat="46.19077" lon="-0.48009">
        <ele>57</ele>
        <time>2021-03-30T16:04:36Z</time>
      </trkpt>
      <trkpt lat="46.19071" lon="-0.47987">
        <ele>56.8</ele>
        <time>2021-03-30T16:04:38Z</time>
      </trkpt>
      <trkpt lat="46.19068" lon="-0.47977">
        <ele>56.8</ele>
        <time>2021-03-30T16:04:39Z</time>
      </trkpt>
      <trkpt lat="46.19065" lon="-0.47966">
        <ele>56.6</ele>
        <time>2021-03-30T16:04:40Z</time>
      </trkpt>
      <trkpt lat="46.19061" lon="-0.47956">
        <ele>56.6</ele>
        <time>2021-03-30T16:04:41Z</time>
      </trkpt>
      <trkpt lat="46.19052" lon="-0.47937">
        <ele>56.2</ele>
        <time>2021-03-30T16:04:43Z</time>
      </trkpt>
      <trkpt lat="46.19041" lon="-0.47926">
        <ele>55.8</ele>
        <time>2021-03-30T16:04:45Z</time>
      </trkpt>
      <trkpt lat="46.19035" lon="-0.47926">
        <ele>55.8</ele>
        <time>2021-03-30T16:04:46Z</time>
      </trkpt>
      <trkpt lat="46.19028" lon="-0.47931">
        <ele>55.6</ele>
        <time>2021-03-30T16:04:47Z</time>
      </trkpt>
      <trkpt lat="46.1901" lon="-0.47951">
        <ele>55.2</ele>
        <time>2021-03-30T16:04:50Z</time>
      </trkpt>
      <trkpt lat="46.19004" lon="-0.47958">
        <ele>55.2</ele>
        <time>2021-03-30T16:04:51Z</time>
      </trkpt>
      <trkpt lat="46.18992" lon="-0.47973">
        <ele>55</ele>
        <time>2021-03-30T16:04:53Z</time>
      </trkpt>
      <trkpt lat="46.18986" lon="-0.4798">
        <ele>55</ele>
        <time>2021-03-30T16:04:54Z</time>
      </trkpt>
      <trkpt lat="46.1896" lon="-0.48007">
        <ele>54.8</ele>
        <time>2021-03-30T16:04:58Z</time>
      </trkpt>
      <trkpt lat="46.18934" lon="-0.48031">
        <ele>55</ele>
        <time>2021-03-30T16:05:02Z</time>
      </trkpt>
      <trkpt lat="46.18928" lon="-0.48037">
        <ele>55.2</ele>
        <time>2021-03-30T16:05:03Z</time>
      </trkpt>
      <trkpt lat="46.18922" lon="-0.48042">
        <ele>55.4</ele>
        <time>2021-03-30T16:05:04Z</time>
      </trkpt>
      <trkpt lat="46.18902" lon="-0.48056">
        <ele>56</ele>
        <time>2021-03-30T16:05:07Z</time>
      </trkpt>
      <trkpt lat="46.18895" lon="-0.48062">
        <ele>56.4</ele>
        <time>2021-03-30T16:05:08Z</time>
      </trkpt>
      <trkpt lat="46.18889" lon="-0.48067">
        <ele>57.2</ele>
        <time>2021-03-30T16:05:09Z</time>
      </trkpt>
      <trkpt lat="46.18882" lon="-0.48072">
        <ele>57.6</ele>
        <time>2021-03-30T16:05:10Z</time>
      </trkpt>
      <trkpt lat="46.18874" lon="-0.48078">
        <ele>58.2</ele>
        <time>2021-03-30T16:05:11Z</time>
      </trkpt>
      <trkpt lat="46.18867" lon="-0.48083">
        <ele>58.6</ele>
        <time>2021-03-30T16:05:12Z</time>
      </trkpt>
      <trkpt lat="46.1886" lon="-0.48086">
        <ele>59</ele>
        <time>2021-03-30T16:05:13Z</time>
      </trkpt>
      <trkpt lat="46.18854" lon="-0.48085">
        <ele>59.4</ele>
        <time>2021-03-30T16:05:14Z</time>
      </trkpt>
      <trkpt lat="46.18848" lon="-0.48081">
        <ele>59.6</ele>
        <time>2021-03-30T16:05:15Z</time>
      </trkpt>
      <trkpt lat="46.18841" lon="-0.48075">
        <ele>59.8</ele>
        <time>2021-03-30T16:05:16Z</time>
      </trkpt>
      <trkpt lat="46.18834" lon="-0.48068">
        <ele>59.8</ele>
        <time>2021-03-30T16:05:17Z</time>
      </trkpt>
      <trkpt lat="46.18826" lon="-0.48063">
        <ele>60</ele>
        <time>2021-03-30T16:05:18Z</time>
      </trkpt>
      <trkpt lat="46.18818" lon="-0.48061">
        <ele>60</ele>
        <time>2021-03-30T16:05:19Z</time>
      </trkpt>
      <trkpt lat="46.1881" lon="-0.48059">
        <ele>60</ele>
        <time>2021-03-30T16:05:20Z</time>
      </trkpt>
      <trkpt lat="46.18802" lon="-0.48056">
        <ele>60</ele>
        <time>2021-03-30T16:05:21Z</time>
      </trkpt>
      <trkpt lat="46.18796" lon="-0.48048">
        <ele>60</ele>
        <time>2021-03-30T16:05:22Z</time>
      </trkpt>
      <trkpt lat="46.18791" lon="-0.48038">
        <ele>60</ele>
        <time>2021-03-30T16:05:23Z</time>
      </trkpt>
      <trkpt lat="46.18787" lon="-0.48027">
        <ele>60</ele>
        <time>2021-03-30T16:05:24Z</time>
      </trkpt>
      <trkpt lat="46.18783" lon="-0.48017">
        <ele>60.2</ele>
        <time>2021-03-30T16:05:25Z</time>
      </trkpt>
      <trkpt lat="46.1878" lon="-0.48007">
        <ele>60.2</ele>
        <time>2021-03-30T16:05:26Z</time>
      </trkpt>
      <trkpt lat="46.18777" lon="-0.47997">
        <ele>60.2</ele>
        <time>2021-03-30T16:05:27Z</time>
      </trkpt>
      <trkpt lat="46.18772" lon="-0.47989">
        <ele>60.2</ele>
        <time>2021-03-30T16:05:28Z</time>
      </trkpt>
      <trkpt lat="46.18767" lon="-0.47982">
        <ele>60.2</ele>
        <time>2021-03-30T16:05:29Z</time>
      </trkpt>
      <trkpt lat="46.18761" lon="-0.47976">
        <ele>60.2</ele>
        <time>2021-03-30T16:05:30Z</time>
      </trkpt>
      <trkpt lat="46.18755" lon="-0.4797">
        <ele>60.2</ele>
        <time>2021-03-30T16:05:31Z</time>
      </trkpt>
      <trkpt lat="46.18749" lon="-0.47964">
        <ele>60.2</ele>
        <time>2021-03-30T16:05:32Z</time>
      </trkpt>
      <trkpt lat="46.18743" lon="-0.47959">
        <ele>60.2</ele>
        <time>2021-03-30T16:05:33Z</time>
      </trkpt>
      <trkpt lat="46.18737" lon="-0.47954">
        <ele>60.2</ele>
        <time>2021-03-30T16:05:34Z</time>
      </trkpt>
      <trkpt lat="46.18731" lon="-0.47949">
        <ele>60.2</ele>
        <time>2021-03-30T16:05:35Z</time>
      </trkpt>
      <trkpt lat="46.18725" lon="-0.47945">
        <ele>60.6</ele>
        <time>2021-03-30T16:05:36Z</time>
      </trkpt>
      <trkpt lat="46.18718" lon="-0.47941">
        <ele>61.4</ele>
        <time>2021-03-30T16:05:37Z</time>
      </trkpt>
      <trkpt lat="46.18712" lon="-0.47937">
        <ele>62</ele>
        <time>2021-03-30T16:05:38Z</time>
      </trkpt>
      <trkpt lat="46.18706" lon="-0.47934">
        <ele>62.4</ele>
        <time>2021-03-30T16:05:39Z</time>
      </trkpt>
      <trkpt lat="46.18699" lon="-0.47932">
        <ele>63.2</ele>
        <time>2021-03-30T16:05:40Z</time>
      </trkpt>
      <trkpt lat="46.18692" lon="-0.47931">
        <ele>63.6</ele>
        <time>2021-03-30T16:05:41Z</time>
      </trkpt>
      <trkpt lat="46.18685" lon="-0.4793">
        <ele>64</ele>
        <time>2021-03-30T16:05:42Z</time>
      </trkpt>
      <trkpt lat="46.18677" lon="-0.47929">
        <ele>64.4</ele>
        <time>2021-03-30T16:05:43Z</time>
      </trkpt>
      <trkpt lat="46.18669" lon="-0.47928">
        <ele>64.4</ele>
        <time>2021-03-30T16:05:44Z</time>
      </trkpt>
      <trkpt lat="46.18664" lon="-0.47924">
        <ele>64.8</ele>
        <time>2021-03-30T16:05:45Z</time>
      </trkpt>
      <trkpt lat="46.18658" lon="-0.47919">
        <ele>64.8</ele>
        <time>2021-03-30T16:05:46Z</time>
      </trkpt>
      <trkpt lat="46.18651" lon="-0.4791">
        <ele>65</ele>
        <time>2021-03-30T16:05:47Z</time>
      </trkpt>
      <trkpt lat="46.18645" lon="-0.47901">
        <ele>65.2</ele>
        <time>2021-03-30T16:05:48Z</time>
      </trkpt>
      <trkpt lat="46.1864" lon="-0.47892">
        <ele>65.6</ele>
        <time>2021-03-30T16:05:49Z</time>
      </trkpt>
      <trkpt lat="46.18635" lon="-0.47883">
        <ele>66</ele>
        <time>2021-03-30T16:05:50Z</time>
      </trkpt>
      <trkpt lat="46.18631" lon="-0.47875">
        <ele>66.2</ele>
        <time>2021-03-30T16:05:51Z</time>
      </trkpt>
      <trkpt lat="46.18627" lon="-0.47869">
        <ele>66.4</ele>
        <time>2021-03-30T16:05:52Z</time>
      </trkpt>
      <trkpt lat="46.18622" lon="-0.47865">
        <ele>66.4</ele>
        <time>2021-03-30T16:05:53Z</time>
      </trkpt>
      <trkpt lat="46.18619" lon="-0.47864">
        <ele>66.6</ele>
        <time>2021-03-30T16:05:54Z</time>
      </trkpt>
      <trkpt lat="46.18616" lon="-0.47865">
        <ele>66.8</ele>
        <time>2021-03-30T16:05:55Z</time>
      </trkpt>
      <trkpt lat="46.18614" lon="-0.47867">
        <ele>67</ele>
        <time>2021-03-30T16:05:56Z</time>
      </trkpt>
      <trkpt lat="46.18613" lon="-0.47868">
        <ele>67.2</ele>
        <time>2021-03-30T16:05:57Z</time>
      </trkpt>
      <trkpt lat="46.18613" lon="-0.47868">
        <ele>67.4</ele>
        <time>2021-03-30T16:05:58Z</time>
      </trkpt>
      <trkpt lat="46.18613" lon="-0.47868">
        <ele>67.4</ele>
        <time>2021-03-30T16:05:59Z</time>
      </trkpt>
    </trkseg>
  </trk>
</gpx>